[[{"header":{"parameterUnit":"m.s-1","parameterCategory":1,"la1":30.6,"la2":29.2853,"lo1":-89.7004,"lo2":-87.6739,"dy":0.0162,"dx":0.0183,"nx":112,"ny":82,"refTime":"2026-04-08T12:00:00:Z","depth":0,"parameterNumber":2,"parameterNumberName":"U-component_of_WINDS"},"data":[0.0,0.0,0.0,0.0,0.0,0.0,0.0,0.0,0.0,0.0,0.0,0.0,0.0,0.0,0.0,0.0,0.0,0.0,0.0,0.0,0.0,0.0,0.0,0.0,0.0,0.0,0.0,0.0,0.0,0.0,0.0,0.0,0.0,0.0,0.0,0.0,0.0,0.0,0.0,0.0,0.0,0.0,0.0,0.0,0.0,0.0,0.0,0.0,0.0,0.0,0.0,0.0,0.0,0.0,0.0,0.0,0.0,0.0,0.0,0.0,0.0,0.0,0.0,0.0,0.0,0.0,0.0,0.0,0.0,0.0,0.0,0.0,0.0,0.0,0.0,0.0,0.0,0.0,0.0,0.0,0.0,0.0,0.0,0.0,0.0,0.0,0.0,0.0,0.0,0.0,-1.7857,-2.0423,-2.2639,-2.3023,-2.0899,-1.9854,-1.8322,-1.6009,0.0,0.0,0.0,0.0,0.0,0.0,0.0,0.0,0.0,0.0,0.0,0.0,0.0,0.0,0.0,0.0,0.0,0.0,0.0,0.0,0.0,0.0,0.0,0.0,0.0,0.0,0.0,0.0,0.0,0.0,0.0,0.0,0.0,0.0,0.0,0.0,0.0,0.0,0.0,0.0,0.0,0.0,0.0,0.0,0.0,0.0,0.0,0.0,0.0,0.0,0.0,0.0,0.0,0.0,0.0,0.0,0.0,0.0,0.0,0.0,0.0,0.0,0.0,0.0,0.0,0.0,0.0,0.0,0.0,0.0,0.0,0.0,0.0,0.0,0.0,0.0,0.0,0.0,0.0,0.0,0.0,0.0,0.0,0.0,0.0,0.0,0.0,0.0,0.0,0.0,0.0,0.0,0.0,0.0,0.0,0.0,0.0,0.0,0.0,0.0,0.0,0.0,0.0,0.0,-1.811,-2.1624,-2.2906,-2.309,-2.2112,-2.0708,-1.8946,-1.6675,0.0,0.0,0.0,0.0,0.0,0.0,0.0,0.0,0.0,0.0,0.0,0.0,0.0,0.0,0.0,0.0,0.0,0.0,0.0,0.0,0.0,0.0,0.0,0.0,0.0,0.0,0.0,0.0,0.0,0.0,0.0,0.0,0.0,0.0,0.0,0.0,0.0,0.0,0.0,0.0,0.0,0.0,0.0,0.0,0.0,0.0,0.0,0.0,0.0,0.0,0.0,0.0,0.0,0.0,0.0,0.0,0.0,0.0,0.0,0.0,0.0,0.0,0.0,0.0,0.0,0.0,0.0,0.0,0.0,0.0,0.0,0.0,0.0,0.0,0.0,0.0,0.0,0.0,0.0,0.0,0.0,0.0,0.0,0.0,0.0,0.0,0.0,0.0,0.0,0.0,0.0,0.0,0.0,0.0,0.0,0.0,0.0,0.0,0.0,0.0,0.0,0.0,0.0,-1.7896,-2.0534,-2.2665,-2.3545,-2.3391,-2.182,-2.0657,-1.8899,-1.6282,-1.4082,0.0,0.0,0.0,0.0,0.0,0.0,0.0,0.0,0.0,0.0,0.0,0.0,0.0,0.0,0.0,0.0,0.0,0.0,0.0,0.0,0.0,0.0,0.0,0.0,0.0,0.0,0.0,0.0,0.0,0.0,0.0,0.0,0.0,0.0,0.0,0.0,0.0,0.0,0.0,0.0,0.0,0.0,0.0,0.0,0.0,0.0,0.0,0.0,0.0,0.0,0.0,0.0,0.0,0.0,0.0,0.0,0.0,0.0,0.0,0.0,0.0,0.0,0.0,0.0,0.0,0.0,0.0,0.0,0.0,0.0,0.0,0.0,0.0,0.0,0.0,0.0,0.0,0.0,0.0,0.0,0.0,0.0,0.0,0.0,0.0,0.0,0.0,0.0,0.0,0.0,0.0,0.0,0.0,0.0,0.0,0.0,0.0,0.0,0.0,0.0,0.0,0.0,-2.042,-2.2665,-2.3545,-2.4169,-2.3763,-2.1867,-2.05,-1.8628,-1.6001,-1.4149,0.0,0.0,0.0,0.0,0.0,0.0,0.0,0.0,0.0,0.0,0.0,0.0,0.0,0.0,0.0,0.0,0.0,0.0,0.0,0.0,0.0,0.0,0.0,0.0,0.0,0.0,0.0,0.0,0.0,0.0,0.0,0.0,0.0,0.0,0.0,0.0,0.0,0.0,0.0,0.0,0.0,0.0,0.0,0.0,0.0,0.0,0.0,0.0,0.0,0.0,0.0,0.0,0.0,0.0,0.0,0.0,0.0,0.0,0.0,0.0,0.0,0.0,0.0,0.0,0.0,0.0,0.0,0.0,0.0,0.0,0.0,0.0,0.0,0.0,0.0,0.0,0.0,0.0,0.0,0.0,0.0,0.0,0.0,0.0,0.0,0.0,0.0,0.0,0.0,0.0,0.0,0.0,0.0,0.0,0.0,0.0,0.0,0.0,0.0,0.0,0.0,0.0,-2.042,-2.2868,-2.4271,-2.4474,-2.4169,-2.3308,-2.0602,-1.8313,-1.6722,-1.3946,0.0,0.0,0.0,0.0,0.0,0.0,0.0,0.0,0.0,0.0,0.0,0.0,0.0,0.0,0.0,0.0,0.0,0.0,0.0,0.0,0.0,0.0,0.0,0.0,0.0,0.0,0.0,0.0,0.0,0.0,0.0,0.0,0.0,0.0,0.0,0.0,0.0,0.0,0.0,0.0,0.0,0.0,0.0,0.0,0.0,0.0,0.0,0.0,0.0,0.0,0.0,0.0,0.0,0.0,0.0,0.0,0.0,0.0,0.0,0.0,0.0,0.0,0.0,0.0,0.0,0.0,0.0,0.0,0.0,0.0,0.0,0.0,0.0,0.0,0.0,0.0,0.0,0.0,0.0,0.0,0.0,0.0,0.0,0.0,0.0,0.0,0.0,0.0,0.0,0.0,0.0,0.0,0.0,0.0,0.0,0.0,0.0,0.0,0.0,0.0,0.0,0.0,-2.0441,-2.2868,-2.4338,-2.4508,-2.3985,-2.2758,-2.0713,-1.8488,-1.6036,0.0,0.0,0.0,0.0,0.0,0.0,0.0,0.0,0.0,0.0,0.0,0.0,0.0,0.0,0.0,0.0,0.0,0.0,0.0,0.0,0.0,0.0,0.0,0.0,0.0,0.0,0.0,0.0,0.0,0.0,0.0,0.0,0.0,0.0,0.0,0.0,0.0,0.0,0.0,0.0,0.0,0.0,0.0,0.0,0.0,0.0,0.0,0.0,0.0,0.0,0.0,0.0,0.0,0.0,0.0,0.0,0.0,0.0,0.0,0.0,0.0,0.0,0.0,0.0,0.0,0.0,0.0,0.0,0.0,0.0,0.0,0.0,0.0,0.0,0.0,0.0,0.0,0.0,0.0,0.0,0.0,0.0,0.0,0.0,0.0,0.0,0.0,0.0,0.0,0.0,0.0,0.0,0.0,0.0,0.0,0.0,0.0,0.0,0.0,0.0,0.0,0.0,-1.804,-2.0901,-2.3207,-2.4711,-2.4643,-2.3868,-2.2281,-2.0492,-1.8252,-1.5437,0.0,0.0,0.0,0.0,0.0,0.0,0.0,0.0,0.0,0.0,0.0,0.0,0.0,0.0,0.0,0.0,0.0,0.0,0.0,0.0,0.0,0.0,0.0,0.0,0.0,0.0,0.0,0.0,0.0,0.0,0.0,0.0,0.0,0.0,0.0,0.0,0.0,0.0,0.0,0.0,0.0,0.0,0.0,0.0,0.0,0.0,0.0,0.0,0.0,0.0,0.0,0.0,0.0,0.0,0.0,0.0,0.0,0.0,0.0,0.0,0.0,0.0,0.0,0.0,0.0,0.0,0.0,0.0,0.0,0.0,0.0,0.0,0.0,0.0,0.0,0.0,0.0,0.0,0.0,0.0,0.0,0.0,0.0,0.0,0.0,0.0,0.0,0.0,0.0,0.0,0.0,0.0,0.0,0.0,0.0,0.0,0.0,0.0,0.0,0.0,0.0,0.0,-1.9399,-2.1939,-2.3951,-2.5423,-2.4932,-2.3838,-2.2243,-1.9817,-1.7412,0.0,0.0,0.0,0.0,0.0,0.0,0.0,0.0,0.0,0.0,0.0,0.0,0.0,0.0,0.0,0.0,0.0,0.0,0.0,0.0,0.0,0.0,0.0,0.0,0.0,0.0,0.0,0.0,0.0,0.0,0.0,0.0,0.0,0.0,0.0,0.0,0.0,0.0,0.0,0.0,0.0,0.0,0.0,0.0,0.0,0.0,0.0,0.0,0.0,0.0,0.0,0.0,0.0,0.0,0.0,0.0,0.0,0.0,0.0,0.0,0.0,0.0,0.0,0.0,0.0,0.0,0.0,0.0,0.0,0.0,0.0,0.0,0.0,0.0,0.0,0.0,0.0,0.0,0.0,0.0,0.0,0.0,0.0,0.0,0.0,0.0,0.0,0.0,0.0,0.0,0.0,0.0,0.0,0.0,0.0,0.0,0.0,0.0,0.0,0.0,0.0,0.0,0.0,-1.9002,-2.1562,-2.3597,-2.5013,-2.4563,-2.3467,-2.181,-1.996,-1.7701,-1.4879,0.0,0.0,0.0,0.0,0.0,0.0,0.0,0.0,0.0,0.0,0.0,0.0,0.0,0.0,0.0,0.0,0.0,0.0,0.0,0.0,0.0,0.0,0.0,0.0,0.0,0.0,0.0,0.0,0.0,0.0,0.0,0.0,0.0,0.0,0.0,0.0,0.0,0.0,0.0,0.0,0.0,0.0,0.0,0.0,0.0,0.0,0.0,0.0,0.0,0.0,0.0,0.0,0.0,0.0,0.0,0.0,0.0,0.0,0.0,0.0,0.0,0.0,0.0,0.0,0.0,0.0,0.0,0.0,0.0,0.0,0.0,0.0,0.0,0.0,0.0,0.0,0.0,0.0,0.0,0.0,0.0,0.0,0.0,0.0,0.0,0.0,0.0,0.0,0.0,0.0,0.0,0.0,0.0,0.0,0.0,0.0,0.0,0.0,0.0,0.0,0.0,0.0,-1.9394,-2.1712,-2.3422,-2.4551,-2.406,-2.2883,-2.0986,-1.9598,-1.7563,-1.4578,0.0,0.0,0.0,0.0,0.0,0.0,0.0,0.0,0.0,0.0,0.0,0.0,0.0,0.0,0.0,0.0,0.0,0.0,0.0,0.0,0.0,0.0,0.0,0.0,0.0,0.0,0.0,0.0,0.0,0.0,0.0,0.0,0.0,0.0,0.0,0.0,0.0,0.0,0.0,0.0,0.0,0.0,0.0,0.0,0.0,0.0,0.0,0.0,0.0,0.0,0.0,0.0,0.0,0.0,0.0,0.0,0.0,0.0,0.0,0.0,0.0,0.0,0.0,0.0,0.0,0.0,0.0,0.0,0.0,0.0,0.0,0.0,0.0,0.0,0.0,0.0,0.0,0.0,0.0,0.0,0.0,0.0,0.0,0.0,0.0,0.0,0.0,0.0,0.0,0.0,0.0,0.0,0.0,0.0,0.0,0.0,0.0,0.0,0.0,0.0,0.0,0.0,-2.0225,-2.2102,-2.3355,-2.4159,-2.3515,-2.22,-2.0115,-1.8998,-1.7216,-1.4436,0.0,0.0,0.0,0.0,0.0,0.0,0.0,0.0,0.0,0.0,0.0,0.0,0.0,0.0,0.0,0.0,0.0,0.0,0.0,0.0,0.0,0.0,0.0,0.0,0.0,0.0,0.0,0.0,0.0,0.0,0.0,0.0,0.0,0.0,0.0,0.0,0.0,0.0,0.0,0.0,0.0,0.0,0.0,0.0,0.0,0.0,0.0,0.0,0.0,0.0,0.0,0.0,0.0,0.0,0.0,0.0,0.0,0.0,0.0,0.0,-1.6713,0.0,0.0,0.0,0.0,0.0,0.0,0.0,0.0,0.0,0.0,0.0,0.0,0.0,0.0,0.0,0.0,0.0,0.0,0.0,0.0,0.0,0.0,0.0,0.0,0.0,0.0,0.0,0.0,0.0,0.0,0.0,0.0,0.0,0.0,0.0,0.0,0.0,0.0,0.0,0.0,0.0,-1.9946,-2.1748,-2.3186,-2.439,-2.3437,-2.2235,-2.1091,-1.9257,-1.7425,-1.5623,-1.366,0.0,0.0,0.0,0.0,0.0,0.0,0.0,0.0,0.0,0.0,0.0,0.0,0.0,0.0,0.0,0.0,0.0,0.0,0.0,0.0,0.0,0.0,0.0,0.0,0.0,0.0,0.0,0.0,0.0,0.0,0.0,0.0,0.0,0.0,0.0,0.0,0.0,0.0,0.0,0.0,0.0,0.0,0.0,0.0,0.0,0.0,0.0,0.0,0.0,0.0,0.0,0.0,0.0,0.0,0.0,0.0,0.0,0.0,0.0,0.0,-1.845,0.0,0.0,0.0,0.0,0.0,0.0,0.0,0.0,0.0,0.0,0.0,0.0,0.0,0.0,0.0,0.0,0.0,0.0,0.0,0.0,0.0,0.0,0.0,0.0,0.0,0.0,0.0,0.0,0.0,0.0,0.0,0.0,0.0,0.0,0.0,0.0,0.0,0.0,0.0,0.0,-1.9571,-2.1259,-2.255,-2.359,-2.304,-2.2205,-2.1086,-1.9684,-1.8285,-1.6848,-1.4869,0.0,0.0,0.0,0.0,0.0,0.0,0.0,0.0,0.0,0.0,0.0,0.0,0.0,0.0,0.0,0.0,0.0,0.0,0.0,0.0,0.0,0.0,0.0,0.0,0.0,0.0,0.0,0.0,0.0,0.0,0.0,0.0,0.0,0.0,0.0,0.0,0.0,0.0,0.0,0.0,0.0,0.0,0.0,0.0,0.0,0.0,0.0,0.0,0.0,0.0,0.0,0.0,0.0,-2.6368,-2.7051,-2.7799,-2.7679,-2.7619,-2.747,-2.4627,-2.2712,-2.1525,-2.1286,0.0,0.0,0.0,0.0,0.0,0.0,0.0,0.0,0.0,0.0,0.0,0.0,0.0,0.0,0.0,0.0,0.0,0.0,0.0,0.0,0.0,0.0,0.0,0.0,-2.0397,-1.9798,-1.7611,0.0,0.0,0.0,0.0,0.0,0.0,0.0,0.0,0.0,0.0,0.0,-1.948,-2.1036,-2.2134,-2.2793,-2.2763,-2.2254,-2.1156,-2.0198,-1.9211,-1.8117,-1.6099,-1.4736,0.0,0.0,0.0,0.0,0.0,0.0,0.0,0.0,0.0,0.0,0.0,0.0,0.0,0.0,0.0,0.0,0.0,0.0,0.0,0.0,0.0,0.0,0.0,0.0,0.0,0.0,0.0,0.0,0.0,0.0,0.0,0.0,-1.719,-1.719,0.0,0.0,0.0,0.0,0.0,0.0,0.0,0.0,0.0,0.0,0.0,0.0,0.0,-2.4896,-2.6806,-2.6896,-2.8158,-3.0584,-3.0673,-3.1361,-3.2557,-3.1988,-3.1719,-3.1689,-3.0644,0.0,-2.4866,-2.3699,0.0,0.0,0.0,0.0,0.0,0.0,0.0,0.0,0.0,0.0,0.0,0.0,0.0,0.0,0.0,0.0,0.0,0.0,0.0,0.0,0.0,0.0,-2.2433,-2.2951,-2.3071,-2.2981,0.0,-2.0786,-1.8792,-1.7459,-1.7101,0.0,0.0,0.0,0.0,0.0,0.0,0.0,-2.027,-2.1724,-2.2793,-2.34,-2.3032,-2.2613,-2.2463,-2.0756,-1.9618,-1.9468,-1.7072,-1.5619,-1.5559,-1.3598,0.0,0.0,0.0,0.0,0.0,0.0,0.0,0.0,0.0,0.0,0.0,0.0,0.0,0.0,0.0,0.0,0.0,0.0,0.0,0.0,0.0,0.0,0.0,0.0,0.0,0.0,0.0,0.0,0.0,-1.8446,-1.9809,-1.9432,-1.9989,-2.0109,0.0,0.0,0.0,0.0,0.0,0.0,0.0,0.0,0.0,-2.5818,-2.6841,-2.8368,-3.0313,-3.0731,-3.2048,-3.4322,-3.4322,-3.4801,-3.5669,-3.504,-3.4741,-3.4711,-3.4053,-3.2736,-3.0941,-2.8128,-2.6169,-2.4745,0.0,0.0,0.0,0.0,-2.1575,-2.2398,-2.3123,-2.3164,-2.2725,-2.2147,0.0,0.0,0.0,0.0,0.0,0.0,0.0,0.0,0.0,0.0,-2.5518,-2.5788,-2.5578,-2.5285,-2.5285,-2.4088,-2.2413,0.0,-1.9642,-1.8745,-1.6772,0.0,0.0,0.0,0.0,-1.8984,-2.1006,-2.2104,-2.2942,-2.352,-2.334,-2.3212,-2.3212,-2.2104,-2.1235,-2.0846,-1.9049,-1.7641,-1.6907,-1.4962,-1.3418,0.0,0.0,0.0,0.0,0.0,0.0,0.0,0.0,0.0,0.0,0.0,0.0,0.0,0.0,0.0,0.0,0.0,0.0,0.0,0.0,0.0,0.0,0.0,0.0,0.0,0.0,0.0,0.0,-2.0748,-2.2263,-2.1764,-2.2592,-2.2862,0.0,0.0,0.0,0.0,0.0,0.0,-2.6069,-2.7051,-2.7979,-2.8843,-3.0011,-3.1421,-3.3154,-3.3958,-3.5267,-3.7088,-3.7054,-3.7382,-3.7977,-3.7207,-3.6786,-3.6722,-3.6,-3.567,-3.5403,-3.2019,-2.9618,-2.7948,-2.5832,-2.4819,-2.4446,-2.3765,-2.4064,-2.4856,-2.5337,-2.5157,-2.4702,-2.439,-2.3755,-2.3113,-2.3148,0.0,0.0,0.0,0.0,-2.5615,-2.6602,-2.759,-2.8334,-2.8334,-2.7854,-2.732,-2.7141,-2.6572,-2.5375,0.0,-2.2033,-2.1047,-1.9074,0.0,0.0,0.0,0.0,-2.0079,-2.1724,-2.2523,-2.3122,-2.355,-2.361,-2.361,-2.361,-2.2912,-2.2254,-2.1724,-2.0109,-1.8732,-1.7758,-1.583,-1.4257,-1.3089,0.0,0.0,0.0,0.0,0.0,0.0,0.0,0.0,0.0,0.0,0.0,0.0,0.0,0.0,0.0,0.0,0.0,0.0,0.0,0.0,0.0,0.0,0.0,0.0,0.0,0.0,0.0,0.0,0.0,-2.4425,-2.6123,0.0,0.0,0.0,0.0,-2.7255,-2.7949,-2.8906,-3.0133,-3.0283,-3.0911,-3.2228,-3.2946,-3.387,-3.505,-3.6123,-3.7317,-3.8679,-3.8613,-3.8966,-3.966,-3.8325,-3.7634,-3.7425,-3.6539,-3.6141,-3.6038,-3.4097,-3.2553,-3.109,-2.8272,-2.6895,-2.6502,-2.5936,-2.625,-2.7006,-2.7475,-2.7632,-2.7412,-2.626,-2.5966,-2.6043,-2.5803,-2.6022,0.0,0.0,-2.7889,-2.7884,-2.9774,-3.0313,-3.0342,-3.0342,-2.9894,-2.9292,-2.8637,-2.7974,-2.6896,0.0,-2.4425,-2.3797,-2.1844,0.0,-2.1246,-2.0628,-2.1126,-2.1814,-2.2553,-2.3161,-2.358,-2.361,-2.361,-2.361,-2.361,-2.2443,-2.1724,-2.1695,-1.9271,-1.7788,-1.7699,-1.583,-1.4453,-1.3752,-1.2388,0.0,0.0,0.0,0.0,0.0,0.0,0.0,0.0,0.0,0.0,0.0,0.0,0.0,0.0,0.0,0.0,0.0,0.0,0.0,0.0,0.0,0.0,0.0,0.0,0.0,0.0,0.0,0.0,-2.7769,-2.8786,0.0,-2.9388,-2.9235,-2.9744,-3.127,-3.2018,-3.2766,-3.3664,-3.4113,-3.4562,-3.507,-3.5669,-3.6488,-3.7447,-3.739,-3.804,-3.9383,-3.8851,-3.8832,-3.9131,-3.8231,-3.761,-3.7243,-3.6533,-3.6192,-3.6145,-3.5099,-3.4101,-3.2982,-3.0687,-2.9713,-2.9459,-2.8281,-2.8325,-2.8952,-2.8999,-2.8758,-2.8335,-2.7746,-2.7806,-2.8126,-2.828,-2.8656,-2.9169,-2.9637,-2.99,-3.0221,-3.1043,-3.1693,-3.202,-3.1693,-3.1214,-3.0552,-2.9475,-2.8723,-2.7889,-2.6752,-2.6512,-2.6033,-2.4477,-2.4208,-2.3849,-2.2742,-2.2772,-2.3011,-2.3251,-2.346,-2.361,-2.361,-2.3999,-2.4066,-2.364,-2.3191,-2.2383,-2.1156,-1.975,-1.8416,-1.7115,-1.6009,-1.5125,-1.4453,-1.3118,-1.213,0.0,0.0,0.0,0.0,0.0,0.0,0.0,0.0,0.0,0.0,0.0,0.0,0.0,0.0,0.0,0.0,0.0,0.0,0.0,0.0,0.0,0.0,0.0,0.0,0.0,-2.6993,-2.9801,-3.0451,-3.1457,-3.2226,-3.2523,-3.2406,-3.2883,-3.4222,-3.4907,-3.5439,-3.5818,-3.62,-3.6403,-3.6403,-3.7198,-3.7804,-3.8173,-3.8206,-3.8632,-3.9455,-3.9041,-3.8871,-3.8831,-3.8285,-3.7738,-3.7235,-3.6605,-3.6361,-3.6307,-3.5762,-3.5092,-3.4285,-3.2459,-3.1644,-3.138,-2.9994,-2.9779,-3.0134,-2.959,-2.9142,-2.8786,-2.8528,-2.9087,-2.9859,-3.0024,-3.0423,-3.0835,-3.1066,-3.1293,-3.1589,-3.2076,-3.2629,-3.2974,-3.2753,-3.2258,-3.1481,-3.0193,-2.9385,-2.8727,-2.8094,-2.7944,-2.75,-2.6183,-2.6123,-2.5824,-2.4477,-2.4088,-2.3939,-2.3939,-2.3759,-2.3699,-2.3909,-2.4335,-2.4425,-2.3999,-2.355,-2.2652,-2.1107,-1.9779,-1.8433,-1.7085,-1.6248,-1.5485,-1.4826,-1.3718,-1.2819,-1.2119,0.0,0.0,0.0,0.0,0.0,0.0,0.0,0.0,0.0,0.0,0.0,0.0,0.0,0.0,0.0,0.0,0.0,0.0,0.0,0.0,0.0,0.0,0.0,-2.5797,-2.9142,-3.1688,-3.2381,-3.4148,-3.5149,-3.4733,-3.5468,-3.5987,-3.5987,-3.6516,-3.6734,-3.6529,-3.6286,-3.6179,-3.6208,-3.7387,-3.7749,-3.7123,-3.8518,-3.9142,-3.8999,-3.9142,-3.9142,-3.8944,-3.8505,-3.7978,-3.7304,-3.6807,-3.6635,-3.6608,-3.6051,-3.5558,-3.4992,-3.3447,-3.2633,-3.2209,-3.1059,-3.0658,-3.0482,-2.9339,-2.8963,-2.8938,-2.8726,-2.9813,-3.1188,-3.0967,-3.1213,-3.1715,-3.2364,-3.2081,-3.1785,-3.2814,-3.3078,-3.3153,-3.3547,-3.3053,-3.2109,-3.0793,-3.0016,-2.9388,-2.873,-2.8611,-2.8192,-2.6901,-2.7255,-2.7225,-2.5884,-2.5113,0.0,-2.4634,-2.4059,-2.3909,-2.4575,-2.4664,-2.4664,-2.4605,-2.346,-2.2463,-2.1695,-1.9193,-1.7758,-1.7699,-1.6503,-1.5529,-1.4842,-1.4184,-1.3525,-1.2861,0.0,0.0,0.0,0.0,0.0,0.0,0.0,0.0,0.0,0.0,0.0,0.0,0.0,0.0,0.0,0.0,0.0,0.0,0.0,0.0,0.0,-2.4365,-2.6317,-2.6796,-2.9871,-3.2437,-3.3492,-3.4539,-3.5553,-3.6692,-3.7052,-3.7445,-3.7945,-3.7684,-3.7362,-3.7034,-3.6118,-3.5797,-3.6179,-3.6515,-3.692,-3.7304,-3.7596,-3.7945,-3.8399,-3.7918,-3.7731,-3.7758,-3.716,-3.6635,-3.6123,-3.5506,-3.5239,-3.5188,-3.4671,-3.4379,-3.4234,-3.3891,-3.3472,-3.2979,-3.2088,-3.1512,-3.1135,-3.0809,-3.0708,-3.0673,-3.0353,-3.0778,-3.1368,-3.1044,-3.0947,-3.0985,-3.1182,-3.084,-3.0477,-3.1021,-3.1416,-3.1806,-3.2197,-3.2391,-3.2125,-3.0777,-3.0046,-2.9402,-2.8731,-2.8642,-2.8689,-2.8764,-2.9295,-2.9086,-2.7315,-2.6896,0.0,-2.5442,-2.5143,-2.5136,-2.5315,-2.5764,-2.5674,-2.4694,-2.4276,-2.317,-2.1126,-1.9839,-1.8702,-1.7758,-1.6906,-1.6144,-1.5559,-1.4856,-1.4423,0.0,0.0,0.0,0.0,0.0,0.0,0.0,0.0,0.0,0.0,0.0,0.0,0.0,0.0,0.0,0.0,0.0,0.0,0.0,0.0,0.0,0.0,-2.7052,-2.8882,-2.957,-3.1777,-3.3727,-3.4684,-3.5372,-3.6225,-3.7428,-3.7534,-3.7731,-3.8088,-3.7639,-3.7049,-3.6582,-3.5699,-3.5504,-3.6062,-3.6334,-3.6697,-3.7224,-3.7209,-3.7436,-3.7756,-3.741,-3.7254,-3.7189,-3.6914,-3.6534,-3.6063,-3.5633,-3.5403,-3.5378,-3.4801,-3.46,0.0,0.0,0.0,0.0,0.0,-3.1863,-3.1386,-3.1386,-3.1537,-3.1678,-3.1271,-3.1422,-3.1672,-3.1022,-3.0582,-3.0288,-3.0027,-2.9558,-2.9222,-2.9609,-2.9881,-3.0309,-3.1203,-3.1589,-3.1582,-3.0715,-3.0063,-2.9438,-2.8785,-2.8673,0.0,-2.9203,-2.9724,-2.9566,-2.7909,-2.7406,-2.6845,-2.5888,-2.558,-2.5569,-2.5908,-2.6338,-2.6273,-2.5525,-2.4933,0.0,0.0,0.0,-1.9091,-1.7758,-1.7324,0.0,0.0,0.0,0.0,0.0,0.0,0.0,0.0,-1.4633,-1.4423,0.0,0.0,0.0,0.0,0.0,0.0,0.0,0.0,0.0,0.0,0.0,0.0,0.0,0.0,0.0,0.0,-2.9428,-3.1436,-3.3043,-3.4288,-3.5173,-3.5706,-3.625,-3.6767,-3.7279,-3.729,-3.7235,-3.7099,-3.6724,-3.6246,-3.5643,-3.5112,0.0,0.0,0.0,-3.6604,-3.6734,-3.7169,-3.7294,-3.7015,-3.7294,-3.7248,-3.7015,-3.7268,-3.7129,-3.6662,-3.6499,-3.6405,-3.6355,-3.578,-3.5433,-3.5182,-3.3746,-3.3144,-3.3061,-3.2491,-3.2014,-3.1587,-3.1587,0.0,0.0,-3.1662,-3.1813,-3.2014,-3.0934,-3.0231,-2.9679,-2.9063,-2.8487,-2.817,-2.8594,-2.862,-2.895,-3.0512,-3.0841,-3.0739,-3.0637,-3.0138,-2.9531,-2.892,-2.8784,-2.8734,-2.8771,-2.9203,-2.9117,-2.782,-2.7097,-2.6486,-2.6057,-2.5599,-2.5629,-2.6392,0.0,0.0,-2.6602,-2.5585,-2.4545,-2.367,-2.1295,-1.9331,-1.7997,-1.7938,-1.7878,-1.7818,-1.7818,-1.8207,-1.9031,-1.8972,-1.9301,-1.9977,-1.7968,-1.7055,0.0,0.0,0.0,0.0,0.0,0.0,0.0,0.0,0.0,0.0,0.0,0.0,0.0,0.0,0.0,-2.9001,-3.116,-3.3018,-3.4223,-3.538,-3.5948,-3.5618,-3.5669,-3.608,-3.7045,-3.6779,-3.6535,-3.6561,-3.6045,-3.5489,-3.5077,-3.4461,-3.4368,-3.4882,-3.5054,-3.5339,-3.5759,-3.6315,-3.6593,-3.6546,0.0,0.0,-3.6546,-3.6593,-3.6546,-3.6452,-3.6405,-3.6405,-3.6355,-3.578,-3.4981,-3.4198,-3.3872,-3.347,-3.3111,-3.2943,-3.2842,-3.2784,-3.2784,-3.2817,-3.2817,-3.224,-3.2114,-3.2014,-3.0934,-3.0231,0.0,-2.9063,-2.8487,-2.8158,-2.8377,-2.8636,-2.9045,-3.001,-3.0449,-3.0628,-3.0592,-3.0137,-2.9648,-2.9507,-2.9106,-2.8786,-2.8886,-2.9027,-2.87,-2.7473,-2.6833,-2.6329,-2.59,-2.6076,-2.6387,-2.6762,-2.7654,-2.7769,-2.6692,-2.6866,-2.6057,-2.3729,-2.2143,-2.0707,-1.9361,-1.9301,-1.9061,-1.8523,-1.8506,-1.9361,-2.1126,-2.0587,-2.0946,-2.2074,-2.0067,-1.9121,0.0,0.0,0.0,0.0,0.0,0.0,0.0,0.0,0.0,0.0,0.0,-2.4808,-2.6214,0.0,-2.9503,-3.116,-3.2591,-3.3872,-3.4931,-3.583,-3.6304,-3.5981,-3.5956,-3.6197,-3.6849,-3.6373,-3.6069,-3.6337,-3.5644,-3.515,-3.5007,-3.4799,-3.4977,-3.5529,-3.5805,-3.6207,-3.6759,-3.7036,-3.7186,-3.7186,-3.7186,-3.7036,-3.6832,-3.6832,-3.6681,-3.6405,-3.6405,-3.6405,-3.638,-3.6056,-3.5479,-3.468,-3.468,-3.4048,-3.3111,-3.3111,-3.3111,-3.3111,-3.3111,-3.3111,-3.3061,-3.2742,-3.2641,-3.2491,-3.1662,-3.0859,-3.008,-2.9528,-2.875,-2.8097,-2.8231,-2.858,-2.898,-2.9409,-2.9877,-3.0195,-3.0195,-2.9962,-2.9744,-2.9744,-2.9512,-2.9125,-2.8592,-2.8307,-2.7927,-2.7255,-2.6674,-2.6194,-2.5851,-2.5965,-2.6176,-2.6469,-2.7477,-2.7797,-2.6899,-2.6936,-2.6022,-2.3759,-2.2969,-2.1952,-2.0565,-2.0506,-2.0357,-2.0012,-1.9983,-2.0813,-2.2443,-2.2168,-2.2672,-2.3919,-2.2974,-2.1874,0.0,0.0,0.0,0.0,0.0,0.0,0.0,-2.3351,-2.3753,-2.5435,-2.6565,-2.7781,-2.9239,-3.0407,-3.1612,-3.3144,-3.3847,-3.4575,-3.5533,-3.6182,-3.6531,-3.643,-3.6405,-3.6452,-3.6615,-3.6049,-3.5776,-3.61,-3.5545,-3.5244,-3.5345,-3.5772,-3.6232,-3.6707,-3.7111,-3.7563,-3.799,-3.8015,-3.8015,-3.8015,-3.8015,-3.7764,-3.7337,-3.7236,-3.6935,-3.6556,-3.6455,-3.6405,-3.6405,-3.6405,-3.6031,-3.5508,-3.5508,-3.463,-3.3395,-3.3395,-3.3319,-3.3287,-3.3287,-3.3212,-3.3111,-3.3111,-3.3111,-3.3011,-3.239,-3.1612,-3.0809,-3.0256,-2.9453,-2.875,-2.875,-2.9076,-2.9339,-2.9239,-2.9603,-2.993,-2.9804,-2.9804,-2.9804,-2.9804,-2.9804,-2.9478,-2.8448,-2.7821,-2.7297,-2.6876,-2.6354,-2.5897,-2.5584,-2.5512,-2.5605,-2.5797,-2.6801,-2.7328,-2.7103,-2.6629,-2.5699,-2.4246,-2.3978,-2.3149,-2.1633,-2.1582,-2.1524,-2.1377,-2.1377,-2.208,-2.3463,-2.3398,-2.4095,-2.5472,-2.5496,-2.4439,-1.9259,-2.0638,-2.2945,-2.4632,-2.5837,-2.6766,0.0,-2.7067,-2.7193,-2.89,-2.9729,-3.0507,-3.1637,-3.2365,-3.3194,-3.4349,-3.4956,-3.5533,-3.6229,-3.6782,-3.691,-3.6455,-3.6405,-3.6405,-3.6452,-3.5898,-3.5525,-3.5575,-3.5999,-3.6225,-3.6276,-3.7161,-3.7764,-3.7814,-3.7889,-3.7939,-3.8015,-3.8015,-3.8015,-3.8015,-3.8015,-3.7965,-3.7889,-3.7412,-3.7161,-3.7061,-3.6631,-3.6405,-3.6405,-3.6405,-3.6031,-3.5508,-3.5508,-3.5082,-3.455,-3.455,-3.4223,-3.3796,-3.3796,-3.3495,-3.3111,-3.3111,-3.3111,-3.3011,-3.239,-3.2139,-3.1913,-3.1361,-3.111,-3.1009,-3.1009,-3.106,-3.1009,-3.0532,-3.0482,-3.0382,-2.9905,-2.9804,-2.9804,-2.9804,-2.9804,-2.9578,-2.8913,-2.8373,-2.7505,-2.6005,-2.5297,-2.4862,-2.4587,-2.4887,-2.5095,-2.4877,-2.5851,-2.6807,-2.7387,-2.6578,-2.612,-2.6249,-2.5497,-2.4277,-2.2618,-2.2544,-2.2262,-2.1657,-2.1657,-2.255,-2.434,-2.3822,-2.4509,-2.6347,-2.6079,-2.5643,-2.2096,-2.3195,-2.5134,-2.7469,-2.885,-2.9905,-3.0809,-3.0557,-3.0532,-3.1913,-3.2616,-3.3144,-3.3596,-3.3872,-3.4299,-3.5031,-3.5357,-3.5809,-3.6709,-3.7036,-3.6985,-3.648,-3.5805,-3.5529,-3.5855,-3.5357,-3.5157,-3.5483,-3.6056,-3.6508,-3.6883,-3.7889,-3.8517,-3.8517,-3.8818,-3.8994,-3.8994,-3.8994,-3.8994,-3.8994,-3.8994,-3.8818,-3.8492,-3.8266,-3.7814,-3.7161,-3.6656,-3.6405,-3.6405,-3.6405,-3.6279,-3.6006,-3.6006,-3.5881,-3.5604,-3.4951,-3.4374,-3.3897,-3.3897,-3.3545,-3.3111,-3.3111,-3.3111,-3.3043,-3.2792,-3.2491,-3.2164,-3.1938,-3.1637,-3.1386,-3.1386,-3.1637,-3.1738,-3.1185,-3.1311,-3.1311,-3.0457,-3.0281,-3.0181,-2.9854,-2.9804,-2.9603,-2.8988,-2.8473,-2.777,-2.6741,-2.5837,-2.5149,-2.4786,-2.4808,-2.4951,-2.5157,-2.5426,-2.5965,-2.6891,-2.6399,-2.6081,-2.6138,-2.552,-2.4594,-2.3339,-2.3213,-2.3077,-2.2869,-2.2796,-2.3357,-2.461,-2.428,-2.4952,-2.658,-2.6569,-2.6859,-2.4155,-2.5335,-2.7118,-2.9603,-3.1286,-3.2516,-3.3345,-3.3219,-3.3194,-3.4148,-3.455,-3.4731,-3.4881,-3.4781,-3.4856,-3.5408,-3.5759,-3.6282,-3.7061,-3.7462,-3.7436,-3.6732,-3.5604,-3.5006,-3.5257,-3.4906,-3.4981,-3.573,-3.6433,-3.7109,-3.7613,-3.8567,-3.9094,-3.9094,-3.9496,-3.9697,-3.9697,-3.9697,-3.9697,-3.9697,-3.9697,-3.9496,-3.9094,-3.8994,-3.8266,-3.7161,-3.6807,-3.6556,-3.6405,-3.6405,-3.6405,-3.6405,-3.6405,-3.6405,-3.6304,-3.5454,-3.4826,-3.4349,-3.4349,-3.3997,-3.352,-3.352,-3.342,-3.3294,-3.3294,-3.2893,-3.2466,-3.2466,-3.2164,-3.1863,-3.1863,-3.2139,-3.2315,-3.1763,-3.1913,-3.1913,-3.0859,-3.0608,-3.0457,-2.9905,-2.9804,-2.9654,-2.9227,-2.8574,-2.7971,-2.757,-2.6565,-2.5619,-2.5037,-2.4555,-2.44,-2.479,-2.4715,-2.4981,-2.5876,-2.58,-2.5653,-2.5452,-2.5198,-2.4549,-2.3435,-2.3441,-2.3415,-2.333,-2.3389,-2.3796,-2.4532,-2.4586,-2.535,-2.6674,-2.6966,-2.768,-2.4474,-2.6731,-2.9189,-3.0909,-3.2993,-3.4625,-3.463,-3.465,-3.4756,-3.5332,-3.5031,-3.4831,-3.5382,-3.5031,-3.4856,-3.5408,-3.6433,-3.7136,-3.7186,-3.8115,-3.8417,-3.7287,-3.6182,-3.5282,-3.4756,-3.4726,-3.5177,-3.6304,-3.7337,-3.8216,-3.8844,-3.9346,-3.9672,-3.9672,-3.9697,-3.9697,-3.9697,-3.9697,-3.9697,-3.9697,-3.9697,-3.9697,-3.9647,-3.912,-3.8266,-3.7186,-3.7161,-3.6908,-3.6405,-3.6405,-3.6405,-3.6405,-3.6405,-3.6405,-3.6405,-3.638,-3.5956,-3.5458,-3.5458,-3.5082,-3.4675,-3.4675,-3.4299,-3.3872,-3.3872,-3.3495,-3.3043,-3.3043,-3.3086,-3.3061,-3.3061,-3.3086,-3.2893,-3.2315,-3.2215,-3.1913,-3.0859,-3.0608,-3.0457,-2.9905,-2.9804,-2.9779,-2.9779,-2.885,-2.8097,-2.8072,-2.7178,-2.6072,-2.4958,-2.3853,-2.315,-2.315,-2.345,-2.3835,-2.4332,-2.4622,-2.4693,-2.4553,-2.4778,-2.4229,-2.2698,-2.3119,-2.309,-2.2457,-2.3007,-2.3559,-2.4111,-2.4688,-2.5643,-2.6876,-2.722,-2.7958,-2.6389,-2.8499,-3.0532,-3.2541,-3.4173,-3.5332,-3.573,-3.5805,-3.5755,-3.5533,-3.5056,-3.4675,-3.4474,-3.4299,-3.4474,-3.5357,-3.6458,-3.7437,-3.8191,-3.8693,-3.8592,-3.7814,-3.6386,-3.5433,-3.5232,-3.4881,-3.4876,-3.5253,-3.696,-3.809,-3.8291,-3.9195,-3.9697,-3.9697,-3.9697,-3.9697,-3.9697,-3.9697,-3.9697,-3.9697,-3.9697,-3.9697,-3.9672,-3.912,-3.8718,-3.8341,-3.7889,-3.7638,-3.7412,-3.7061,-3.6958,-3.6933,-3.6556,-3.6405,-3.6405,-3.6405,-3.6279,-3.6031,-3.5633,-3.5132,-3.468,-3.468,-3.4349,-3.3897,-3.3897,-3.352,-3.3111,-3.3111,-3.3111,-3.3111,-3.3111,-3.3111,-3.3061,-3.2842,-3.2792,-3.2591,-3.1838,-3.1662,-3.1512,-3.0959,-3.0583,-3.0331,-3.0331,-2.9101,-2.7871,-2.7153,-2.6399,-2.5636,-2.4876,-2.4148,-2.3521,-2.3145,-2.333,-2.3573,-2.393,-2.4163,-2.4213,-2.3987,-2.4219,-2.3936,-2.2921,-2.3298,-2.3661,-2.393,-2.399,-2.4378,-2.5044,-2.5159,-2.5682,-2.657,-2.6822,-2.7434,-2.8122,-3.0206,-3.2164,-3.3796,-3.5027,-3.5931,-3.6329,-3.6207,-3.5906,-3.5307,-3.4279,-3.347,-3.3319,-3.3144,-3.3445,-3.4705,-3.6207,-3.7513,-3.8442,-3.8919,-3.8944,-3.8391,-3.7186,-3.6235,-3.5881,-3.5504,-3.5303,-3.5303,-3.681,-3.7889,-3.8291,-3.9195,-3.9697,-3.9697,-3.9697,-3.9697,-3.9697,-3.9697,-3.9697,-3.9697,-3.9697,-3.9697,-3.9697,-3.932,-3.9069,-3.8894,-3.8467,-3.8191,-3.799,-3.7638,-3.7362,-3.7161,-3.6832,-3.6581,-3.6405,-3.6405,-3.6405,-3.6355,-3.5956,-3.5604,-3.5303,-3.5303,-3.4926,-3.4474,-3.4474,-3.4098,-3.3621,-3.342,-3.337,-3.3319,-3.3162,-3.3111,-3.3111,-3.3111,-3.3111,-3.2918,-3.234,-3.2215,-3.2039,-3.1486,-3.111,-3.0834,-3.0658,-2.9377,-2.8097,-2.7193,-2.66,-2.5862,-2.4901,-2.433,-2.3853,-2.3446,-2.3336,-2.3466,-2.3855,-2.3794,-2.3502,-2.2949,-2.3428,-2.3357,-2.2501,-2.3102,-2.3734,-2.4448,-2.4498,-2.4982,-2.5877,-2.5983,-2.6365,-2.7003,-2.7138,-2.7514,-2.9679,-3.1964,-3.4123,-3.4675,-3.5604,-3.6405,-3.638,-3.5906,-3.5282,-3.468,-3.2817,-3.1436,-3.1938,-3.1612,-3.1813,-3.3545,-3.568,-3.7337,-3.7914,-3.8969,-3.9496,-3.8969,-3.8391,-3.7638,-3.6631,-3.648,-3.6455,-3.648,-3.6935,-3.7713,-3.8869,-3.9396,-3.9697,-3.9697,-3.9697,-3.9697,-3.9697,-3.9697,-3.9697,-3.9697,-3.9697,-3.9697,-3.9697,-3.9697,-3.9396,-3.8969,-3.8969,-3.8592,-3.809,-3.8065,-3.7739,-3.7262,-3.7236,-3.6958,-3.648,-3.648,-3.648,-3.6455,-3.6455,-3.643,-3.6405,-3.6405,-3.5981,-3.5508,-3.5508,-3.5107,-3.458,-3.4098,-3.3922,-3.3771,-3.3244,-3.3093,-3.3111,-3.3111,-3.3111,-3.2918,-3.2365,-3.2265,-3.2114,-3.1587,-3.1461,-3.126,-3.0708,-2.9665,-2.8737,-2.8222,-2.7645,-2.6691,-2.5026,-2.4381,-2.4029,-2.3954,-2.3421,-2.3346,-2.3954,-2.3446,-2.2669,-2.1644,-2.2569,-2.2669,-2.1619,-2.2619,-2.3471,-2.4079,-2.4582,-2.5385,-2.6499,-2.7052,-2.7544,-2.8072,-2.8097,-2.8097,-3.234,-3.3972,-3.5207,-3.5805,-3.6204,-3.6304,-3.5855,-3.5282,-3.448,-3.3144,-3.1085,-2.9603,-2.969,-2.9654,-3.0231,-3.2315,-3.4851,-3.6958,-3.7864,-3.8969,-3.9647,-3.9496,-3.8994,-3.8542,-3.8316,-3.7462,-3.7136,-3.7563,-3.7713,-3.8115,-3.8894,-3.9396,-3.9697,-3.9697,-3.9697,-3.9697,-3.9697,-3.9697,-3.9697,-3.9697,-3.9697,-3.9697,-3.9697,-3.9697,-3.9622,-3.9496,-3.9496,-3.9396,-3.9245,-3.8818,-3.8567,-3.8391,-3.7965,-3.7713,-3.7588,-3.7588,-3.7337,-3.6985,-3.6985,-3.6757,-3.6405,-3.6405,-3.5981,-3.5508,-3.5508,-3.5107,-3.47,-3.455,-3.4223,-3.3872,-3.3721,-3.3395,-3.3111,-3.3111,-3.3111,-3.3086,-3.2893,-3.2867,-3.2817,-3.2667,-3.229,-3.1712,-3.0783,-3.003,-2.9377,-2.8762,-2.7896,-2.6816,-2.5561,-2.4933,-2.4249,-2.3421,-2.3195,-2.3346,-2.3954,-2.3446,-2.297,-2.2694,-2.3376,-2.3452,-2.2719,-2.3772,-2.4632,-2.5184,-2.5335,-2.5762,-2.6499,-2.7052,-2.7344,-2.7494,-2.7921,-2.8097,-3.4223,-3.5558,-3.6634,-3.6709,-3.6782,-3.6458,-3.5382,-3.4575,-3.347,-3.1537,-2.9176,-2.762,-2.8122,-2.8021,-2.8725,-3.1411,-3.4198,-3.6307,-3.7161,-3.8467,-3.932,-3.932,-3.9069,-3.8919,-3.8919,-3.8291,-3.804,-3.8366,-3.814,-3.8266,-3.8894,-3.9396,-3.9697,-3.9697,-3.9697,-3.9697,-3.9697,-3.9697,-3.9697,-3.9697,-3.9697,-3.9697,-3.9697,-3.9697,-3.9697,-3.9697,0.0,-3.9697,-3.9672,-3.9371,-3.9094,-3.8894,-3.8517,-3.8241,-3.8015,-3.8015,-3.7663,-3.7186,-3.7186,-3.6883,-3.6405,-3.6405,-3.6157,-3.5906,-3.5906,-3.568,-3.5403,-3.5152,-3.4806,-3.4575,-3.4324,-3.3847,-3.3445,-3.3445,-3.3244,-3.3111,-3.3111,-3.3111,-3.3111,-3.3111,-3.2616,-3.2014,-3.1411,-3.0658,-3.0055,-2.9729,-2.8725,-2.7595,-2.649,-2.546,-2.4449,-2.3572,-2.3271,-2.3446,-2.428,-2.3797,-2.3471,-2.3471,-2.4255,-2.4456,-2.3873,-2.4958,-2.5787,-2.6339,-2.6088,-2.6399,-2.7193,-2.7278,-2.7519,-2.8021,-2.8323,-2.8599,-3.5658,-3.6862,-3.7864,-3.7312,-3.7136,-3.6634,-3.4901,-3.3545,-3.2014,-2.9804,-2.7118,-2.5511,-2.664,-2.6549,-2.7354,-3.0633,-3.352,-3.5579,-3.6304,-3.7737,-3.8668,-3.8743,-3.8768,-3.8844,-3.8919,-3.8944,-3.902,-3.902,-3.8592,-3.8517,-3.8969,-3.9421,-3.9697,-3.9697,-3.9697,-3.9697,-3.9697,-3.9697,-3.9697,-3.9697,-3.9697,-3.9697,-3.9697,-3.9697,-3.9697,-3.9697,-3.9697,-3.9697,-3.9697,-3.9697,-3.9421,-3.902,-3.902,-3.8668,-3.8241,-3.8241,-3.7889,-3.7412,-3.7412,-3.6985,-3.6505,-3.643,-3.6405,-3.6405,-3.6405,-3.6405,-3.6304,-3.578,-3.5558,-3.5382,-3.4906,-3.4374,-3.3897,-3.3897,-3.347,-3.3111,-3.3111,-3.3111,-3.3111,-3.3111,-3.2667,-3.2315,-3.2315,-3.1486,-3.0834,-3.0834,-2.9804,-2.8649,-2.7544,-2.6013,-2.4808,-2.418,-2.3622,-2.3747,-2.4833,-2.4481,-2.4255,-2.433,-2.5259,-2.5611,-2.5126,-2.6138,-2.6927,-2.7394,-2.6952,-2.7153,-2.7996,-2.767,-2.7946,-2.8787,-2.8938,-2.9302,-3.7312,-3.7789,-3.7864,-3.7312,-3.6883,-3.6003,-3.3847,-3.1813,-2.9729,-2.753,-2.4808,-2.3226,-2.4356,-2.4858,-2.6189,-2.9528,-3.239,-3.47,-3.6204,-3.7059,-3.7638,-3.809,-3.8165,-3.8341,-3.8818,-3.927,-3.9546,-3.9546,-3.9873,-3.9923,-3.9572,-3.9647,-3.9697,-3.9697,-3.9697,-3.9697,-3.9697,-3.9697,-3.9697,-3.9697,-3.9697,-3.9697,-3.9697,-3.9697,-3.9697,-3.9697,-3.9697,0.0,-3.9697,-3.9697,-3.9647,-3.9546,-3.9546,-3.9496,-3.9396,-3.9396,-3.9044,-3.8617,-3.8617,-3.7964,-3.696,-3.6556,-3.6405,-3.6405,-3.6405,-3.6405,-3.638,-3.6279,-3.5881,-3.5483,-3.5382,-3.4605,-3.3897,-3.3897,-3.347,-3.3111,-3.3111,-3.3111,-3.3111,-3.3111,-3.2993,-3.2918,-3.2918,-3.2365,-3.1938,-3.1938,-3.0633,-2.9227,-2.8122,-2.6917,-2.582,-2.4782,-2.455,-2.475,-2.541,-2.5385,-2.5536,-2.6021,-2.6675,-2.6942,-2.6866,-2.7469,-2.7871,-2.7971,-2.7871,-2.7695,-2.7419,-2.8247,-2.8499,-2.8273,-2.9202,-2.9704,-3.7864,-3.8442,-3.8693,-3.7839,-3.6985,-3.5676,-3.2885,-3.0507,-2.8197,-2.5686,-2.3427,-2.2221,-2.3351,-2.3722,-2.5001,-2.8373,-3.0984,-3.3068,-3.4494,-3.5629,-3.6533,-3.7086,-3.7412,-3.7914,-3.8844,-3.9371,-3.9823,-4.0099,-4.0375,-4.04,-4.0149,-4.0124,-4.0124,-4.0124,-3.9848,-3.9697,-3.9697,-3.9697,-3.9697,-3.9697,-3.9697,-3.9697,-3.9697,-3.9697,-3.9697,-3.9697,-3.9697,-3.9697,-3.9697,-3.9697,-3.9697,-3.9697,-3.9697,-3.9697,-3.9697,-3.9697,-3.9346,-3.8919,-3.8919,-3.8115,-3.7136,-3.6933,-3.6631,-3.6405,-3.6405,-3.6405,-3.6405,-3.6405,-3.6182,-3.5981,-3.5981,-3.5353,-3.4705,-3.4705,-3.4324,-3.3847,-3.3571,-3.3495,-3.342,-3.3144,-3.3111,-3.3111,-3.3111,-3.2591,-3.2215,-3.2215,-3.1085,-2.993,-2.9101,-2.8247,-2.6992,-2.5001,-2.48,-2.5159,-2.6021,-2.6072,-2.6449,-2.7268,-2.7846,-2.8147,-2.8147,-2.8674,-2.8976,-2.8976,-2.8699,-2.8398,-2.8147,-2.8373,-2.8499,-2.8512,-2.9101,-2.9503,-3.814,-3.8919,-3.9396,-3.814,-3.691,-3.5127,-3.1813,-2.9076,-2.654,-2.413,-2.2221,-2.1292,-2.2397,-2.2669,-2.3797,-2.7042,-2.9327,-3.121,-3.2692,-3.4123,-3.5303,-3.6081,-3.6784,-3.7638,-3.8818,-3.9597,-4.0224,-4.0651,-4.0802,-4.0827,-4.0701,-4.0701,-4.0651,-4.0526,-4.0099,-3.9823,-3.9697,-3.9697,-3.9697,-3.9697,-3.9697,-3.9697,-3.9697,-3.9697,-3.9697,-3.9697,-3.9697,-3.9697,-3.9697,-3.9697,-3.9697,-3.9697,-3.9697,-3.9697,-3.9697,-3.9697,-3.9421,-3.9095,-3.9095,-3.8391,-3.7538,-3.7538,-3.7059,-3.6405,-3.6405,-3.6405,-3.6405,-3.6405,-3.6405,-3.6405,-3.6405,-3.5956,-3.5458,-3.5357,-3.4981,-3.4575,-3.4022,-3.3897,-3.3746,-3.3194,-3.3111,-3.3111,-3.3111,-3.2692,-3.239,-3.239,-3.1587,-3.0708,-3.0055,-2.9478,-2.8147,-2.5611,-2.536,-2.5711,-2.66,-2.6776,-2.7243,-2.8222,-2.88,-2.9063,-2.9063,-2.9553,-2.9804,-2.9804,-2.9352,-2.9013,-2.8888,-2.8624,-2.8624,-2.8888,-2.9013,-2.9352,-3.8517,-3.922,-3.9295,-3.7663,-3.6056,-3.3997,-3.0708,-2.7067,-2.4004,-2.2723,-2.0738,-1.9585,-2.0717,-2.132,-2.2573,-2.536,-2.7268,-2.9327,-3.1913,-3.2867,-3.3872,-3.5382,-3.6558,-3.7638,-3.8818,-4.0275,-4.115,-4.12,-4.1731,-4.1781,-4.125,-4.12,-4.0974,-4.0526,-4.0475,-4.0199,-3.9697,-3.9697,-3.9697,-3.9697,-3.9697,-3.9697,-3.9697,-3.9697,-3.9697,-3.9697,-3.9697,-3.9697,0.0,-3.9697,-3.9697,-3.9697,-3.9697,-3.9697,-3.9697,-3.9697,-3.9672,-3.9622,-3.9622,-3.922,-3.8718,-3.8718,-3.7687,-3.6405,-3.6405,-3.6405,-3.6405,-3.6405,-3.6405,-3.6405,-3.6405,-3.5956,-3.5382,-3.4881,-3.4751,-3.4575,-3.4022,-3.3897,-3.3746,-3.3194,-3.3111,-3.3111,-3.3111,-3.3043,-3.2993,-3.2993,-3.2466,-3.1687,-3.0658,-3.0055,-2.9026,-2.7243,-2.7067,-2.7092,-2.7228,-2.767,-2.8222,-2.8787,-2.9402,-2.9704,-2.9704,-2.9754,-2.9804,-2.9804,-2.9754,-2.9453,-2.8888,-2.9402,-2.9402,-2.8888,-2.9478,-2.9754,-3.7136,-3.8316,-3.8793,-3.7136,-3.5454,-3.337,-3.003,-2.654,-2.3577,-2.2121,-2.0589,-1.9736,-2.0541,-2.0867,-2.1823,-2.423,-2.5737,-2.7444,-2.9841,-3.1286,-3.2566,-3.3897,-3.5328,-3.6634,-3.7739,-3.9371,-4.0752,-4.1756,-4.2168,-4.2227,-4.1805,-4.1788,-4.1731,-4.1505,-4.1178,-4.0902,-4.0701,-4.035,-4.0199,-4.0199,-3.9848,-3.9697,-3.9697,-3.9697,-3.9697,-3.9697,-3.9697,-3.9697,0.0,-3.9697,-3.9697,-3.9697,-3.9697,-3.9697,-3.9697,-3.9697,-3.9697,-3.9697,-3.9697,-3.932,-3.8919,-3.8919,-3.8191,-3.7337,-3.7337,-3.7111,-3.6908,-3.6908,-3.6656,-3.6405,-3.6405,-3.6207,-3.5981,-3.5755,-3.5705,-3.5554,-3.5002,-3.4831,-3.468,-3.4173,-3.4073,-3.3972,-3.3621,-3.3571,-3.3445,-3.3162,-3.2591,-3.2064,-3.1637,-3.0809,-2.9905,-2.89,-2.7896,-2.7419,-2.7745,-2.7971,-2.8624,-2.988,-3.0156,-3.0432,-3.0733,-3.0457,-3.0281,-3.0281,-2.9955,-2.9854,-2.9891,-3.0181,-3.0331,-3.0407,-3.0658,-3.0758,-3.583,-3.7211,-3.7965,-3.6332,-3.465,-3.2516,-2.9202,-2.5887,-2.3125,-2.1769,-2.0464,-1.9736,-2.0339,-2.044,-2.1119,-2.315,-2.428,-2.5711,-2.8097,-2.9729,-3.1135,-3.2416,-3.4048,-3.5554,-3.681,-3.8894,-4.0802,-4.2338,-4.2426,-4.2174,-4.1663,-4.1499,-4.1509,-4.1662,-4.1235,-4.0938,-4.0789,-4.0244,-3.9972,-3.9972,-3.9426,-3.9206,-3.9206,-3.9206,-3.9206,-3.9206,-3.9206,-3.9206,0.0,-3.9206,-3.9206,-3.9206,-3.9206,-3.9206,-3.9206,-3.9206,-3.9206,-3.9206,-3.9258,-3.9113,-3.884,-3.884,-3.8565,-3.8191,-3.814,-3.7692,-3.7186,-3.7186,-3.6784,-3.6405,-3.6405,-3.6405,-3.6405,-3.6405,-3.6405,-3.6207,-3.5608,-3.5508,-3.5332,-3.4781,-3.468,-3.455,-3.3997,-3.3897,-3.3721,-3.3169,-3.2742,-3.2416,-3.224,-3.1562,-3.0758,-2.988,-2.8725,-2.8122,-2.8323,-2.8348,-2.9001,-3.0493,-3.0608,-3.0859,-3.1361,-3.0884,-3.0608,-3.0608,-3.008,-3.0055,-3.0608,-3.0608,-3.0884,-3.1386,-3.1386,-3.1386,-3.4906,-3.6358,-3.681,-3.5152,-3.347,-3.1361,-2.8047,-2.4732,-2.2171,-2.1594,-2.0188,-1.9158,-1.971,-1.9811,-2.0363,-2.2046,-2.2769,-2.4098,-2.6917,-2.8247,-2.9578,-3.121,-3.2893,-3.455,-3.6254,-3.9371,-4.1781,-4.2886,-4.2457,-4.1696,-4.065,-4.0071,-3.9917,-4.0322,-4.0298,-4.0034,-3.9506,-3.9001,-3.8737,-3.8713,-3.8238,-3.8027,-3.8027,-3.8027,-3.8027,-3.8027,-3.8027,-3.8027,0.0,-3.8027,-3.8027,-3.8027,-3.8027,-3.8027,-3.8027,-3.8027,-3.8027,-3.8027,-3.8315,-3.8579,-3.8788,-3.8788,-3.8788,-3.8712,-3.8502,-3.7837,-3.7186,-3.7186,-3.6784,-3.6405,-3.6405,-3.6405,-3.6405,-3.6405,-3.6405,-3.6207,-3.5608,-3.5508,-3.5332,-3.4781,-3.468,-3.455,-3.3997,-3.3897,-3.3721,-3.3169,-3.3111,-3.2867,-3.229,-3.2215,-3.1587,-2.9955,-2.9779,-2.9528,-2.8938,-2.8888,-2.9364,-3.0532,-3.0608,-3.0859,-3.1361,-3.0884,-3.0608,-3.0608,-3.008,-3.0055,-3.0608,-3.0608,-3.0884,-3.1386,-3.1386,-3.1386,-3.2315,-3.3796,-3.455,-3.2867,-3.1486,-2.9841,-2.7151,-2.4183,-2.1857,-2.1283,-2.0143,-1.9353,-1.9631,-1.9734,-2.0238,-2.1543,-2.2221,-2.3552,-2.6373,-2.8348,-3.0052,-3.1556,-3.3864,-3.5917,-3.7331,-3.9087,-4.055,-4.1623,-4.0952,-4.0118,-3.9393,-3.8506,-3.832,-3.8847,-3.8824,-3.8755,-3.8595,-3.7748,-3.7336,-3.7313,-3.6544,-3.6131,-3.6131,-3.6131,-3.6131,-3.6131,-3.6131,-3.6131,-3.6131,-3.6131,-3.6131,-3.6131,-3.6131,-3.6131,-3.6131,-3.6131,-3.6131,-3.624,-3.675,-3.734,-3.7926,-3.7897,-3.7897,-3.782,-3.734,-3.7192,-3.7213,-3.722,-3.6825,-3.6404,-3.638,-3.6107,-3.586,-3.586,-3.6003,-3.6143,-3.611,-3.6107,-3.6056,-3.5881,-3.583,-3.568,-3.5082,-3.4981,-3.4781,-3.4274,-3.4198,-3.3997,-3.3445,-3.3043,-3.2315,-3.1009,-3.0557,-2.998,-2.8963,-2.8888,-2.9515,-3.106,-3.116,-3.1562,-3.2491,-3.2014,-3.1712,-3.1712,-3.116,-3.116,-3.1712,-3.1712,-3.1989,-3.2541,-3.2541,-3.2541,-2.964,-3.106,-3.1712,-3.0457,-2.9327,-2.796,-2.5726,-2.3213,-2.116,-2.0596,-1.9767,-1.9212,-1.9422,-1.9656,-2.0162,-2.1292,-2.1769,-2.2975,-2.577,-2.8047,-3.0179,-3.2162,-3.4078,-3.5636,-3.6748,-3.7848,-3.8878,-3.9907,-3.9216,-3.8447,-3.7708,-3.6846,-3.642,-3.6356,-3.7106,-3.7528,-3.7528,-3.6582,-3.6041,-3.6019,-3.5109,-3.4648,-3.4648,-3.4648,-3.4648,-3.4648,-3.4648,-3.4648,0.0,-3.4648,-3.4648,-3.4648,-3.4648,-3.4648,-3.4648,-3.4648,-3.4648,-3.4759,-3.5333,-3.6154,-3.6858,-3.675,-3.6534,-3.624,-3.564,-3.5949,-3.6517,-3.6633,-3.6472,-3.6157,-3.5964,-3.5697,-3.543,-3.5211,-3.5452,-3.5835,-3.631,-3.6405,-3.6405,-3.6405,-3.6405,-3.6182,-3.5583,-3.5508,-3.5307,-3.4756,-3.468,-3.4525,-3.3972,-3.3596,-3.2867,-3.1537,-3.111,-3.0457,-2.9352,-2.9453,-3.008,-3.1311,-3.1587,-3.2114,-3.3086,-3.2516,-3.2215,-3.2215,-3.1605,-3.1497,-3.1921,-3.2017,-3.2247,-3.2723,-3.2766,-3.2853,0.0,-2.8087,-2.855,-2.7999,-2.7057,-2.5761,-2.3867,-2.1795,0.0,-1.9642,-1.9041,-1.8765,-1.9129,-1.9523,-2.0185,-2.1362,-2.1537,-2.2514,-2.5286,-2.7639,-3.018,-3.2959,-3.375,-3.4252,-3.4858,-3.5912,-3.6983,-3.7978,-3.7528,-3.6742,-3.5806,-3.5129,-3.436,-3.3418,-3.5211,-3.6197,-3.6197,-3.5286,-3.4821,-3.4821,-3.3868,-3.3424,-3.3424,-3.3424,-3.3424,0.0,-3.3424,-3.3424,0.0,-3.3424,-3.3424,-3.3424,-3.3424,-3.3424,-3.3424,-3.3424,-3.3424,-3.3459,-3.4078,-3.4858,-3.5576,-3.53,-3.4803,-3.419,-3.3572,-3.4307,-3.5382,-3.5704,-3.5845,-3.5778,-3.5384,-3.5241,-3.5146,-3.4623,-3.4871,-3.5476,-3.6218,-3.6335,-3.631,-3.631,-3.631,-3.6113,-3.554,-3.5465,-3.529,-3.4765,-3.4715,-3.4515,-3.4009,-3.3884,-3.3233,-3.1605,-3.1379,-3.0954,-2.9902,-3.0317,-3.0834,-3.1361,-3.1913,-3.2466,-3.3086,-3.2566,-3.2265,-3.2265,-3.1498,-3.1223,-3.1418,-3.1496,-3.1649,-3.1889,-3.2201,-3.2419,-2.1406,0.0,-2.615,-2.5554,-2.4661,-2.3563,0.0,-2.0497,-1.904,-1.8805,-1.8405,-1.8313,-1.901,-1.9467,-2.02,-2.1728,-2.1971,-2.3038,-2.6081,-2.9225,-3.1996,-3.4165,-3.433,-3.4415,-3.4855,-3.5441,-3.6101,-3.6803,-3.6197,-3.5644,-3.5149,-3.4465,-3.3922,-3.3418,-3.3859,-3.409,-3.409,-3.3253,-3.2874,-3.2874,-3.1996,-3.1518,-3.1518,-3.1518,-3.1518,-3.1518,-3.1518,-3.1518,-3.1518,-3.1518,-3.1518,-3.1518,-3.1518,-3.1518,-3.1518,-3.1518,-3.1518,-3.1614,-3.2248,-3.3006,-3.3698,-3.3642,-3.3212,-3.2571,-3.1787,-3.3,-3.488,-3.5586,-3.5718,-3.563,-3.573,-3.5765,-3.5765,-3.5646,-3.5713,-3.5917,-3.6283,-3.5939,-3.5404,-3.5211,-3.5163,-3.5114,-3.4993,-3.4968,-3.4944,-3.4823,-3.4798,-3.4604,-3.407,-3.3608,-3.2904,-3.1671,-3.1204,-3.0694,-2.9997,-3.0357,-3.0834,-3.1361,-3.1913,-3.2466,-3.3086,-3.2943,-3.2867,-3.2867,-3.1747,-3.1001,-3.0723,-3.0168,-3.0192,-3.0621,-3.1202,-3.1733,-1.892,-2.1128,-2.3159,-2.2844,-2.2133,-2.1307,-2.0403,-1.8896,-1.7663,-1.7649,-1.7431,-1.7478,-1.8277,-1.892,-1.9854,-2.1351,-2.1933,-2.3605,-2.7648,-3.0192,-3.2374,-3.436,-3.419,-3.3989,-3.4206,-3.4452,-3.4697,-3.5005,-3.4673,-3.4423,-3.4235,-3.3859,-3.3607,-3.3418,-3.3418,-3.3418,-3.3418,-3.2598,-3.2229,-3.2209,-3.1309,-3.0898,-3.0898,-3.0898,-3.0898,-3.0898,-3.0898,-3.0898,-3.0898,-3.0898,-3.0898,-3.0898,-3.0898,-3.0898,-3.0898,-3.0898,-3.0898,-3.0957,-3.1383,-3.1998,-3.253,-3.2644,-3.2264,-3.1672,-3.1054,-3.1903,-3.3233,-3.428,-3.4659,-3.4907,-3.523,-3.5531,-3.5798,-3.5951,-3.6018,-3.5956,-3.5865,-3.5279,-3.4572,-3.377,-3.3624,-3.3624,-3.3624,-3.3624,-3.3624,-3.3624,-3.3624,-3.3438,-3.2926,-3.2624,-3.1902,-3.0625,-3.0231,-2.9836,-2.9283,-2.9518,-3.0086,-3.1073,-3.1656,-3.2142,-3.2438,-3.2463,-3.2332,-3.1957,-3.1024,-3.0283,-2.9647,-2.9073,-2.9026,-2.9532,-3.0237,-3.0845,-1.7828,-1.9039,-2.0258,-2.0486,-2.0144,-1.9598,-1.9008,-1.7807,-1.6842,-1.678,-1.6759,-1.6942,-1.7671,-1.8512,-1.9566,-2.1049,-2.2346,-2.4705,-2.9289,-3.073,-3.2094,-3.4031,-3.3774,-3.3457,-3.3403,-3.3418,-3.3418,-3.3418,-3.3418,-3.3418,-3.3418,-3.3418,-3.3418,-3.3418,-3.3418,-3.3418,-3.3418,-3.2598,-3.2229,-3.2209,-3.1309,-3.0898,-3.0898,-3.0898,-3.0898,-3.0898,0.0,0.0,-3.0898,-3.0898,-3.0898,-3.0898,-3.0898,-3.0898,-3.0898,-3.0898,-3.0898,-3.0957,-3.117,-3.1441,-3.1672,-3.194,-3.1672,-3.1228,-3.0937,-3.1054,-3.1441,-3.2473,-3.3268,-3.397,-3.4469,-3.5083,-3.5633,-3.6006,-3.6019,-3.5774,-3.5254,-3.4583,-3.3737,-3.2492,-3.2272,-3.2272,-3.2272,-3.2272,-3.2272,-3.2272,-3.2272,-3.2117,-3.1645,-3.1468,-3.0869,-2.9468,-2.9181,-2.8916,-2.8473,-2.8541,-2.9173,-3.0467,-3.1083,-3.1339,-3.1339,-3.1339,-3.1026,-3.0329,-2.9761,-2.9119,-2.8445,-2.7882,-2.7904,-2.8398,-2.9119,-2.9761,-1.6722,-1.7638,-1.8677,-1.9948,-2.0139,-1.9952,-1.964,-1.8936,-1.8234,-1.7708,-1.7723,-1.8004,-1.8683,-1.9384,-2.0496,-2.2322,-2.5062,-2.7679,-2.9622,-3.0979,-3.2194,-3.3489,-3.3478,-3.3386,-3.3379,-3.3418,-3.3418,-3.3418,-3.3418,-3.3418,-3.3418,-3.3418,-3.3418,-3.3418,-3.3418,-3.3418,-3.3418,-3.2598,-3.2229,-3.2209,-3.1309,-3.0898,-3.0898,-3.0898,-3.0898,-3.0898,0.0,-3.0898,-3.0898,-3.0898,-3.0898,-3.0898,-3.0898,-3.0898,-3.0898,-3.0898,-3.0898,-3.0898,-3.0937,-3.0995,-3.1054,-3.1112,-3.1054,-3.0937,-3.0898,-3.0957,-3.0995,-3.117,-3.2227,-3.3438,-3.4304,-3.5134,-3.5876,-3.6479,-3.6077,-3.5465,-3.5115,-3.4011,-3.2927,-3.2276,-3.2116,-3.2116,-3.2116,-3.2116,-3.2116,-3.2116,-3.2116,-3.2073,-3.2009,-3.1325,-3.0598,-2.9928,-2.9186,-2.8673,-2.8588,-2.8588,-2.8855,-2.9505,-2.9658,-2.9738,-2.9738,-2.9738,-2.951,-2.9004,-2.8283,-2.7694,-2.7194,-2.6428,-2.6304,-2.688,-2.76,-2.819,-1.6269,-1.7012,-1.7947,-1.9047,-1.9677,-1.9889,-1.956,-1.9253,-1.8949,-1.8681,-1.8443,-1.8586,-1.9349,-2.0159,-2.1605,-2.4327,-2.6458,-2.8289,-2.987,-3.0802,-3.1736,-3.2994,-3.3087,-3.3155,-3.3379,-3.3418,-3.3418,-3.3418,-3.3418,-3.3418,-3.3418,-3.3418,-3.3418,-3.3418,-3.3418,-3.3418,-3.3418,-3.2812,-3.2402,-3.2168,-3.1523,-3.1113,-3.0898,-3.0898,-3.0898,-3.0898,0.0,-3.0898,-3.0898,-3.0898,-3.0898,-3.0898,-3.0898,-3.0898,-3.0898,-3.0898,-3.0898,-3.0898,-3.0898,-3.0898,-3.0898,-3.0898,-3.0898,-3.0898,-3.0898,-3.0898,-3.0898,-3.0898,-3.1614,-3.2628,-3.3494,-3.428,-3.5002,-3.5772,-3.5427,-3.4635,-3.3803,-3.2843,-3.1918,-3.0921,-3.077,-3.077,-3.077,-3.077,-3.077,-3.077,-3.077,-3.077,-3.077,-3.0147,-2.9477,-2.8859,-2.8137,-2.7731,-2.7731,-2.7528,-2.7963,-2.9211,-2.9343,-2.9324,-2.9324,-2.9324,-2.9084,-2.8603,-2.814,-2.7652,-2.718,-2.6675,-2.6625,-2.7003,-2.7603,-2.8042,-1.6065,-1.6594,-1.7337,-1.8227,-1.9277,-2.0019,-1.9785,-1.998,-2.0137,-1.9941,-1.9785,-1.9826,-2.0391,-2.1406,-2.3105,-2.6055,-2.7344,-2.8516,-3.0137,-3.084,-3.1582,-3.2676,-3.2871,-3.3066,-3.3398,-3.3418,-3.3418,-3.3418,-3.3418,-3.3418,-3.3418,-3.3418,-3.3418,-3.3418,-3.3418,-3.3418,-3.3418,-3.3105,-3.2734,-3.2305,-3.1875,-3.1504,-3.1191,-3.1191,-3.1191,-3.1191,-3.1074,-3.1035,-3.1035,-3.0937,-3.0957,-3.1035,-3.1035,-3.1094,-3.1191,-3.1191,-3.1191,-3.1191,-3.1191,-3.1191,-3.1191,-3.1191,-3.1191,-3.1191,-3.1191,-3.1191,-3.1191,-3.1191,-3.1465,-3.1908,-3.2664,-3.3304,-3.3923,-3.4703,-3.4425,-3.3703,-3.256,-3.1922,-3.124,-3.0111,-2.9883,-2.9883,-2.9883,-2.9883,-2.9883,-2.9883,-2.9883,-2.9883,-2.9883,-2.9492,-2.8887,-2.8047,-2.7578,-2.7324,-2.7324,-2.7109,-2.762,-2.9093,-2.8923,-2.8736,-2.8736,-2.8736,-2.8587,-2.8136,-2.7935,-2.7683,-2.7298,-2.7114,-2.7114,-2.7298,-2.7683,-2.7935,-1.5987,-1.6144,-1.6496,-1.7734,-1.9297,-2.0664,-2.0976,-2.197,-2.2594,-2.1855,-2.2285,-2.2672,-2.2383,-2.3672,-2.5273,-2.6738,-2.8008,-2.9297,-3.0644,-3.1562,-3.2246,-3.2734,-3.3144,-3.3379,-3.3418,-3.3418,-3.3418,-3.3418,-3.3418,-3.3418,-3.3418,-3.3418,-3.3418,-3.3418,-3.3418,-3.3418,-3.3418,-3.3398,-3.3164,-3.2734,-3.2324,-3.2109,-3.2131,-3.2131,-3.2131,-3.2051,-3.1641,-3.1465,-3.1445,-3.1055,-3.1113,-3.1465,-3.1465,-3.1719,-3.2131,-3.2131,-3.2131,-3.2131,-3.2131,-3.2131,-3.2131,-3.2131,-3.2131,-3.2131,-3.2131,-3.2131,-3.2131,-3.2131,-3.1837,-3.1663,-3.2157,-3.2514,-3.297,-3.3572,-3.3233,-3.2721,-3.2281,-3.1727,-3.1227,-3.0859,-3.0801,-3.0801,-3.0801,-3.0801,-3.0801,-3.0801,-3.0801,-3.0801,-3.0801,-3.0391,-2.9785,-2.8926,-2.8457,-2.8203,-2.8203,-2.8535,-2.8804,-2.8932,-2.7832,-2.7165,-2.7165,-2.7165,-2.7165,-2.7114,-2.7114,-2.7063,-2.7012,-2.7012,-2.7012,-2.7012,-2.7063,-2.7114,-1.6124,-1.6269,-1.6719,-1.7754,-1.9297,-2.0801,-2.1484,-2.2832,-2.4004,-2.4238,-2.4746,-2.5039,-2.4543,-2.5488,-2.6621,-2.7637,-2.8672,-2.9883,-3.1465,-3.1973,-3.2422,-3.3105,-3.332,-3.3418,-3.3418,-3.3418,-3.3418,-3.3418,-3.3418,-3.3418,-3.3418,-3.3418,-3.3418,-3.3418,-3.3418,-3.3418,-3.3418,-3.3418,-3.334,-3.3184,-3.2754,-3.2422,-3.2229,-3.2229,-3.2229,-3.2209,-3.1992,-3.1758,-3.1523,-3.1641,-3.1621,-3.1543,-3.1816,-3.2012,-3.2229,-3.2229,-3.2229,-3.2229,-3.2229,-3.2229,-3.2229,-3.2229,-3.2229,-3.2229,-3.2229,-3.2229,-3.2229,-3.2229,-3.2051,-3.1936,-3.1781,-3.1639,-3.1614,-3.1845,-3.173,-3.1576,-3.1441,-3.1228,-3.0995,-3.0898,-3.0898,-3.0898,-3.0898,-3.0898,-3.0898,-3.0898,-3.0898,-3.0898,-3.0898,-3.0488,-2.998,-2.9394,-2.8945,-2.8672,-2.8672,-2.9082,-2.9316,-2.9316,-2.8613,-2.8086,-2.7812,-2.7812,-2.7812,-2.7812,-2.7812,-2.7812,-2.7812,-2.7812,-2.7812,-2.7812,-2.7812,-2.7812,-1.6348,-1.6406,-1.6797,-1.793,-1.9394,-2.0938,-2.2187,-2.3809,-2.5254,-2.5947,-2.6484,-2.6699,-2.6406,-2.6836,-2.75,-2.8359,-2.9101,-3.0233,-3.1934,-3.2229,-3.248,-3.332,-3.3418,-3.3418,-3.3418,-3.3418,-3.3418,-3.3418,-3.3418,-3.3359,-3.3242,-3.334,-3.3359,-3.3223,-3.3359,-3.3418,-3.3418,-3.3418,-3.3418,-3.3418,-3.3125,-3.2851,-3.2559,-3.2559,-3.2559,-3.2559,-3.2422,-3.2207,-3.1934,-3.2109,-3.207,-3.1973,-3.2402,-3.2559,-3.2559,-3.2559,-3.2559,-3.2559,-3.2559,-3.2559,-3.2559,-3.2559,-3.2559,-3.2559,-3.2559,-3.2559,-3.2559,-3.2559,-3.248,-3.2305,-3.1992,-3.1504,-3.1055,-3.0918,-3.0898,-3.0898,-3.0898,-3.0898,-3.0898,-3.0898,-3.0898,-3.0898,-3.0898,-3.0898,-3.0898,-3.0898,-3.0898,-3.0898,-3.0898,-3.0605,-3.0254,-2.9805,-2.9375,-2.918,-2.9316,-2.959,-2.9766,-2.9766,-2.9492,-2.9062,-2.8516,-2.8359,-2.8301,-2.8301,-2.8301,-2.8301,-2.8301,-2.8301,-2.8301,-2.8301,-2.8301,-2.8301,-1.6707,-1.6426,-1.6535,-1.8188,-1.9629,-2.1192,-2.332,-2.5156,-2.6523,-2.6973,-2.7383,-2.7748,-2.7728,-2.7728,-2.7949,-2.8789,-2.9297,-3.0176,-3.1994,-3.2229,-3.248,-3.332,-3.3418,-3.3418,-3.3418,-3.3418,-3.3418,-3.3418,-3.3418,-3.3242,-3.2812,-3.3184,-3.3223,-3.2812,-3.3203,-3.3418,-3.3418,-3.3418,-3.3418,-3.3418,-3.3418,-3.3418,-3.3418,-3.3418,-3.3418,-3.3398,-3.2988,-3.2793,-3.2754,-3.2344,-3.2422,-3.2851,-3.3262,-3.3418,-3.3418,-3.3418,-3.3418,-3.3418,-3.3418,-3.3418,-3.3418,-3.3418,-3.3418,-3.3418,-3.3418,-3.3418,-3.3418,-3.3418,-3.3125,-3.2793,-3.2793,-3.2168,-3.1426,-3.0996,-3.0898,-3.0898,-3.0898,-3.0898,-3.0898,-3.0898,-3.0898,-3.0898,-3.0898,-3.0898,-3.0898,-3.0898,-3.0898,-3.0898,-3.0898,-3.0898,-3.0703,-3.0254,-2.9824,-2.9746,-3.0176,-3.0195,-3.0195,-3.0195,-3.0195,-2.9805,-2.8965,-2.8516,-2.8301,-2.8301,-2.8301,-2.8301,-2.8301,-2.8301,-2.8301,-2.8301,-2.8301,-2.8301,-1.7428,-1.7539,-1.7852,-1.957,-2.0977,-2.2578,-2.5059,-2.6484,-2.7754,-2.9394,-2.959,-2.9258,-2.8652,-2.8789,-2.8984,-2.8926,-2.9531,-3.0508,-3.1973,-3.2229,-3.248,-3.332,-3.3418,-3.3418,-3.3418,-3.3418,-3.3418,-3.3418,-3.3144,-3.293,-3.2793,-3.2637,-3.2617,-3.2793,-3.291,-3.3125,-3.3418,-3.3418,-3.3418,-3.3418,-3.3418,-3.3418,-3.3418,-3.3418,-3.3418,-3.3418,-3.3281,-3.3066,-3.2793,-3.2656,-3.2851,-3.3242,-3.3379,-3.3418,-3.3418,-3.3418,-3.3418,-3.3418,-3.3418,-3.3418,-3.3418,-3.3418,-3.3418,-3.3418,-3.3418,-3.3418,-3.3418,-3.3418,-3.332,-3.3164,-3.2871,-3.2617,-3.2305,-3.1894,-3.1797,-3.1797,-3.1797,-3.1797,-3.1797,-3.1797,-3.1797,-3.1797,-3.1797,-3.1543,-3.1328,-3.1328,-3.1074,-3.0898,-3.0898,-3.0898,-3.084,-3.0703,-3.0566,-3.0547,-3.0684,-3.0391,-3.0332,-3.0664,-3.0098,-2.9648,-2.9394,-2.9258,-2.9199,-2.9199,-2.9199,-2.9199,-2.9199,-2.9199,-2.9199,-2.9199,-2.9199,-2.9199,-1.7773,-1.8379,-1.918,-2.0918,-2.2578,-2.4512,-2.7285,-2.8301,-2.9101,-3.0586,-3.0527,-3.0039,-2.9531,-2.9512,-2.9531,-2.9453,-2.9863,-3.0586,-3.1738,-3.1914,-3.2168,-3.2851,-3.293,-3.293,-3.293,-3.293,-3.293,-3.293,-3.2695,-3.248,-3.2305,-3.2207,-3.2207,-3.2285,-3.2617,-3.291,-3.3164,-3.334,-3.3418,-3.3418,-3.3418,-3.3418,-3.3418,-3.3418,-3.3418,-3.3418,-3.3418,-3.3281,-3.3047,-3.3047,-3.3184,-3.3418,-3.3418,-3.3418,-3.3418,-3.3418,-3.3418,-3.3418,-3.3418,-3.3418,-3.3418,-3.3418,-3.3418,-3.3418,-3.3418,-3.3418,-3.3418,-3.3418,-3.3418,-3.3359,-3.3105,-3.3047,-3.2891,-3.2305,-3.2229,-3.2229,-3.2229,-3.2229,-3.2229,-3.2229,-3.2229,-3.2229,-3.2229,-3.1953,-3.1719,-3.1543,-3.1152,-3.0898,-3.0898,-3.0898,-3.0898,-3.0898,-3.0898,-3.0898,-3.0898,-3.0644,-3.0586,-3.0879,-3.0391,-3.0098,-3.0098,-2.9766,-2.9626,-2.9626,-2.9626,-2.9626,-2.9626,-2.9626,-2.9626,-2.9626,-2.9626,-2.9626,-1.7852,-1.9062,-2.0469,-2.2246,-2.4375,-2.6707,-2.9551,-3.0234,-3.0371,-3.0801,-3.0547,-3.0254,-3.0254,-2.9941,-2.9824,-3.0195,-3.0254,-3.0547,-3.1406,-3.1523,-3.168,-3.2109,-3.2229,-3.2229,-3.2229,-3.2229,-3.2229,-3.2229,-3.2129,-3.1934,-3.1543,-3.1855,-3.1894,-3.1523,-3.2266,-3.2715,-3.2793,-3.3164,-3.3379,-3.3418,-3.3418,-3.3418,-3.3418,-3.3418,-3.3418,-3.3418,-3.3418,-3.3418,-3.3418,-3.3418,-3.3418,-3.3418,-3.3418,-3.3418,-3.3418,-3.3418,-3.3418,-3.3418,-3.3418,-3.3418,-3.3418,-3.3418,-3.3418,-3.3418,-3.3418,-3.3418,-3.3418,-3.3418,-3.3418,-3.3418,-3.3418,-3.3418,-3.3223,-3.2461,-3.2285,-3.2285,-3.2285,-3.2285,-3.2285,-3.2285,-3.2285,-3.2285,-3.2285,-3.2307,-3.207,-3.1641,-3.125,-3.1016,-3.1016,-3.1016,-3.1016,-3.1016,-3.1016,-3.0996,-3.0957,-3.0918,-3.0898,-3.0898,-3.0859,-3.084,-3.0898,-3.0117,-2.9744,-2.9744,-2.9744,-2.9744,-2.9744,-2.9744,-2.9744,-2.9744,-2.9744,-2.9744,-1.8496,-1.9961,-2.1405,-2.3496,-2.6133,-2.8574,-2.9902,-3.0488,-3.0762,-3.0859,-3.082,-3.0742,-3.0742,-3.0664,-3.0644,-3.0723,-3.0742,-3.0918,-3.1445,-3.1523,-3.168,-3.2109,-3.2229,-3.2229,-3.2229,-3.2229,-3.2229,-3.2229,-3.1855,-3.1621,-3.1523,-3.1289,-3.1269,-3.1504,-3.1699,-3.2109,-3.2793,-3.2891,-3.3105,-3.3418,-3.3418,-3.3418,-3.3418,-3.3418,-3.3418,-3.3418,-3.3418,-3.3418,-3.3418,-3.3418,-3.3418,-3.3418,-3.3418,-3.3418,-3.3418,-3.3418,-3.3418,-3.3418,-3.3418,-3.3418,-3.3418,-3.3418,-3.3418,-3.3418,-3.3418,-3.3418,-3.3418,-3.3418,-3.3418,-3.3418,-3.3418,-3.3418,-3.3379,-3.3184,-3.3144,-3.3144,-3.3144,-3.3144,-3.3144,-3.3144,-3.3144,-3.3144,-3.3144,-3.2871,-3.2519,-3.209,-3.1953,-3.1894,-3.1894,-3.1894,-3.1894,-3.1894,-3.1894,-3.1758,-3.1406,-3.1074,-3.0898,-3.0898,-3.0547,-3.0508,-3.0879,-3.0703,-3.0605,-3.0605,-3.0605,-3.0605,-3.0605,-3.0605,-3.0605,-3.0605,-3.0605,-3.0605,-1.8379,-2.0333,-2.2555,-2.5781,-2.791,-2.9453,-3.0332,-3.0723,-3.0898,-3.0898,-3.0898,-3.0898,-3.0898,-3.0898,-3.0898,-3.0898,-3.0898,-3.0957,-3.1191,-3.1211,-3.1309,-3.1523,-3.1562,-3.1562,-3.1562,-3.1562,-3.1562,-3.1562,-3.1348,-3.1211,-3.1211,-3.1016,-3.0996,-3.1211,-3.1406,-3.1738,-3.2187,-3.2383,-3.2695,-3.3125,-3.3125,-3.3223,-3.3418,-3.3418,-3.3418,-3.3418,-3.3418,-3.3418,-3.3418,-3.3418,-3.3418,-3.3418,-3.3418,-3.3418,-3.3418,-3.3418,-3.3418,-3.3418,-3.3418,-3.3418,-3.3418,-3.3418,-3.3418,-3.3418,-3.3418,-3.3418,-3.3418,-3.3418,-3.3418,-3.3418,-3.3418,-3.3418,-3.3418,-3.3418,-3.3418,-3.3418,-3.3418,-3.3418,-3.3418,-3.3418,-3.3418,-3.3418,-3.3418,-3.3066,-3.2715,-3.25,-3.2305,-3.2229,-3.2229,-3.2229,-3.2229,-3.2229,-3.2229,-3.207,-3.1855,-3.1445,-3.1191,-3.1191,-3.0781,-3.0644,-3.0879,-3.0898,-3.0898,-3.0898,-3.0898,-3.0898,-3.0898,-3.0898,-3.0898,-3.0898,-3.0898,-3.0898,-1.7993,-2.0742,-2.3926,-2.8008,-2.9297,-2.9861,-3.0684,-3.0898,-3.0898,-3.0898,-3.0898,-3.0898,-3.0898,-3.0898,-3.0898,-3.0898,-3.0898,-3.0898,-3.0898,-3.0898,-3.0898,-3.0898,-3.0898,-3.0898,-3.0898,-3.0898,-3.0898,-3.0898,-3.0898,-3.0898,-3.0898,-3.0898,-3.0898,-3.0898,-3.123,-3.1445,-3.1523,-3.1875,-3.2305,-3.2793,-3.2871,-3.3086,-3.3418,-3.3418,-3.3418,-3.3418,-3.3418,-3.3418,-3.3418,-3.3418,-3.3418,-3.3418,-3.3418,-3.3418,-3.3418,-3.3418,-3.3418,-3.3418,-3.3418,-3.3418,-3.3418,-3.3418,-3.3418,-3.3418,-3.3418,-3.3418,-3.3418,-3.3418,-3.3418,-3.3418,-3.3418,-3.3418,-3.3418,-3.3418,-3.3418,-3.3418,-3.3418,-3.3418,-3.3418,-3.3418,-3.3418,-3.3418,-3.3418,-3.3125,-3.291,-3.291,-3.2598,-3.2383,-3.2383,-3.2383,-3.2383,-3.2383,-3.2383,-3.2363,-3.2285,-3.1953,-3.1699,-3.1641,-3.1309,-3.1113,-3.1113,-3.1113,-3.1113,-3.1113,-3.0976,-3.0898,-3.0898,-3.0898,-3.0879,-3.082,-3.0762,-3.0704,-1.7915,-2.1621,-2.5536,-2.8691,-2.9531,-2.9861,-3.0684,-3.0898,-3.0898,-3.0898,-3.0898,-3.0898,-3.0898,-3.0898,-3.0898,-3.0898,-3.0898,-3.0898,-3.0898,-3.0898,-3.0898,-3.0898,-3.0898,-3.0898,-3.0898,-3.0898,-3.0898,-3.0898,-3.0898,-3.0898,-3.0898,-3.0898,-3.0898,-3.0898,-3.0937,-3.1152,-3.1504,-3.1582,-3.2012,-3.2793,-3.3164,-3.3359,-3.3418,-3.3418,-3.3418,-3.3418,-3.3418,-3.3418,-3.3418,-3.3418,-3.3418,-3.3418,-3.3418,-3.3418,-3.3418,-3.3418,-3.3418,-3.3418,-3.3418,-3.3418,-3.3418,-3.3418,-3.3418,-3.3418,-3.3418,-3.3418,-3.3418,-3.3418,-3.3418,-3.3418,-3.3418,-3.3418,-3.3418,-3.3418,-3.3418,-3.3418,-3.3418,-3.3418,-3.3418,-3.3418,-3.3418,-3.3418,-3.3418,-3.3379,-3.334,-3.334,-3.3281,-3.3262,-3.3262,-3.3262,-3.3262,-3.3262,-3.3262,-3.3105,-3.2734,-3.2656,-3.2461,-3.2109,-3.2031,-3.1992,-3.1992,-3.1992,-3.1992,-3.1992,-3.1269,-3.0898,-3.0898,-3.0898,-3.0762,-3.045,-3.0157,-2.9863,-1.9026,-2.2519,-2.5732,-2.8223,-2.9219,-2.9726,-3.0351,-3.0703,-3.0898,-3.0898,-3.0898,-3.0898,-3.0898,-3.0898,-3.0898,-3.0898,-3.0898,-3.0898,-3.0898,-3.0898,-3.0898,-3.0898,-3.0898,-3.0898,-3.0898,-3.0898,-3.0898,-3.0898,-3.0898,-3.0898,-3.0898,-3.0898,-3.0898,-3.0898,-3.0898,-3.0976,-3.1172,-3.1172,-3.1601,-3.2461,-3.3105,-3.3418,-3.3418,-3.3418,-3.3418,-3.3418,-3.3418,-3.3418,-3.3418,-3.3418,-3.3418,-3.3418,-3.3418,-3.3418,-3.3418,-3.3418,-3.3418,-3.3418,-3.3418,-3.3418,-3.3418,-3.3418,-3.3418,-3.3418,-3.3418,-3.3418,-3.3418,-3.3418,-3.3418,-3.3476,-3.373,-3.3789,-3.3848,-3.4082,-3.3965,-3.3789,-3.3789,-3.3594,-3.3418,-3.3418,-3.3418,-3.3418,-3.3418,-3.3418,-3.3355,-3.3165,-3.2975,-3.2867,-3.2867,-3.2867,-3.2912,-3.3102,-3.3292,-3.3214,-3.2913,-3.2493,-3.2095,-3.1717,-3.1304,-3.1049,-3.1049,-3.1049,-3.1049,-3.1049,-3.1436,-3.1601,-3.1601,-3.1601,-3.1343,-3.0784,-3.0023,-2.9416,-1.9611,-2.2461,-2.4851,-2.707,-2.8203,-2.8926,-2.957,-3.0059,-3.0449,-3.0664,-3.0723,-3.0762,-3.0859,-3.0898,-3.0898,-3.0898,-3.0898,-3.0898,-3.0898,-3.0898,-3.0898,-3.0898,-3.0898,-3.0898,-3.0898,-3.0898,-3.0898,-3.0898,-3.0898,-3.0898,-3.0898,-3.0898,-3.0898,-3.0898,-3.0898,-3.0898,-3.0898,-3.1113,-3.1543,-3.2187,-3.3027,-3.3418,-3.3418,-3.3418,-3.3418,-3.3418,-3.3418,-3.3418,-3.3418,-3.3418,-3.3418,-3.3418,-3.3418,-3.3418,-3.3418,-3.3418,-3.3418,-3.3418,-3.3418,-3.3418,-3.3418,-3.3418,-3.3418,-3.3418,-3.3418,-3.3418,-3.3418,-3.3418,-3.3418,-3.3496,-3.3828,-3.3906,-3.3984,-3.4297,-3.4076,-3.3842,-3.3906,-3.3652,-3.3418,-3.3418,-3.3418,-3.3418,-3.3418,-3.3418,-3.3228,-3.2867,-3.2339,-3.2001,-3.1955,-3.2019,-3.2147,-3.2594,-3.3102,-3.3228,-3.2785,-3.1992,-3.1362,-3.0982,-3.0122,-2.9645,-2.9645,-2.9645,-2.9645,-2.9645,-3.0648,-3.1361,-3.168,-3.168,-3.1233,-3.0458,-2.943,-2.8619,-1.8887,-2.0684,-2.2676,-2.5187,-2.6211,-2.6875,-2.8105,-2.8711,-2.9258,-3.0059,-3.0234,-3.0371,-3.082,-3.0898,-3.0898,-3.0898,-3.0898,-3.0898,-3.0898,-3.0898,-3.0898,-3.0898,-3.0898,-3.0898,-3.0898,-3.0898,-3.0898,-3.0898,-3.0898,-3.0898,-3.0898,-3.0898,-3.0898,-3.0898,-3.0898,-3.0898,-3.0898,-3.1699,-3.219,-3.2187,-3.3027,-3.3418,-3.3418,-3.3418,-3.3418,-3.3418,-3.3418,-3.3418,-3.3418,-3.3418,-3.3418,-3.3418,-3.3418,-3.3418,-3.3418,-3.3418,-3.3418,-3.3418,-3.3418,-3.3418,-3.3418,-3.3418,-3.3418,-3.3418,-3.3418,-3.3418,-3.3418,-3.3418,-3.3418,-3.3437,-3.3457,-3.3457,-3.3457,-3.3476,-3.3223,-3.3077,-3.3394,-3.3437,-3.3418,-3.3418,-3.3418,-3.3418,-3.3418,-3.3418,-3.3165,-3.2549,-3.1534,-3.0854,-3.0908,-3.0872,-3.1176,-3.1873,-3.2848,-3.3102,-3.2485,-3.1433,-3.056,-2.9947,-2.8852,-2.8311,-2.8311,-2.8311,-2.8311,-2.8311,-2.8377,-2.903,-3.0247,-3.0247,-2.9671,-2.8717,-2.7946,-2.706,-1.6926,-1.8727,-2.0644,-2.236,-2.3939,-2.5391,-2.6426,-2.7617,-2.875,-2.9629,-3.0,-3.0332,-3.0801,-3.0898,-3.0898,-3.0898,-3.0898,-3.0898,-3.0898,-3.0898,-3.0898,-3.0898,-3.0898,-3.0898,-3.0898,-3.0898,-3.0898,-3.0898,-3.0898,-3.0898,-3.0898,-3.0898,-3.0898,-3.0898,-3.0898,-3.0898,-3.0898,-3.1738,-3.2229,-3.2187,-3.3027,-3.3418,-3.3418,-3.3418,-3.3418,-3.3418,-3.3418,-3.3418,-3.3418,-3.3418,-3.3418,-3.3418,-3.3418,-3.3418,-3.3418,-3.3418,-3.3418,-3.3418,-3.3418,-3.3418,-3.3418,-3.3418,-3.3418,-3.3418,-3.3418,-3.3418,-3.3418,-3.3418,-3.3418,-3.3496,-3.3769,-3.3848,-3.372,-3.3335,-3.273,-3.2103,-3.1502,-3.1718,-3.2147,-3.2147,-3.2147,-3.2147,-3.2147,-3.2147,-3.1827,-3.0861,-2.9965,-2.9361,-2.9134,-2.9313,-2.9752,-3.0455,-3.1488,-3.1763,-3.0797,-2.9965,-2.91,-2.8213,-2.7352,-2.6886,-2.6886,-2.6886,-2.6886,-2.6886,-2.6886,-2.7538,-2.8901,-2.8901,-2.8449,-2.7605,-2.6674,-2.5784,-1.5909,-1.7357,-1.8926,-2.004,-2.16,-2.3179,-2.4348,-2.5859,-2.7363,-2.8726,-2.9258,-2.9746,-3.0332,-3.0566,-3.0703,-3.0859,-3.0898,-3.0898,-3.0898,-3.0898,-3.0898,-3.0898,-3.0898,-3.0898,-3.0898,-3.0898,-3.0898,-3.0898,-3.0898,0.0,-3.0898,-3.0898,-3.0898,-3.0898,-3.0898,-3.0898,-3.0898,-3.1738,-3.2229,-3.2187,-3.3027,-3.3418,-3.3418,-3.3418,-3.3418,-3.3418,-3.3418,-3.3418,-3.3418,-3.3418,-3.3418,-3.3418,-3.3418,-3.3418,-3.3418,-3.3418,-3.3418,-3.3418,-3.3418,-3.3418,-3.3418,-3.3418,-3.3292,-3.3228,-3.3102,-3.3038,-3.3038,-3.3038,-3.3165,-3.3306,-3.3769,-3.372,-3.327,-3.2366,-3.1486,-3.0516,-2.941,-2.9955,-3.0548,-3.0548,-3.0548,-3.0548,-3.0548,-3.0548,-3.0285,-2.9376,-2.8476,-2.7874,-2.7621,-2.7807,-2.8209,-2.8977,-2.9972,-3.0219,-2.9309,-2.841,-2.7554,-2.6639,-2.5838,-2.5359,-2.5359,-2.5359,-2.5301,-2.513,-2.5198,-2.5599,-2.6439,-2.7121,-2.7137,-2.6404,-2.5532,-2.4738,0.0,0.0,0.0,-1.8286,-1.9143,-2.0293,-2.2012,-2.3418,-2.498,-2.7219,-2.7969,-2.8535,-2.947,-2.9902,-3.0332,-3.0801,-3.0879,-3.0898,-3.0898,-3.0898,-3.0898,-3.0898,-3.0898,-3.0898,-3.0898,-3.0898,-3.0898,-3.0898,-3.0898,-3.0898,-3.0898,-3.0898,-3.0898,-3.0898,-3.0898,-3.0898,-3.0898,-3.1738,-3.2168,-3.2187,-3.3027,-3.3355,-3.3355,-3.3355,-3.3355,-3.3355,-3.3355,-3.3355,-3.3355,-3.3355,-3.3418,-3.3418,-3.3418,-3.3418,-3.3418,-3.3418,-3.3418,-3.3418,-3.3418,-3.3418,-3.3418,-3.3418,-3.3165,-3.2804,-3.2485,-3.2358,-3.2358,-3.2358,-3.2613,-3.2912,-3.3292,-3.2848,-3.2019,-3.0584,-2.9395,-2.8345,-2.7368,-2.8032,-2.891,-2.8946,-2.8963,-2.8963,-2.8963,-2.8963,-2.8688,-2.8016,-2.7046,-2.6364,-2.6309,-2.6364,-2.6643,-2.7354,-2.8361,-2.8688,-2.8016,-2.6976,-2.6099,-2.544,-2.4394,-2.3768,-2.3768,-2.3768,-2.3634,-2.334,-2.3327,-2.318,-2.2928,-2.4955,-2.5644,-2.4902,-2.4563,-2.3884,-1.4518,0.0,0.0,0.0,0.0,0.0,-1.9416,-2.1385,-2.3652,-2.582,-2.7109,-2.8203,-2.9411,-2.9668,-2.9883,-3.0312,-3.0664,-3.0898,-3.0898,-3.0898,-3.0898,-3.0898,-3.0898,-3.0898,-3.0898,-3.0898,-3.0898,0.0,-3.0898,-3.0898,-3.0898,-3.0898,-3.0898,-3.0898,-3.0898,-3.0898,-3.0898,-3.1738,-3.2046,-3.1742,-3.2401,-3.253,-3.232,-3.2083,-3.1955,-3.1955,-3.1955,-3.1955,-3.2019,-3.2975,-3.3418,-3.3418,-3.3418,-3.3418,-3.3418,-3.3418,-3.3418,-3.3418,-3.3418,-3.3418,-3.3418,-3.3418,-3.2975,-3.2403,-3.1515,-3.1212,-3.123,-3.1258,-3.1662,-3.2275,-3.2594,-3.1982,-3.0872,-2.9509,-2.7913,-2.6488,-2.5701,-2.5522,-2.5825,-2.6955,-2.7392,-2.7563,-2.7563,-2.7563,-2.73,-2.6604,-2.6058,-2.5567,-2.5285,-2.5496,-2.5848,-2.6269,-2.7092,-2.7285,-2.6534,-2.5974,-2.5356,-2.4677,-2.4123,-2.3768,-2.3768,-2.3768,-2.3634,-2.334,-2.3327,-2.318,-2.2928,-2.3475,-2.3679,-2.3475,-2.3406,-2.3201,-1.4588,-1.4923,-1.5085,-1.4914,0.0,0.0,-1.7751,-1.9488,-2.1549,-2.3648,-2.4995,-2.6085,-2.7175,-2.7519,-2.7711,-2.794,-2.8495,-2.9391,-3.0704,-3.0898,-3.0898,-3.0898,-3.0898,-3.0898,-3.0898,-3.0898,-3.0898,-3.0898,-3.0898,-3.0898,-3.0898,-3.0898,-3.0898,-3.0898,-3.0898,-3.0898,-3.0898,-3.1738,-3.1905,-3.1417,-3.1608,-3.1469,-3.1019,-3.0372,-3.003,-3.003,-3.003,-3.003,-3.0113,-3.0936,-3.179,-3.2594,-3.2594,-3.2594,-3.2594,-3.2594,-3.2594,-3.2594,-3.2594,-3.2594,-3.2594,-3.2594,-3.2019,-3.1102,-3.0207,-2.9835,-2.9722,-2.9882,-3.0807,-3.1635,-3.1377,-3.0631,-2.954,-2.7998,-2.6491,-2.5149,-2.4424,-2.4063,-2.4151,-2.5298,-2.5825,-2.597,-2.597,-2.597,-2.5827,-2.5411,-2.5196,-2.498,-2.4751,-2.4908,-2.5124,-2.5339,-2.5755,-2.5827,-2.5411,-2.5196,-2.4908,-2.4417,-2.4273,-2.4128,-2.4128,-2.4128,-2.3995,-2.3701,-2.3688,-2.3541,-2.3233,-2.2979,-2.2928,-2.2928,-2.2928,-2.2928,-1.5367,-1.5461,-1.5353,-1.4957,-1.5183,0.0,-1.6421,-1.7588,-1.9012,-2.0998,-2.2061,-2.2887,-2.3712,-2.4134,-2.439,-2.4427,-2.5124,-2.6768,-3.0006,-3.0529,-3.0568,-3.0626,-3.0684,-3.0645,-3.0704,-3.0704,-3.0665,-3.0704,-3.0704,-3.0704,-3.0704,-3.0704,-3.0704,-3.0704,-3.0704,-3.0704,-3.0704,-3.1558,-3.16,-3.0846,-3.0665,-3.0207,-2.9509,-2.8443,-2.7982,-2.7982,-2.7982,-2.7982,-2.7982,-2.7982,-2.9182,-3.1037,-3.1037,-3.1037,-3.1037,-3.1037,-3.1037,-3.1037,-3.1037,-3.1037,-3.1037,-3.1037,-3.0325,-2.9347,-2.8592,-2.8131,-2.8015,-2.8394,-2.9705,-3.0779,-2.9805,-2.892,-2.7916,-2.6301,-2.5105,-2.4156,-2.3475,-2.3307,-2.3487,-2.4008,-2.4342,-2.4543,-2.4543,-2.4543,-2.4543,-2.4543,-2.4569,-2.4596,-2.4596,-2.4609,-2.4636,-2.4636,-2.4636,-2.4636,-2.4636,-2.4636,-2.4636,-2.4636,-2.4636,-2.4636,-2.4636,-2.4636,-2.4502,-2.4209,-2.4168,-2.4022,-2.3768,-2.322,-2.3035,-2.3035,-2.3035,-2.3035,-1.4817,-1.4777,-1.4462,-1.4032,-1.4098,0.0,-1.4127,-1.5307,-1.6744,-1.7951,-1.9071,-2.0043,-2.0944,-2.1136,-2.1293,-2.1637,-2.2209,-2.3801,-2.7085,-2.7995,-2.8539,-2.9051,-2.9145,-2.9279,-2.9584,-2.9371,-2.9271,-2.9372,-2.939,-2.939,-2.939,-2.939,-2.939,-2.939,-2.939,-2.939,-2.939,-3.019,-3.0087,-2.9092,-2.9082,-2.8657,-2.7684,-2.6886,-2.6501,-2.6501,-2.6501,-2.6501,-2.6501,-2.6501,-2.7403,-2.8838,-2.8838,-2.8838,-2.8838,-2.8838,-2.8838,-2.8838,-2.8838,-2.8838,-2.8838,-2.8838,-2.8312,-2.7453,-2.6455,-2.6136,-2.6218,-2.6804,-2.7916,-2.8641,-2.785,-2.6839,-2.592,-2.5022,-2.402,-2.3133,-2.2996,-2.3182,-2.3354,-2.3474,-2.3741,-2.3941,-2.3941,-2.3941,-2.3941,-2.3941,-2.4142,-2.4289,-2.4289,-2.4489,-2.4636,-2.4636,-2.4636,-2.4636,-2.4636,-2.4636,-2.4636,-2.4636,-2.4636,-2.4636,-2.4636,-2.4636,-2.4502,-2.4209,-2.3968,-2.3834,-2.3768,-2.3647,-2.3594,-2.3594,-2.3594,-2.3594,-1.5188,-1.5093,-1.4704,-1.417,0.0,0.0,0.0,-1.4236,-1.5209,-1.6086,-1.6838,-1.753,-1.8196,-1.8294,-1.8343,-1.8567,-1.9118,-2.0239,-2.2247,-2.4774,-2.6827,-2.7881,-2.8031,-2.8197,-2.8529,-2.8159,-2.7776,-2.7512,-2.7469,-2.7469,-2.7469,-2.7469,-2.7469,-2.7469,-2.7469,-2.7574,-2.7687,-2.834,-2.8283,-2.7516,-2.7261,-2.6671,-2.5831,-2.4887,-2.4481,-2.4481,-2.4481,-2.4481,-2.4481,-2.4481,-2.494,-2.5651,-2.6737,-2.7137,-2.7137,-2.7137,-2.7137,-2.7137,-2.7137,-2.7137,-2.7137,-2.7137,-2.6671,-2.595,-2.521,-2.5022,-2.5202,-2.5824,-2.6666,-2.7237,-2.6663,-2.5957,-2.5284,-2.4552,-2.3872,-2.3313,-2.3313,-2.3434,-2.3554,-2.3554,-2.3674,-2.3768,-2.3768,-2.3768,-2.3768,-2.3768,-2.4022,-2.4209,-2.4209,-2.4449,-2.4636,-2.4636,-2.4636,-2.4636,-2.4636,-2.4636,-2.4636,-2.4636,-2.4636,-2.4636,-2.4636,-2.4636,-2.4569,-2.4422,-2.4275,-2.4209,-2.4209,-2.4209,-2.4048,-2.3768,-2.3768,-2.3768,-1.557,-1.5374,-1.4988,-1.4412,0.0,-1.3608,0.0,0.0,0.0,-1.4441,-1.4841,-1.5142,-1.5453,-1.5539,-1.5539,-1.5539,-1.6073,-1.6737,-1.7417,-2.0848,-2.4078,-2.6091,-2.6379,-2.6611,-2.7,-2.6464,-2.5873,-2.5316,-2.5337,-2.537,-2.537,-2.5501,-2.5521,-2.5521,-2.5587,-2.5737,-2.6015,-2.6467,-2.652,-2.609,-2.5568,-2.494,-2.4224,-2.3338,-2.2928,-2.2928,-2.2928,-2.2928,-2.2928,-2.2928,-2.2928,-2.3065,-2.482,-2.5495,-2.5495,-2.5495,-2.5495,-2.5495,-2.5495,-2.5495,-2.5495,-2.5495,-2.509,-2.4563,-2.4292,-2.4156,-2.4295,-2.4882,-2.5451,-2.5786,-2.5565,-2.5299,-2.496,-2.4337,-2.3981,-2.3768,-2.3768,-2.3768,-2.3768,-2.3768,-2.3768,-2.3768,-2.3768,-2.3768,-2.3768,-2.3768,-2.4022,-2.4209,-2.4209,-2.4449,-2.4636,-2.4636,-2.4636,-2.4636,-2.4636,-2.4636,-2.4636,-2.4636,-2.4636,-2.4636,-2.4636,-2.4636,-2.4636,-2.4636,-2.4636,-2.4636,-2.4636,-2.4636,-2.4396,-2.3941,-2.3941,-2.3941,0.0,0.0,0.0,0.0,-1.3316,0.0,0.0,0.0,-1.2471,-1.2303,0.0,-1.2675,-1.2753,0.0,0.0,-1.2753,-1.3285,-1.3899,-1.4499,-1.5931,-1.8394,-2.2418,-2.2909,-2.3294,-2.4166,-2.3642,-2.3095,-2.2772,-2.2979,-2.315,-2.315,-2.359,-2.3854,-2.3854,-2.4147,-2.4424,-2.4715,-2.5101,-2.513,-2.4753,-2.4675,-2.4224,-2.3543,-2.3065,-2.2928,-2.2928,-2.2928,-2.2928,-2.2928,-2.2928,-2.2928,-2.2928,-2.3201,-2.327,-2.327,-2.327,-2.327,-2.327,-2.327,-2.327,-2.327,-2.327,-2.3201,-2.3133,-2.3065,-2.3065,-2.3132,-2.3442,-2.3606,-2.3744,-2.3971,-2.3981,-2.3981,-2.391,-2.3839,-2.3768,-2.3768,-2.3768,-2.3768,-2.3768,-2.3768,-2.3768,-2.3768,-2.3768,-2.3768,-2.3768,-2.4022,-2.4209,-2.4209,-2.4449,-2.4636,-2.4636,-2.4636,-2.4636,-2.4636,-2.4636,-2.4636,-2.4636,-2.4636,-2.4636,-2.4636,-2.4636,-2.4636,-2.4636,-2.4636,-2.4636,-2.4636,-2.4636,-2.4609,-2.4543,-2.4543,-2.4543,0.0,0.0,0.0,0.0,0.0,0.0,-1.2291,0.0,-1.2318,0.0,0.0,0.0,0.0,0.0,0.0,0.0,-1.2811,0.0,-1.352,-1.4296,-1.6082,-1.9479,0.0,0.0,-2.1163,-2.0832,-2.0402,-2.0145,-2.0359,-2.0615,-2.08,-2.1509,-2.1935,-2.1935,-2.2185,-2.2582,-2.3026,-2.3219,-2.3398,-2.3553,-2.3556,-2.3406,-2.3133,-2.2928,-2.2928,-2.2928,-2.2928,-2.2928,-2.2928,-2.2928,-2.2928,-2.2928,-2.2928,-2.2928,-2.2928,-2.2928,-2.2928,-2.2928,-2.2928,-2.2928,-2.2954,-2.3073,-2.3126,-2.3166,-2.334,-2.3394,-2.3447,-2.3754,-2.3834,-2.3901,-2.4195,-2.4275,-2.4275,-2.4275,-2.4275,-2.4275,-2.4275,-2.4275,-2.4275,-2.4275,-2.4275,-2.4275,-2.4275,-2.3995,-2.3768,-2.3768,-2.4022,-2.4209,-2.4209,-2.4449,-2.4636,-2.4636,-2.4636,-2.4636,-2.4636,-2.4636,-2.4636,-2.4636,-2.4636,-2.4636,-2.4636,-2.4636,-2.4636,-2.4636,-2.4636,-2.4636,-2.4636,-2.4636,-2.4636,-2.4636,-2.4636,-2.4636,-1.6927,0.0,0.0,0.0,0.0,0.0,0.0,0.0,0.0,0.0,0.0,0.0,0.0,0.0,0.0,0.0,0.0,-1.2717,0.0,-1.3236,-1.4474,0.0,0.0,0.0,0.0,-1.8441,-1.8237,-1.8023,-1.8277,-1.8597,-1.8985,-1.992,-2.0468,-2.0548,-2.0922,-2.1349,-2.1857,-2.1951,-2.2245,-2.2739,-2.2887,-2.2928,-2.2928,-2.2928,-2.2928,-2.2928,-2.2928,-2.2928,-2.2928,-2.2928,-2.2928,-2.2928,-2.2928,-2.2928,-2.2928,-2.2928,-2.2928,-2.2928,-2.2928,-2.2928,-2.2913,-2.322,-2.3327,-2.338,-2.3688,-2.3768,-2.3834,-2.4115,-2.4209,-2.4275,-2.4556,-2.4636,-2.4636,-2.4636,-2.4636,-2.4636,-2.4636,-2.4636,-2.4636,-2.4636,-2.4636,-2.4636,-2.4636,-2.4289,-2.4008,-2.4008,-2.4182,-2.4329,-2.4329,-2.4502,-2.4636,-2.4636,-2.4636,-2.4636,-2.4636,-2.4636,-2.4636,-2.4636,-2.4636,-2.4636,-2.4636,-2.4636,-2.4636,-2.4636,-2.4636,-2.4636,-2.4636,-2.4636,-2.4636,-2.4636,-2.4636,-2.4636,0.0,0.0,0.0,-1.4816,0.0,0.0,0.0,0.0,-1.277,0.0,0.0,0.0,0.0,0.0,0.0,0.0,0.0,0.0,0.0,0.0,-1.3092,0.0,0.0,0.0,0.0,-1.6806,-1.6767,0.0,-1.7085,-1.7462,-1.8009,-1.9199,-1.996,-2.0241,-2.0802,-2.1256,-2.1628,-2.1844,-2.2138,-2.2432,-2.2726,-2.2928,-2.2928,-2.2928,-2.2928,-2.2928,-2.2928,-2.2928,-2.2928,-2.2928,-2.2928,-2.2928,-2.2928,-2.2928,-2.2928,-2.2928,-2.2928,-2.2928,-2.2928,-2.2928,-2.2913,-2.322,-2.3327,-2.338,-2.3688,-2.3768,-2.3834,-2.4115,-2.4209,-2.4275,-2.4556,-2.4636,-2.4636,-2.4636,-2.4636,-2.4636,-2.4636,-2.4636,-2.4636,-2.4636,-2.4636,-2.4636,-2.4636,-2.4623,-2.4609,-2.4609,-2.4609,-2.4623,-2.4623,-2.4549,-2.4636,-2.4636,-2.4636,-2.4636,-2.4636,-2.4636,-2.4636,-2.4636,-2.4636,-2.4636,-2.4636,-2.4636,-2.4636,-2.4636,-2.4636,-2.4636,-2.4636,-2.4636,-2.4636,-2.4636,-2.4636,-2.4636,0.0,0.0,-1.7502,-1.6513,0.0,0.0,0.0,0.0,0.0,0.0,0.0,0.0,0.0,0.0,0.0,0.0,0.0,0.0,0.0,0.0,0.0,0.0,-1.4489,-1.51,0.0,0.0,0.0,-1.5845,-1.6112,-1.662,-1.7408,-1.8758,-1.9639,-1.9933,-2.0695,-2.1256,-2.1614,-2.1722,-2.1937,-2.2418,-2.2525,-2.2672,-2.2928,-2.2928,-2.2928,-2.2928,-2.2928,-2.2928,-2.2928,-2.2928,-2.2928,-2.2928,-2.2928,-2.2928,-2.2928,-2.2928,-2.2928,-2.2954,-2.31,-2.33,-2.3514,-2.3808,-2.3915,-2.3968,-2.4249,-2.4342,-2.4369,-2.4462,-2.4489,-2.4516,-2.4609,-2.4636,-2.4636,-2.4636,-2.4636,-2.4636,-2.4636,-2.4636,-2.4636,-2.4636,-2.4636,-2.4636,-2.4636,-2.4636,-2.4636,-2.4636,-2.4636,-2.4636,-2.4636,-2.4636,-2.4636,-2.4636,-2.4636,-2.4636,-2.4636,-2.4636,-2.4636,-2.4636,-2.4636,-2.4636,-2.4636,-2.4636,-2.4636,-2.4636,-2.4636,-2.4636,-2.4636,-2.4636,-2.4636,-2.4636,-2.4636,-2.4636,-1.976,-1.9319,0.0,-1.7903,-1.7034,0.0,-1.4977,0.0,-1.4763,0.0,0.0,0.0,0.0,0.0,0.0,0.0,0.0,0.0,0.0,-1.2118,0.0,0.0,-1.3293,-1.3895,-1.4133,-1.4643,-1.4977,-1.507,-1.5351,-1.5952,0.0,-1.8303,-1.9279,-1.9786,-2.0655,-2.1203,-2.139,-2.1561,-2.179,-2.2271,-2.2365,-2.2579,-2.2928,-2.2928,-2.2928,-2.2928,-2.2928,-2.2928,-2.2928,-2.2928,-2.2928,-2.2928,-2.2928,-2.2928,-2.2928,-2.2928,-2.2939,-2.3073,-2.338,-2.3607,-2.3821,-2.4115,-2.4209,-2.4262,-2.4556,-2.4636,-2.4636,-2.4636,-2.4636,-2.4636,-2.4636,-2.4636,-2.4636,-2.4636,-2.4636,-2.4636,-2.4636,-2.4636,-2.4636,-2.4636,-2.4636,-2.4636,-2.4636,-2.4636,-2.4636,-2.4636,-2.4636,-2.4636,-2.4636,-2.4636,-2.4636,-2.4636,-2.4636,-2.4636,-2.4636,-2.4636,-2.4636,-2.4636,-2.4636,-2.4636,-2.4636,-2.4636,-2.4636,-2.4636,-2.4636,-2.4636,-2.4636,-2.4636,-2.4636,-2.4636,-2.4636,-2.4636]},{"header":{"parameterUnit":"m.s-1","parameterCategory":1,"la1":30.6,"la2":29.2853,"lo1":-89.7004,"lo2":-87.6739,"dy":0.0162,"dx":0.0183,"nx":112,"ny":82,"refTime":"2026-04-08T12:00:00:Z","depth":0,"parameterNumber":3,"parameterNumberName":"V-component_of_WINDS"},"data":[0.0,0.0,0.0,0.0,0.0,0.0,0.0,0.0,0.0,0.0,0.0,0.0,0.0,0.0,0.0,0.0,0.0,0.0,0.0,0.0,0.0,0.0,0.0,0.0,0.0,0.0,0.0,0.0,0.0,0.0,0.0,0.0,0.0,0.0,0.0,0.0,0.0,0.0,0.0,0.0,0.0,0.0,0.0,0.0,0.0,0.0,0.0,0.0,0.0,0.0,0.0,0.0,0.0,0.0,0.0,0.0,0.0,0.0,0.0,0.0,0.0,0.0,0.0,0.0,0.0,0.0,0.0,0.0,0.0,0.0,0.0,0.0,0.0,0.0,0.0,0.0,0.0,0.0,0.0,0.0,0.0,0.0,0.0,0.0,0.0,0.0,0.0,0.0,0.0,0.0,0.9924,1.1176,1.2005,1.2113,1.12,1.0752,1.0052,0.8988,0.0,0.0,0.0,0.0,0.0,0.0,0.0,0.0,0.0,0.0,0.0,0.0,0.0,0.0,0.0,0.0,0.0,0.0,0.0,0.0,0.0,0.0,0.0,0.0,0.0,0.0,0.0,0.0,0.0,0.0,0.0,0.0,0.0,0.0,0.0,0.0,0.0,0.0,0.0,0.0,0.0,0.0,0.0,0.0,0.0,0.0,0.0,0.0,0.0,0.0,0.0,0.0,0.0,0.0,0.0,0.0,0.0,0.0,0.0,0.0,0.0,0.0,0.0,0.0,0.0,0.0,0.0,0.0,0.0,0.0,0.0,0.0,0.0,0.0,0.0,0.0,0.0,0.0,0.0,0.0,0.0,0.0,0.0,0.0,0.0,0.0,0.0,0.0,0.0,0.0,0.0,0.0,0.0,0.0,0.0,0.0,0.0,0.0,0.0,0.0,0.0,0.0,0.0,0.0,1.0351,1.239,1.3059,1.313,1.2638,1.1866,1.0856,0.9555,0.0,0.0,0.0,0.0,0.0,0.0,0.0,0.0,0.0,0.0,0.0,0.0,0.0,0.0,0.0,0.0,0.0,0.0,0.0,0.0,0.0,0.0,0.0,0.0,0.0,0.0,0.0,0.0,0.0,0.0,0.0,0.0,0.0,0.0,0.0,0.0,0.0,0.0,0.0,0.0,0.0,0.0,0.0,0.0,0.0,0.0,0.0,0.0,0.0,0.0,0.0,0.0,0.0,0.0,0.0,0.0,0.0,0.0,0.0,0.0,0.0,0.0,0.0,0.0,0.0,0.0,0.0,0.0,0.0,0.0,0.0,0.0,0.0,0.0,0.0,0.0,0.0,0.0,0.0,0.0,0.0,0.0,0.0,0.0,0.0,0.0,0.0,0.0,0.0,0.0,0.0,0.0,0.0,0.0,0.0,0.0,0.0,0.0,0.0,0.0,0.0,0.0,0.0,1.0332,1.1855,1.3086,1.3594,1.3471,1.2598,1.1956,1.0939,0.9377,0.811,0.0,0.0,0.0,0.0,0.0,0.0,0.0,0.0,0.0,0.0,0.0,0.0,0.0,0.0,0.0,0.0,0.0,0.0,0.0,0.0,0.0,0.0,0.0,0.0,0.0,0.0,0.0,0.0,0.0,0.0,0.0,0.0,0.0,0.0,0.0,0.0,0.0,0.0,0.0,0.0,0.0,0.0,0.0,0.0,0.0,0.0,0.0,0.0,0.0,0.0,0.0,0.0,0.0,0.0,0.0,0.0,0.0,0.0,0.0,0.0,0.0,0.0,0.0,0.0,0.0,0.0,0.0,0.0,0.0,0.0,0.0,0.0,0.0,0.0,0.0,0.0,0.0,0.0,0.0,0.0,0.0,0.0,0.0,0.0,0.0,0.0,0.0,0.0,0.0,0.0,0.0,0.0,0.0,0.0,0.0,0.0,0.0,0.0,0.0,0.0,0.0,0.0,1.1819,1.3086,1.3594,1.3919,1.3685,1.2593,1.1836,1.0782,0.9238,0.8149,0.0,0.0,0.0,0.0,0.0,0.0,0.0,0.0,0.0,0.0,0.0,0.0,0.0,0.0,0.0,0.0,0.0,0.0,0.0,0.0,0.0,0.0,0.0,0.0,0.0,0.0,0.0,0.0,0.0,0.0,0.0,0.0,0.0,0.0,0.0,0.0,0.0,0.0,0.0,0.0,0.0,0.0,0.0,0.0,0.0,0.0,0.0,0.0,0.0,0.0,0.0,0.0,0.0,0.0,0.0,0.0,0.0,0.0,0.0,0.0,0.0,0.0,0.0,0.0,0.0,0.0,0.0,0.0,0.0,0.0,0.0,0.0,0.0,0.0,0.0,0.0,0.0,0.0,0.0,0.0,0.0,0.0,0.0,0.0,0.0,0.0,0.0,0.0,0.0,0.0,0.0,0.0,0.0,0.0,0.0,0.0,0.0,0.0,0.0,0.0,0.0,0.0,1.1819,1.3203,1.3977,1.4094,1.3919,1.3457,1.1895,1.0546,0.963,0.8032,0.0,0.0,0.0,0.0,0.0,0.0,0.0,0.0,0.0,0.0,0.0,0.0,0.0,0.0,0.0,0.0,0.0,0.0,0.0,0.0,0.0,0.0,0.0,0.0,0.0,0.0,0.0,0.0,0.0,0.0,0.0,0.0,0.0,0.0,0.0,0.0,0.0,0.0,0.0,0.0,0.0,0.0,0.0,0.0,0.0,0.0,0.0,0.0,0.0,0.0,0.0,0.0,0.0,0.0,0.0,0.0,0.0,0.0,0.0,0.0,0.0,0.0,0.0,0.0,0.0,0.0,0.0,0.0,0.0,0.0,0.0,0.0,0.0,0.0,0.0,0.0,0.0,0.0,0.0,0.0,0.0,0.0,0.0,0.0,0.0,0.0,0.0,0.0,0.0,0.0,0.0,0.0,0.0,0.0,0.0,0.0,0.0,0.0,0.0,0.0,0.0,0.0,1.1861,1.3203,1.4016,1.4114,1.3848,1.3239,1.217,1.0944,0.9564,0.0,0.0,0.0,0.0,0.0,0.0,0.0,0.0,0.0,0.0,0.0,0.0,0.0,0.0,0.0,0.0,0.0,0.0,0.0,0.0,0.0,0.0,0.0,0.0,0.0,0.0,0.0,0.0,0.0,0.0,0.0,0.0,0.0,0.0,0.0,0.0,0.0,0.0,0.0,0.0,0.0,0.0,0.0,0.0,0.0,0.0,0.0,0.0,0.0,0.0,0.0,0.0,0.0,0.0,0.0,0.0,0.0,0.0,0.0,0.0,0.0,0.0,0.0,0.0,0.0,0.0,0.0,0.0,0.0,0.0,0.0,0.0,0.0,0.0,0.0,0.0,0.0,0.0,0.0,0.0,0.0,0.0,0.0,0.0,0.0,0.0,0.0,0.0,0.0,0.0,0.0,0.0,0.0,0.0,0.0,0.0,0.0,0.0,0.0,0.0,0.0,0.0,1.0627,1.2158,1.3398,1.4231,1.4192,1.3815,1.3125,1.2313,1.1185,0.9646,0.0,0.0,0.0,0.0,0.0,0.0,0.0,0.0,0.0,0.0,0.0,0.0,0.0,0.0,0.0,0.0,0.0,0.0,0.0,0.0,0.0,0.0,0.0,0.0,0.0,0.0,0.0,0.0,0.0,0.0,0.0,0.0,0.0,0.0,0.0,0.0,0.0,0.0,0.0,0.0,0.0,0.0,0.0,0.0,0.0,0.0,0.0,0.0,0.0,0.0,0.0,0.0,0.0,0.0,0.0,0.0,0.0,0.0,0.0,0.0,0.0,0.0,0.0,0.0,0.0,0.0,0.0,0.0,0.0,0.0,0.0,0.0,0.0,0.0,0.0,0.0,0.0,0.0,0.0,0.0,0.0,0.0,0.0,0.0,0.0,0.0,0.0,0.0,0.0,0.0,0.0,0.0,0.0,0.0,0.0,0.0,0.0,0.0,0.0,0.0,0.0,0.0,1.1628,1.2859,1.3828,1.4715,1.4394,1.3867,1.3266,1.2293,1.12,0.0,0.0,0.0,0.0,0.0,0.0,0.0,0.0,0.0,0.0,0.0,0.0,0.0,0.0,0.0,0.0,0.0,0.0,0.0,0.0,0.0,0.0,0.0,0.0,0.0,0.0,0.0,0.0,0.0,0.0,0.0,0.0,0.0,0.0,0.0,0.0,0.0,0.0,0.0,0.0,0.0,0.0,0.0,0.0,0.0,0.0,0.0,0.0,0.0,0.0,0.0,0.0,0.0,0.0,0.0,0.0,0.0,0.0,0.0,0.0,0.0,0.0,0.0,0.0,0.0,0.0,0.0,0.0,0.0,0.0,0.0,0.0,0.0,0.0,0.0,0.0,0.0,0.0,0.0,0.0,0.0,0.0,0.0,0.0,0.0,0.0,0.0,0.0,0.0,0.0,0.0,0.0,0.0,0.0,0.0,0.0,0.0,0.0,0.0,0.0,0.0,0.0,0.0,1.2193,1.3408,1.4425,1.5328,1.5015,1.4486,1.3894,1.3086,1.1968,1.0418,0.0,0.0,0.0,0.0,0.0,0.0,0.0,0.0,0.0,0.0,0.0,0.0,0.0,0.0,0.0,0.0,0.0,0.0,0.0,0.0,0.0,0.0,0.0,0.0,0.0,0.0,0.0,0.0,0.0,0.0,0.0,0.0,0.0,0.0,0.0,0.0,0.0,0.0,0.0,0.0,0.0,0.0,0.0,0.0,0.0,0.0,0.0,0.0,0.0,0.0,0.0,0.0,0.0,0.0,0.0,0.0,0.0,0.0,0.0,0.0,0.0,0.0,0.0,0.0,0.0,0.0,0.0,0.0,0.0,0.0,0.0,0.0,0.0,0.0,0.0,0.0,0.0,0.0,0.0,0.0,0.0,0.0,0.0,0.0,0.0,0.0,0.0,0.0,0.0,0.0,0.0,0.0,0.0,0.0,0.0,0.0,0.0,0.0,0.0,0.0,0.0,0.0,1.3298,1.4473,1.5356,1.6058,1.5737,1.511,1.4222,1.3691,1.2643,1.0836,0.0,0.0,0.0,0.0,0.0,0.0,0.0,0.0,0.0,0.0,0.0,0.0,0.0,0.0,0.0,0.0,0.0,0.0,0.0,0.0,0.0,0.0,0.0,0.0,0.0,0.0,0.0,0.0,0.0,0.0,0.0,0.0,0.0,0.0,0.0,0.0,0.0,0.0,0.0,0.0,0.0,0.0,0.0,0.0,0.0,0.0,0.0,0.0,0.0,0.0,0.0,0.0,0.0,0.0,0.0,0.0,0.0,0.0,0.0,0.0,0.0,0.0,0.0,0.0,0.0,0.0,0.0,0.0,0.0,0.0,0.0,0.0,0.0,0.0,0.0,0.0,0.0,0.0,0.0,0.0,0.0,0.0,0.0,0.0,0.0,0.0,0.0,0.0,0.0,0.0,0.0,0.0,0.0,0.0,0.0,0.0,0.0,0.0,0.0,0.0,0.0,0.0,1.4695,1.5765,1.6429,1.6916,1.6542,1.5762,1.4514,1.4187,1.324,1.1406,0.0,0.0,0.0,0.0,0.0,0.0,0.0,0.0,0.0,0.0,0.0,0.0,0.0,0.0,0.0,0.0,0.0,0.0,0.0,0.0,0.0,0.0,0.0,0.0,0.0,0.0,0.0,0.0,0.0,0.0,0.0,0.0,0.0,0.0,0.0,0.0,0.0,0.0,0.0,0.0,0.0,0.0,0.0,0.0,0.0,0.0,0.0,0.0,0.0,0.0,0.0,0.0,0.0,0.0,0.0,0.0,0.0,0.0,0.0,0.0,1.3993,0.0,0.0,0.0,0.0,0.0,0.0,0.0,0.0,0.0,0.0,0.0,0.0,0.0,0.0,0.0,0.0,0.0,0.0,0.0,0.0,0.0,0.0,0.0,0.0,0.0,0.0,0.0,0.0,0.0,0.0,0.0,0.0,0.0,0.0,0.0,0.0,0.0,0.0,0.0,0.0,0.0,1.5201,1.6314,1.7196,1.813,1.7382,1.6642,1.6147,1.4944,1.3798,1.2736,1.131,0.0,0.0,0.0,0.0,0.0,0.0,0.0,0.0,0.0,0.0,0.0,0.0,0.0,0.0,0.0,0.0,0.0,0.0,0.0,0.0,0.0,0.0,0.0,0.0,0.0,0.0,0.0,0.0,0.0,0.0,0.0,0.0,0.0,0.0,0.0,0.0,0.0,0.0,0.0,0.0,0.0,0.0,0.0,0.0,0.0,0.0,0.0,0.0,0.0,0.0,0.0,0.0,0.0,0.0,0.0,0.0,0.0,0.0,0.0,0.0,1.5447,0.0,0.0,0.0,0.0,0.0,0.0,0.0,0.0,0.0,0.0,0.0,0.0,0.0,0.0,0.0,0.0,0.0,0.0,0.0,0.0,0.0,0.0,0.0,0.0,0.0,0.0,0.0,0.0,0.0,0.0,0.0,0.0,0.0,0.0,0.0,0.0,0.0,0.0,0.0,0.0,1.5743,1.6948,1.7897,1.8723,1.8286,1.7703,1.7037,1.5976,1.4973,1.4013,1.2422,0.0,0.0,0.0,0.0,0.0,0.0,0.0,0.0,0.0,0.0,0.0,0.0,0.0,0.0,0.0,0.0,0.0,0.0,0.0,0.0,0.0,0.0,0.0,0.0,0.0,0.0,0.0,0.0,0.0,0.0,0.0,0.0,0.0,0.0,0.0,0.0,0.0,0.0,0.0,0.0,0.0,0.0,0.0,0.0,0.0,0.0,0.0,0.0,0.0,0.0,0.0,0.0,0.0,2.2175,2.2698,2.3326,2.3226,2.3175,2.305,2.0665,1.9058,1.8102,1.7901,0.0,0.0,0.0,0.0,0.0,0.0,0.0,0.0,0.0,0.0,0.0,0.0,0.0,0.0,0.0,0.0,0.0,0.0,0.0,0.0,0.0,0.0,0.0,0.0,1.7077,1.6575,1.4745,0.0,0.0,0.0,0.0,0.0,0.0,0.0,0.0,0.0,0.0,0.0,1.6346,1.7652,1.8531,1.9083,1.9058,1.8632,1.7752,1.6948,1.612,1.5236,1.3509,1.2337,0.0,0.0,0.0,0.0,0.0,0.0,0.0,0.0,0.0,0.0,0.0,0.0,0.0,0.0,0.0,0.0,0.0,0.0,0.0,0.0,0.0,0.0,0.0,0.0,0.0,0.0,0.0,0.0,0.0,0.0,0.0,0.0,1.4456,1.4456,0.0,0.0,0.0,0.0,0.0,0.0,0.0,0.0,0.0,0.0,0.0,0.0,0.0,2.0891,2.2443,2.2518,2.3627,2.572,2.5795,2.6373,2.7318,2.6841,2.6615,2.659,2.577,0.0,2.0865,1.9886,0.0,0.0,0.0,0.0,0.0,0.0,0.0,0.0,0.0,0.0,0.0,0.0,0.0,0.0,0.0,0.0,0.0,0.0,0.0,0.0,0.0,0.0,1.8782,1.9258,1.9359,1.9284,0.0,1.7403,1.5768,1.4683,1.4381,0.0,0.0,0.0,0.0,0.0,0.0,0.0,1.7046,1.8229,1.9083,1.9635,1.9284,1.8933,1.8807,1.7378,1.6425,1.63,1.4293,1.3048,1.2998,1.1385,0.0,0.0,0.0,0.0,0.0,0.0,0.0,0.0,0.0,0.0,0.0,0.0,0.0,0.0,0.0,0.0,0.0,0.0,0.0,0.0,0.0,0.0,0.0,0.0,0.0,0.0,0.0,0.0,0.0,1.5512,1.6622,1.6342,1.6773,1.6873,0.0,0.0,0.0,0.0,0.0,0.0,0.0,0.0,0.0,2.1616,2.2523,2.3803,2.5435,2.5787,2.6892,2.88,2.88,2.9202,2.993,2.9402,2.9151,2.9126,2.8574,2.753,2.5963,2.3602,2.235,2.1845,0.0,0.0,0.0,0.0,2.0563,2.0886,2.0729,2.0449,2.0061,1.9594,0.0,0.0,0.0,0.0,0.0,0.0,0.0,0.0,0.0,0.0,2.1365,2.1591,2.1415,2.1217,2.1217,2.0213,1.8807,0.0,1.6518,1.5764,1.4104,0.0,0.0,0.0,0.0,1.5965,1.7626,1.8506,1.9208,1.9736,1.9585,1.9434,1.9434,1.8506,1.7779,1.7453,1.5948,1.477,1.4186,1.2554,1.1234,0.0,0.0,0.0,0.0,0.0,0.0,0.0,0.0,0.0,0.0,0.0,0.0,0.0,0.0,0.0,0.0,0.0,0.0,0.0,0.0,0.0,0.0,0.0,0.0,0.0,0.0,0.0,0.0,1.7448,1.8681,1.8303,1.8957,1.9183,0.0,0.0,0.0,0.0,0.0,0.0,2.1923,2.2698,2.3477,2.4148,2.5126,2.6424,2.8005,2.8747,2.9922,3.1398,3.1438,3.1716,3.2221,3.1498,3.1211,3.1225,3.0747,3.0532,3.0304,2.6987,2.5408,2.4944,2.4248,2.4177,2.4499,2.4184,2.4328,2.464,2.4202,2.3769,2.3339,2.3044,2.2007,2.0857,2.0525,0.0,0.0,0.0,0.0,2.1493,2.2322,2.315,2.3722,2.3722,2.3321,2.2924,2.2774,2.2297,2.1292,0.0,1.8529,1.77,1.604,0.0,0.0,0.0,0.0,1.6848,1.8229,1.8857,1.9359,1.9761,1.9811,1.9811,1.9811,1.9183,1.8632,1.8229,1.6873,1.5718,1.4934,1.3283,1.1936,1.0958,0.0,0.0,0.0,0.0,0.0,0.0,0.0,0.0,0.0,0.0,0.0,0.0,0.0,0.0,0.0,0.0,0.0,0.0,0.0,0.0,0.0,0.0,0.0,0.0,0.0,0.0,0.0,0.0,0.0,2.0541,2.192,0.0,0.0,0.0,0.0,2.2819,2.3452,2.4255,2.5285,2.541,2.5937,2.7042,2.7645,2.861,2.9935,3.1263,3.251,3.3623,3.3639,3.3947,3.44,3.3315,3.2859,3.3038,3.2684,3.2542,3.2306,2.9186,2.7987,2.7994,2.7124,2.7131,2.7624,2.7996,2.8398,2.8708,2.8204,2.7996,2.7774,2.6606,2.5295,2.4021,2.3182,2.2521,0.0,0.0,2.3401,2.3346,2.4983,2.5435,2.546,2.546,2.5084,2.4525,2.4029,2.3421,2.2518,0.0,2.0541,2.0013,1.8329,0.0,1.7827,1.7348,1.7727,1.8304,1.8882,1.9434,1.9786,1.9811,1.9811,1.9811,1.9811,1.8832,1.8229,1.8204,1.617,1.4959,1.4884,1.3283,1.2128,1.1565,1.0395,0.0,0.0,0.0,0.0,0.0,0.0,0.0,0.0,0.0,0.0,0.0,0.0,0.0,0.0,0.0,0.0,0.0,0.0,0.0,0.0,0.0,0.0,0.0,0.0,0.0,0.0,0.0,0.0,2.3301,2.4155,0.0,2.4714,2.4531,2.4958,2.6239,2.6866,2.7494,2.8247,2.8624,2.9001,2.9428,2.993,3.0958,3.248,3.3372,3.4402,3.5538,3.5136,3.5041,3.5234,3.4424,3.4237,3.4578,3.482,3.495,3.4829,3.338,3.2219,3.1299,3.0687,3.1039,3.1868,3.1409,3.1527,3.1804,3.0962,3.0438,2.9924,2.8921,2.7989,2.722,2.672,2.6201,2.5864,2.6278,2.6453,2.6679,2.7164,2.7429,2.7468,2.7009,2.6366,2.5636,2.4732,2.4048,2.3401,2.2447,2.2246,2.1845,2.0539,2.0313,2.0012,1.9083,1.9108,1.9309,1.951,1.9685,1.9811,1.9811,2.0137,2.0239,1.9836,1.9459,1.8781,1.7752,1.6572,1.5487,1.4425,1.3433,1.2663,1.2128,1.0983,1.0156,0.0,0.0,0.0,0.0,0.0,0.0,0.0,0.0,0.0,0.0,0.0,0.0,0.0,0.0,0.0,0.0,0.0,0.0,0.0,0.0,0.0,0.0,0.0,0.0,0.0,2.3725,2.5735,2.6297,2.7165,2.7768,2.7962,2.7678,2.7961,2.91,2.9682,3.0201,3.0659,3.1055,3.1298,3.1298,3.2051,3.3081,3.4371,3.555,3.658,3.7359,3.6887,3.6726,3.6768,3.6094,3.6047,3.6511,3.7087,3.7326,3.727,3.671,3.5945,3.5041,3.3981,3.4157,3.4927,3.4277,3.4257,3.4361,3.3226,3.2579,3.2111,3.1133,3.0718,3.0518,3.0024,2.9508,2.9134,2.9288,2.9502,2.9587,2.9521,2.9379,2.9109,2.8472,2.7551,2.6474,2.5335,2.4657,2.4104,2.3521,2.3396,2.3075,2.197,2.192,2.1669,2.0539,2.0213,2.0087,2.0087,1.9936,1.9886,2.0062,2.0465,2.0541,2.0137,1.9761,1.9007,1.775,1.6597,1.5467,1.44,1.3634,1.2964,1.2413,1.1485,1.0733,1.0169,0.0,0.0,0.0,0.0,0.0,0.0,0.0,0.0,0.0,0.0,0.0,0.0,0.0,0.0,0.0,0.0,0.0,0.0,0.0,0.0,0.0,0.0,0.0,2.5021,2.7057,2.8846,2.9478,3.1018,3.1717,3.1069,3.1242,3.1421,3.1421,3.1883,3.2286,3.246,3.2672,3.2791,3.2817,3.396,3.4895,3.5616,3.7769,3.8971,3.9169,3.8971,3.8971,3.9114,3.8337,3.8311,3.8968,3.9384,3.9545,3.9516,3.8914,3.889,3.9033,3.6903,3.6322,3.6646,3.6607,3.6537,3.6327,3.5043,3.4593,3.441,3.3411,3.355,3.3887,3.2919,3.2252,3.1924,3.2435,3.2221,3.1854,3.2036,3.1253,3.0313,2.9876,2.8543,2.7062,2.5896,2.5242,2.4714,2.4161,2.406,2.3708,2.2573,2.2819,2.2794,2.1719,2.1119,0.0,2.0717,2.0188,2.0062,2.0666,2.0742,2.0742,2.0691,1.9685,1.8807,1.8204,1.6141,1.4934,1.4884,1.3817,1.2973,1.2454,1.1902,1.1349,1.0744,0.0,0.0,0.0,0.0,0.0,0.0,0.0,0.0,0.0,0.0,0.0,0.0,0.0,0.0,0.0,0.0,0.0,0.0,0.0,0.0,0.0,2.7783,2.8973,2.7992,3.0067,3.2085,3.3129,3.4015,3.471,3.5049,3.4325,3.4012,3.4391,3.4155,3.4161,3.4459,3.4576,3.4796,3.5244,3.5571,3.644,3.7879,3.9445,4.0513,4.0998,4.0485,4.0285,4.0313,3.9589,3.9545,4.0118,4.0665,4.0897,4.0837,4.0149,3.9987,3.9906,3.8392,3.8084,3.8358,3.7988,3.7554,3.7105,3.6716,3.6596,3.6473,3.5618,3.5251,3.499,3.4177,3.3259,3.258,3.2715,3.2286,3.1768,3.1567,3.1007,3.0381,3.0024,2.9293,2.8359,2.7289,2.6582,2.6013,2.5475,2.534,2.5049,2.4243,2.4582,2.4406,2.2869,2.2518,0.0,2.1395,2.1144,2.1091,2.1242,2.1619,2.1543,2.0767,2.0415,1.9485,1.7727,1.6647,1.5693,1.4934,1.4249,1.3576,1.2998,1.2438,1.2102,0.0,0.0,0.0,0.0,0.0,0.0,0.0,0.0,0.0,0.0,0.0,0.0,0.0,0.0,0.0,0.0,0.0,0.0,0.0,0.0,0.0,0.0,3.1605,3.3225,3.3349,3.4301,3.5308,3.6231,3.687,3.7349,3.7591,3.6484,3.5884,3.6302,3.564,3.5467,3.5949,3.617,3.6525,3.7181,3.7461,3.8251,3.9743,4.0874,4.1668,4.2117,4.1639,4.1465,4.1575,4.1087,4.1113,4.1578,4.1998,4.2192,4.2162,4.1474,4.1235,0.0,0.0,0.0,0.0,0.0,3.7973,3.7404,3.7404,3.7584,3.7669,3.6939,3.6709,3.6596,3.5608,3.4643,3.386,3.3569,3.3045,3.2454,3.2101,3.1419,3.0842,3.1,3.0438,2.9709,2.9147,2.8529,2.7996,2.7436,2.727,0.0,2.6701,2.6298,2.5588,2.4101,2.3667,2.3182,2.2257,2.1896,2.1789,2.1933,2.215,2.2046,2.1418,2.0968,0.0,0.0,0.0,1.6019,1.4934,1.4601,0.0,0.0,0.0,0.0,0.0,0.0,0.0,0.0,1.2278,1.2102,0.0,0.0,0.0,0.0,0.0,0.0,0.0,0.0,0.0,0.0,0.0,0.0,0.0,0.0,0.0,0.0,3.507,3.7464,3.9379,3.8927,3.8553,3.8966,3.9474,3.9688,3.9369,3.8112,3.7398,3.7588,3.6804,3.6563,3.7152,3.7653,0.0,0.0,0.0,4.0209,4.1248,4.2012,4.2526,4.2769,4.2526,4.2566,4.2769,4.2496,4.2618,4.3021,4.321,4.329,4.323,4.2641,4.2321,4.2021,4.0217,3.9499,3.9313,3.8721,3.8153,3.7644,3.7644,0.0,0.0,3.7734,3.7913,3.8153,3.6866,3.6028,3.537,3.4713,3.4024,3.3423,3.3112,3.2207,3.1593,3.2435,3.1797,3.1076,3.1177,3.0736,3.0183,2.9687,2.9547,2.9432,2.9341,2.8016,2.6564,2.5436,2.4721,2.4058,2.3308,2.2648,2.2377,2.269,0.0,0.0,2.2322,2.1468,2.0641,1.9861,1.7829,1.622,1.5135,1.5085,1.5035,1.4984,1.4984,1.5311,1.5969,1.5919,1.6195,1.6726,1.511,1.4374,0.0,0.0,0.0,0.0,0.0,0.0,0.0,0.0,0.0,0.0,0.0,0.0,0.0,0.0,0.0,3.4562,3.7135,3.9349,4.0786,4.1701,4.209,4.1703,4.1763,4.1873,4.1964,4.0314,3.9264,3.9293,3.8653,3.8476,3.8957,3.9555,4.0151,4.0842,4.0952,4.1377,4.2147,4.2803,4.313,4.317,0.0,0.0,4.317,4.313,4.317,4.325,4.329,4.329,4.323,4.2641,4.1782,4.0756,4.0367,3.9888,3.9373,3.926,3.914,3.8985,3.8985,3.911,3.911,3.8422,3.8272,3.8153,3.6866,3.6028,0.0,3.4713,3.4024,3.3484,3.3299,3.2869,3.2613,3.3111,3.2868,3.2487,3.2521,3.2037,3.1586,3.1504,3.1076,3.0734,3.064,2.9473,2.8142,2.6939,2.6196,2.5481,2.4632,2.4158,2.3759,2.3573,2.3619,2.3301,2.2397,2.2493,2.1816,1.9911,1.8581,1.7375,1.6245,1.6195,1.5994,1.5542,1.5563,1.6245,1.7727,1.7275,1.7576,1.8481,1.6801,1.6045,0.0,0.0,0.0,0.0,0.0,0.0,0.0,0.0,0.0,0.0,0.0,2.9564,3.124,0.0,3.516,3.7135,3.8841,4.0367,4.1722,4.2701,4.317,4.288,4.2851,4.2852,4.286,4.1203,4.0323,4.0712,3.9761,3.9469,4.0271,4.1016,4.1683,4.2342,4.2671,4.315,4.3808,4.4137,4.4317,4.4317,4.4317,4.4137,4.3798,4.3798,4.3618,4.329,4.329,4.329,4.326,4.297,4.2282,4.1422,4.1422,4.0576,3.9373,3.9373,3.9373,3.9373,3.9373,3.9373,3.9313,3.902,3.8901,3.8721,3.7734,3.6776,3.5848,3.519,3.4262,3.3484,3.3422,3.3537,3.3708,3.3906,3.4068,3.4204,3.4204,3.394,3.3768,3.3768,3.3504,3.3064,3.2388,3.1438,3.0146,2.8471,2.7621,2.6889,2.6021,2.5239,2.4624,2.4308,2.4416,2.4111,2.3178,2.2955,2.198,1.9936,1.9359,1.8625,1.7603,1.7552,1.7425,1.7168,1.7142,1.7854,1.9253,1.8975,1.9407,2.0474,1.9535,1.8476,0.0,0.0,0.0,0.0,0.0,0.0,0.0,2.7829,2.8308,3.0313,3.1659,3.3035,3.4923,3.6237,3.7674,3.9499,4.0337,4.1205,4.244,4.312,4.3439,4.3319,4.329,4.325,4.3061,4.1745,4.1155,4.1804,4.089,4.0633,4.1475,4.2443,4.318,4.3648,4.4227,4.4766,4.5274,4.5304,4.5304,4.5304,4.5304,4.5005,4.4496,4.4377,4.4018,4.3469,4.3349,4.329,4.329,4.329,4.294,4.241,4.241,4.1362,3.9798,3.9798,3.9709,3.9582,3.9582,3.9493,3.9373,3.9373,3.9373,3.9254,3.8601,3.7674,3.6716,3.6058,3.51,3.4262,3.4262,3.4651,3.5043,3.4923,3.528,3.5669,3.5519,3.5519,3.5519,3.5519,3.5519,3.513,3.3903,3.3155,3.1961,2.9784,2.8886,2.8139,2.7256,2.6246,2.5494,2.5076,2.5157,2.4932,2.419,2.3251,2.1998,2.039,2.0344,1.999,1.9055,1.9053,1.9001,1.8872,1.8872,1.9492,2.0759,2.0655,2.1224,2.2437,2.2114,2.0827,2.3002,2.465,2.7405,2.9355,3.0791,3.1898,0.0,3.2258,3.2407,3.4442,3.5429,3.6357,3.7704,3.8571,3.9559,4.0935,4.1752,4.244,4.308,4.3738,4.3988,4.3349,4.329,4.329,4.325,4.2593,4.2243,4.2303,4.2712,4.2981,4.3041,4.4287,4.5005,4.5065,4.5155,4.5214,4.5304,4.5304,4.5304,4.5304,4.5304,4.5244,4.5155,4.4586,4.4287,4.4167,4.3559,4.329,4.329,4.329,4.294,4.241,4.241,4.1901,4.1175,4.1175,4.0786,4.0277,4.0277,3.9918,3.9373,3.9373,3.9373,3.9254,3.8601,3.8302,3.8033,3.7375,3.7075,3.6956,3.6956,3.7015,3.6956,3.6387,3.6327,3.6207,3.5639,3.5519,3.5519,3.5519,3.5519,3.525,3.4533,3.3814,3.2706,3.065,2.9816,2.9109,2.816,2.7579,2.6911,2.6043,2.6021,2.5774,2.5041,2.3722,2.2706,2.2074,2.1873,2.1431,2.059,2.0613,2.04,1.9845,1.9845,2.0664,2.2353,2.1877,2.2458,2.4037,2.3225,2.2242,2.6333,2.7705,2.9953,3.2736,3.4382,3.5639,3.6716,3.6417,3.6387,3.8033,3.8871,3.9499,4.0038,4.0367,4.0876,4.1841,4.2231,4.277,4.3748,4.4137,4.4077,4.3379,4.2671,4.2342,4.2731,4.2231,4.1991,4.2381,4.297,4.3509,4.3858,4.5155,4.5903,4.5903,4.6262,4.6471,4.6471,4.6471,4.6471,4.6471,4.6471,4.6262,4.5873,4.5603,4.5065,4.4287,4.3589,4.329,4.329,4.329,4.314,4.291,4.291,4.2761,4.2432,4.1654,4.0965,4.0397,4.0397,3.9978,3.9373,3.9373,3.9373,3.9379,3.908,3.8721,3.8332,3.8063,3.7704,3.7404,3.7404,3.7704,3.7823,3.7165,3.7315,3.7315,3.6297,3.6088,3.5968,3.5579,3.5519,3.528,3.4623,3.3933,3.3095,3.1869,3.0791,2.9839,2.902,2.8226,2.7469,2.6801,2.6329,2.5908,2.5686,2.4671,2.369,2.2923,2.3029,2.2884,2.2392,2.2466,2.2383,2.2036,2.2111,2.2654,2.3662,2.3498,2.4096,2.5334,2.4776,2.4344,2.8786,3.0193,3.2317,3.528,3.7285,3.8751,3.9738,3.9589,3.9559,4.0696,4.1175,4.1482,4.1662,4.1542,4.1632,4.2291,4.271,4.324,4.4167,4.4646,4.4515,4.3678,4.2432,4.1811,4.2111,4.1692,4.1782,4.2581,4.3419,4.4127,4.4825,4.5963,4.6591,4.6591,4.707,4.7309,4.7309,4.7309,4.7309,4.7309,4.7309,4.707,4.6591,4.6369,4.5603,4.4287,4.3768,4.3469,4.329,4.329,4.329,4.329,4.329,4.329,4.317,4.2252,4.1504,4.0935,4.0935,4.0516,3.9948,3.9948,3.9828,3.9679,3.9679,3.92,3.8691,3.8691,3.8332,3.7973,3.7973,3.8302,3.8512,3.7853,3.8033,3.8033,3.6776,3.6477,3.6297,3.5639,3.5519,3.534,3.4831,3.4053,3.3335,3.2856,3.1659,3.0464,2.9575,2.8497,2.77,2.7351,2.6678,2.6268,2.6217,2.5575,2.4719,2.3682,2.4122,2.4229,2.3796,2.4063,2.4089,2.3844,2.4114,2.4481,2.5018,2.5293,2.5966,2.6966,2.6674,2.6613,2.9232,3.1928,3.4863,3.6836,3.932,4.1265,4.1362,4.1294,4.1512,4.2201,4.1841,4.1602,4.2261,4.1841,4.1632,4.2291,4.3419,4.4257,4.4317,4.5424,4.5783,4.4436,4.312,4.2141,4.1512,4.1384,4.1923,4.317,4.4496,4.5544,4.619,4.689,4.7279,4.7279,4.7309,4.7309,4.7309,4.7309,4.7309,4.7309,4.7309,4.7309,4.7249,4.6621,4.5603,4.4317,4.4287,4.3888,4.329,4.329,4.329,4.329,4.329,4.329,4.329,4.326,4.2851,4.2351,4.2351,4.1901,4.1324,4.1324,4.0876,4.0367,4.0367,3.9918,3.9379,3.9379,3.9343,3.9313,3.9313,3.9343,3.92,3.8512,3.8392,3.8033,3.6776,3.6477,3.6297,3.5639,3.5519,3.5489,3.5489,3.4382,3.3484,3.3455,3.2318,3.1002,2.9744,2.8427,2.759,2.759,2.7335,2.7,2.6553,2.6231,2.557,2.4447,2.5214,2.5366,2.45,2.5175,2.5254,2.4669,2.5329,2.5936,2.6544,2.718,2.8107,2.9202,2.8936,2.8825,3.145,3.3963,3.6387,3.8781,4.0726,4.2201,4.2581,4.2671,4.2611,4.244,4.1871,4.1324,4.1085,4.0876,4.1085,4.2231,4.3449,4.4616,4.5514,4.601,4.5992,4.5065,4.3459,4.2321,4.2081,4.1662,4.1564,4.2013,4.4047,4.5394,4.5633,4.6711,4.7309,4.7309,4.7309,4.7309,4.7309,4.7309,4.7309,4.7309,4.7309,4.7309,4.7279,4.6621,4.604,4.5592,4.5155,4.4855,4.4586,4.4167,4.3947,4.3917,4.3469,4.329,4.329,4.329,4.314,4.294,4.256,4.1961,4.1422,4.1422,4.0935,4.0397,4.0397,3.9948,3.9373,3.9373,3.9373,3.9373,3.9373,3.9373,3.9313,3.914,3.908,3.8841,3.7943,3.7734,3.7554,3.6896,3.6447,3.6148,3.6148,3.4681,3.3215,3.2288,3.1391,3.0552,2.9711,2.8843,2.8094,2.7645,2.7437,2.7178,2.6811,2.6602,2.6079,2.5057,2.5859,2.6121,2.5513,2.6276,2.6685,2.6811,2.7176,2.7615,2.8121,2.8437,2.8965,2.9639,2.9464,2.9484,3.3514,3.5998,3.8332,4.0277,4.1743,4.2821,4.32,4.315,4.2791,4.2171,4.0943,3.9888,3.9709,3.9499,3.9858,4.1452,4.315,4.4706,4.5813,4.6381,4.6411,4.5753,4.4317,4.3279,4.2761,4.2312,4.2073,4.2073,4.3868,4.5155,4.5633,4.6711,4.7309,4.7309,4.7309,4.7309,4.7309,4.7309,4.7309,4.7309,4.7309,4.7309,4.7309,4.686,4.6561,4.6249,4.5843,4.5514,4.5274,4.4855,4.4526,4.4287,4.3798,4.3499,4.329,4.329,4.329,4.323,4.2851,4.2432,4.2073,4.2073,4.1624,4.1085,4.1085,4.0636,4.0068,3.9828,3.9768,3.9709,3.9433,3.9373,3.9373,3.9373,3.9373,3.923,3.8542,3.8392,3.8182,3.7524,3.7075,3.6746,3.6537,3.5011,3.3484,3.2407,3.163,3.0821,2.9741,2.8996,2.8427,2.8004,2.7688,2.7476,2.7502,2.7192,2.6564,2.5487,2.6422,2.6692,2.5884,2.6811,2.7606,2.8125,2.8495,2.9057,2.9833,3.0155,3.0598,3.1132,3.1014,3.1099,3.537,3.8093,4.0666,4.1324,4.2432,4.329,4.326,4.2791,4.2141,4.1422,3.911,3.7464,3.8063,3.7674,3.7913,3.9978,4.2521,4.4496,4.5185,4.6441,4.707,4.6441,4.5753,4.4855,4.3559,4.3379,4.3349,4.3379,4.4018,4.4945,4.6219,4.695,4.7309,4.7309,4.7309,4.7309,4.7309,4.7309,4.7309,4.7309,4.7309,4.7309,4.7309,4.7309,4.695,4.6339,4.6339,4.5992,4.5394,4.5364,4.4975,4.4407,4.4377,4.3947,4.3379,4.3379,4.3379,4.3349,4.3349,4.3319,4.329,4.329,4.288,4.241,4.241,4.1931,4.1302,4.0636,4.0427,4.0247,3.9619,3.9439,3.9373,3.9373,3.9373,3.923,3.8571,3.8452,3.8272,3.7644,3.7494,3.7255,3.6596,3.5432,3.4324,3.3634,3.2946,3.1809,2.9891,2.9056,2.8637,2.8547,2.7974,2.7884,2.8547,2.8004,2.7076,2.5794,2.6956,2.7076,2.5764,2.7016,2.8034,2.8697,2.9295,3.0253,3.1511,3.2168,3.2826,3.3455,3.3484,3.3484,3.8542,4.0487,4.2051,4.2671,4.305,4.317,4.2731,4.2141,4.1183,3.9499,3.7045,3.528,3.5462,3.534,3.6028,3.8512,4.1534,4.3947,4.5125,4.6441,4.7249,4.707,4.6471,4.5933,4.5562,4.4646,4.4257,4.4766,4.4945,4.5424,4.6249,4.695,4.7309,4.7309,4.7309,4.7309,4.7309,4.7309,4.7309,4.7309,4.7309,4.7309,4.7309,4.7309,4.7219,4.707,4.707,4.695,4.677,4.6262,4.5963,4.5753,4.5244,4.4945,4.4796,4.4796,4.4496,4.4077,4.4077,4.3708,4.329,4.329,4.288,4.241,4.241,4.1931,4.1354,4.1175,4.0786,4.0367,4.0187,3.9798,3.9373,3.9373,3.9373,3.9343,3.92,3.917,3.911,3.8931,3.8482,3.7793,3.6686,3.5789,3.5011,3.4354,3.3245,3.1958,3.0462,2.9714,2.8963,2.7974,2.7705,2.7884,2.8547,2.8004,2.7435,2.7106,2.7859,2.7949,2.7136,2.8393,2.9355,3.0013,3.0193,3.0702,3.1511,3.2168,3.2587,3.2766,3.3275,3.3484,4.0786,4.247,4.3658,4.3748,4.3738,4.3449,4.2261,4.1205,3.9888,3.7584,3.4771,3.2916,3.3514,3.3395,3.4233,3.7434,4.0756,4.3269,4.4287,4.5843,4.686,4.686,4.6561,4.6279,4.6279,4.5633,4.5334,4.5723,4.5454,4.5603,4.6249,4.695,4.7309,4.7309,4.7309,4.7309,4.7309,4.7309,4.7309,4.7309,4.7309,4.7309,4.7309,4.7309,4.7309,4.7309,0.0,4.7309,4.7279,4.692,4.6591,4.6249,4.5903,4.5574,4.5304,4.5304,4.4885,4.4317,4.4317,4.3858,4.329,4.329,4.309,4.2791,4.2791,4.2521,4.2192,4.1893,4.1572,4.1205,4.0905,4.0337,3.9858,3.9858,3.9619,3.9373,3.9373,3.9373,3.9373,3.9373,3.8871,3.8153,3.7434,3.6537,3.5818,3.5429,3.4233,3.2886,3.1569,3.0342,2.9202,2.8154,2.7794,2.8004,2.8936,2.8423,2.8034,2.8034,2.8906,2.9146,2.8513,2.9744,3.0731,3.139,3.1091,3.1391,3.2407,3.2437,3.2796,3.3395,3.3754,3.4083,4.259,4.4028,4.5125,4.4466,4.4257,4.3658,4.1594,3.9978,3.8153,3.5519,3.2317,3.0402,3.1749,3.157,3.2527,3.6507,3.9948,4.2402,4.317,4.4874,4.6082,4.6172,4.6202,4.619,4.6279,4.6411,4.6399,4.6399,4.5992,4.5903,4.6441,4.698,4.7309,4.7309,4.7309,4.7309,4.7309,4.7309,4.7309,4.7309,4.7309,4.7309,4.7309,4.7309,4.7309,4.7309,4.7309,4.7309,4.7309,4.7309,4.698,4.6399,4.6399,4.6082,4.5574,4.5574,4.5155,4.4586,4.4586,4.4077,4.3409,4.3319,4.329,4.329,4.329,4.329,4.317,4.2641,4.247,4.2261,4.1692,4.0965,4.0397,4.0397,3.9888,3.9373,3.9373,3.9373,3.9373,3.9373,3.8931,3.8512,3.8512,3.7524,3.6746,3.6746,3.5519,3.4143,3.2826,3.1001,2.9564,2.8816,2.8214,2.8364,2.9594,2.9175,2.8906,2.8996,3.0103,3.0522,3.0011,3.115,3.2019,3.2647,3.2049,3.2288,3.3365,3.2976,3.3305,3.4384,3.4563,3.4921,4.4466,4.5035,4.5125,4.4466,4.3858,4.2811,4.0337,3.7913,3.5429,3.2736,2.9564,2.7679,2.9026,2.9624,3.121,3.519,3.8601,4.1354,4.305,4.4067,4.4855,4.5394,4.5484,4.5693,4.6262,4.68,4.713,4.713,4.7519,4.7578,4.716,4.7249,4.7309,4.7309,4.7309,4.7309,4.7309,4.7309,4.7309,4.7309,4.7309,4.7309,4.7309,4.7309,4.7309,4.7309,4.7309,0.0,4.7309,4.7309,4.7249,4.713,4.713,4.707,4.695,4.695,4.6531,4.592,4.592,4.5143,4.4047,4.3469,4.329,4.329,4.329,4.329,4.326,4.314,4.2761,4.2381,4.2261,4.1332,4.0397,4.0397,3.9888,3.9373,3.9373,3.9373,3.9373,3.9373,3.932,3.923,3.923,3.8571,3.8063,3.8063,3.6507,3.4831,3.3514,3.2078,3.0703,2.9535,2.9322,2.9562,3.0283,3.0253,3.0432,3.0943,3.172,3.2108,3.2018,3.2736,3.3215,3.3335,3.3215,3.3006,3.2677,3.3664,3.3963,3.3694,3.4801,3.54,4.5125,4.5813,4.6112,4.5095,4.4077,4.2423,3.9104,3.6357,3.3604,3.0612,2.7919,2.6482,2.7829,2.8334,2.9861,3.3814,3.6926,3.9409,4.1017,4.2462,4.3539,4.4197,4.4586,4.5185,4.619,4.692,4.7459,4.7788,4.8117,4.8147,4.7848,4.7818,4.7818,4.7818,4.7489,4.7309,4.7309,4.7309,4.7309,4.7309,4.7309,4.7309,4.7309,4.7309,4.7309,4.7309,4.7309,4.7309,4.7309,4.7309,4.7309,4.7309,4.7309,4.7309,4.7309,4.7309,4.689,4.6279,4.6279,4.5424,4.4257,4.3917,4.3559,4.329,4.329,4.329,4.329,4.329,4.312,4.288,4.288,4.2132,4.1452,4.1452,4.0905,4.0337,4.0008,3.9918,3.9828,3.9499,3.9373,3.9373,3.9373,3.8841,3.8392,3.8392,3.7045,3.5669,3.4681,3.3664,3.2168,2.9861,2.9621,2.9983,3.0943,3.1002,3.1451,3.2497,3.3185,3.3544,3.3544,3.4173,3.4532,3.4532,3.4203,3.3844,3.3544,3.3814,3.3963,3.4054,3.4681,3.516,4.5454,4.6381,4.695,4.5454,4.3988,4.1863,3.7913,3.4651,3.1629,2.8757,2.6482,2.5375,2.6692,2.7076,2.8423,3.2228,3.4951,3.7195,3.896,4.0666,4.2073,4.3,4.3838,4.4855,4.616,4.7189,4.7938,4.8446,4.8626,4.8656,4.8506,4.8506,4.8446,4.8297,4.7788,4.7459,4.7309,4.7309,4.7309,4.7309,4.7309,4.7309,4.7309,4.7309,4.7309,4.7309,4.7309,4.7309,4.7309,4.7309,4.7309,4.7309,4.7309,4.7309,4.7309,4.7309,4.698,4.6488,4.6488,4.5753,4.4736,4.4736,4.4067,4.329,4.329,4.329,4.329,4.329,4.329,4.329,4.329,4.2851,4.2351,4.2231,4.1782,4.1205,4.0546,4.0397,4.0217,3.9559,3.9373,3.9373,3.9373,3.896,3.8601,3.8601,3.7644,3.6596,3.5818,3.513,3.3544,3.0522,3.0223,3.0642,3.163,3.1839,3.2467,3.3634,3.4322,3.4713,3.4713,3.522,3.5519,3.5519,3.4981,3.4653,3.4503,3.4113,3.4113,3.4503,3.4653,3.4981,4.5903,4.6741,4.683,4.4885,4.297,4.0516,3.6596,3.2258,2.8607,2.7081,2.4769,2.334,2.4634,2.5352,2.6901,3.0223,3.2497,3.4951,3.8033,3.917,4.0367,4.2261,4.3569,4.4855,4.616,4.7997,4.9149,4.9209,4.9733,4.9793,4.9269,4.9209,4.894,4.8297,4.8237,4.7908,4.7309,4.7309,4.7309,4.7309,4.7309,4.7309,4.7309,4.7309,4.7309,4.7309,4.7309,4.7309,0.0,4.7309,4.7309,4.7309,4.7309,4.7309,4.7309,4.7309,4.7279,4.7219,4.7219,4.6741,4.6142,4.6142,4.4814,4.329,4.329,4.329,4.329,4.329,4.329,4.329,4.329,4.2851,4.2261,4.1662,4.1414,4.1205,4.0546,4.0397,4.0217,3.9559,3.9373,3.9373,3.9373,3.9379,3.932,3.932,3.8691,3.7764,3.6537,3.5818,3.4592,3.2467,3.2258,3.2287,3.2378,3.2976,3.3634,3.4384,3.504,3.54,3.54,3.5459,3.5519,3.5519,3.5459,3.51,3.4503,3.504,3.504,3.4503,3.513,3.5459,4.4257,4.5562,4.6232,4.4257,4.2252,3.9768,3.5789,3.1629,2.8098,2.6363,2.4537,2.352,2.4425,2.4814,2.595,2.8876,3.0672,3.2706,3.5642,3.7285,3.8811,4.0397,4.2102,4.3658,4.4975,4.692,4.8566,4.9763,5.0589,5.0998,5.094,5.0245,4.9733,4.9464,4.9075,4.8745,4.8506,4.8087,4.7908,4.7908,4.7489,4.7309,4.7309,4.7309,4.7309,4.7309,4.7309,4.7309,0.0,4.7309,4.7309,4.7309,4.7309,4.7309,4.7309,4.7309,4.7309,4.7309,4.7309,4.686,4.6279,4.6279,4.5514,4.4496,4.4496,4.4227,4.3888,4.3888,4.3589,4.329,4.329,4.315,4.288,4.2611,4.2551,4.2372,4.1713,4.1602,4.1422,4.0726,4.0606,4.0487,4.0068,4.0008,3.9858,3.9433,3.8841,3.8212,3.7704,3.6716,3.5639,3.4442,3.3245,3.2677,3.3066,3.3335,3.4113,3.5609,3.5938,3.6267,3.6626,3.6297,3.6088,3.6088,3.5699,3.5579,3.5701,3.5968,3.6148,3.6237,3.6537,3.6656,4.2701,4.4347,4.5244,4.3299,4.1294,3.8751,3.4801,3.0851,2.756,2.5944,2.4388,2.352,2.4186,2.4306,2.5113,2.759,2.8936,3.0642,3.3484,3.5429,3.7105,3.8631,4.0576,4.2372,4.3868,4.6352,4.8626,5.0345,5.1239,5.1849,5.2261,5.1592,5.1031,5.0653,5.0246,4.9883,4.9702,4.9038,4.8706,4.8706,4.8041,4.7666,4.7666,4.7666,4.7666,4.7666,4.7666,4.7666,0.0,4.7666,4.7666,4.7666,4.7666,4.7666,4.7666,4.7666,4.7666,4.7666,4.7624,4.7237,4.6803,4.6803,4.6473,4.6124,4.6165,4.532,4.4317,4.4317,4.3838,4.329,4.329,4.329,4.329,4.329,4.329,4.315,4.253,4.241,4.2201,4.1542,4.1422,4.1175,4.0516,4.0397,4.0187,3.9529,3.902,3.8631,3.8422,3.7614,3.6656,3.5609,3.4233,3.3514,3.3754,3.3784,3.4562,3.642,3.6477,3.6776,3.7375,3.6806,3.6477,3.6477,3.5848,3.5818,3.6477,3.6477,3.6806,3.7404,3.7404,3.7404,4.1692,4.3329,4.3868,4.1893,3.9888,3.7375,3.3425,2.9475,2.6422,2.5734,2.4059,2.2882,2.349,2.361,2.4268,2.6273,2.7195,2.8783,3.2078,3.3664,3.525,3.7195,3.92,4.1175,4.311,4.692,4.9793,5.1109,5.1618,5.2185,5.2856,5.3296,5.2972,5.1726,5.1696,5.1357,5.0679,5.0032,4.9693,4.9662,4.8943,4.8563,4.8563,4.8563,4.8563,4.8563,4.8563,4.8563,0.0,4.8563,4.8563,4.8563,4.8563,4.8563,4.8563,4.8563,4.8563,4.8563,4.8385,4.8175,4.8007,4.8007,4.8007,4.8019,4.8187,4.6414,4.4317,4.4317,4.3838,4.329,4.329,4.329,4.329,4.329,4.329,4.315,4.253,4.241,4.2201,4.1542,4.1422,4.1175,4.0516,4.0397,4.0187,3.9529,3.9373,3.917,3.8482,3.8392,3.7644,3.5699,3.5489,3.519,3.4563,3.4503,3.5073,3.6387,3.6477,3.6776,3.7375,3.6806,3.6477,3.6477,3.5848,3.5818,3.6477,3.6477,3.6806,3.7404,3.7404,3.7404,3.8512,4.0277,4.1175,3.917,3.7524,3.5642,3.2646,2.9271,2.6633,2.5991,2.4653,2.3634,2.3709,2.3674,2.4118,2.5674,2.6482,2.8068,3.1361,3.3784,3.5974,3.8026,4.1539,4.4552,4.6722,4.8919,5.075,5.2093,5.2771,5.3359,5.3848,5.4485,5.4473,5.3714,5.3682,5.3587,5.3366,5.2194,5.1625,5.1593,5.0414,4.9844,4.9844,4.9844,4.9844,4.9844,4.9844,4.9844,4.9844,4.9844,4.9844,4.9844,4.9844,4.9844,4.9844,4.9844,4.9844,4.9765,4.9439,4.8994,4.8543,4.8615,4.8615,4.8625,4.8994,4.7926,4.6366,4.5657,4.4971,4.4458,4.4427,4.4095,4.3793,4.3793,4.3675,4.3457,4.3129,4.303,4.297,4.2761,4.2701,4.2521,4.1901,4.1782,4.1542,4.0846,4.0756,4.0516,3.9858,3.9379,3.8512,3.6956,3.6417,3.5729,3.4593,3.4503,3.5252,3.7015,3.7135,3.7614,3.8721,3.8153,3.7793,3.7793,3.7135,3.7135,3.7793,3.7793,3.8123,3.8781,3.8781,3.8781,3.5402,3.7015,3.7793,3.6297,3.4951,3.3395,3.1138,2.8602,2.6543,2.5893,2.4906,2.4099,2.3931,2.3739,2.4029,2.5375,2.5944,2.738,3.0644,3.3425,3.6529,4.0252,4.3716,4.6757,4.9099,5.0569,5.1945,5.3321,5.3976,5.4527,5.4994,5.5668,5.5948,5.585,5.5402,5.5117,5.5117,5.3728,5.3057,5.3025,5.1565,5.0887,5.0887,5.0887,5.0887,5.0887,5.0887,5.0887,0.0,5.0887,5.0887,5.0887,5.0887,5.0887,5.0887,5.0887,5.0887,5.0811,5.0461,4.9876,4.9358,4.9439,4.9599,4.9765,5.0197,4.9253,4.7805,4.6677,4.6058,4.566,4.5314,4.4978,4.4641,4.4366,4.4073,4.3762,4.3369,4.329,4.329,4.329,4.329,4.312,4.25,4.241,4.2171,4.1512,4.1422,4.1145,4.0487,4.0038,3.917,3.7584,3.7075,3.6297,3.4981,3.51,3.5848,3.7315,3.7644,3.8272,3.9343,3.8751,3.8392,3.8392,3.7833,3.7871,3.8637,3.9013,3.938,3.9696,3.9661,3.9589,0.0,3.3696,3.4175,3.3516,3.2317,3.0906,2.9277,2.7585,0.0,2.5598,2.4927,2.44,2.4265,2.3949,2.4162,2.5571,2.5781,2.695,3.0336,3.3307,3.7436,4.3639,4.5924,4.802,5.0601,5.2009,5.3311,5.4617,5.5117,5.5643,5.6204,5.6768,5.7327,5.7881,5.6762,5.6139,5.6139,5.4728,5.4005,5.4005,5.2528,5.1838,5.1838,5.1838,5.1838,0.0,5.1838,5.1838,0.0,5.1838,5.1838,5.1838,5.1838,5.1838,5.1838,5.1838,5.1838,5.1769,5.1364,5.0838,5.0338,5.0531,5.0876,5.129,5.1696,5.0505,4.8699,4.7489,4.7138,4.6944,4.6114,4.5928,4.5804,4.5122,4.4633,4.4104,4.3548,4.3399,4.3369,4.3369,4.3369,4.3229,4.2638,4.2548,4.2338,4.1708,4.1648,4.1408,4.071,4.0561,3.9781,3.7833,3.7563,3.7053,3.5794,3.6211,3.6746,3.7375,3.8033,3.8691,3.9343,3.8811,3.8452,3.8452,3.8125,3.83,3.9146,4.0132,4.0509,4.027,4.0121,3.9945,2.9061,0.0,3.2656,3.1982,3.0796,2.9623,0.0,2.7449,2.6146,2.6122,2.5448,2.5032,2.5342,2.5141,2.5509,2.7439,2.7745,2.9092,3.301,3.8087,4.3043,4.7458,4.9256,5.0903,5.2911,5.3928,5.4803,5.5603,5.6139,5.6492,5.6801,5.7218,5.7588,5.7881,5.7625,5.7443,5.7443,5.6032,5.5257,5.5257,5.378,5.3109,5.3109,5.3109,5.3109,5.3109,5.3109,5.3109,5.3109,5.3109,5.3109,5.3109,5.3109,5.3109,5.3109,5.3109,5.3109,5.3007,5.2624,5.2059,5.1521,5.1557,5.1882,5.2378,5.2903,5.1924,5.0396,4.966,4.8937,4.8372,4.7958,4.7247,4.6609,4.6454,4.5711,4.4952,4.4607,4.4282,4.4112,4.4266,4.4305,4.4243,4.409,4.406,4.4029,4.3876,4.3846,4.3601,4.2928,4.2346,4.1459,3.9994,3.9317,3.8675,3.7881,3.699,3.6746,3.7375,3.8033,3.8691,3.9343,3.926,3.917,3.917,3.9734,4.022,4.0678,4.1333,4.1461,4.1194,4.0755,4.0343,2.7853,2.9552,3.0873,3.0523,2.964,2.8794,2.8342,2.7112,2.6063,2.6166,2.5843,2.5669,2.6162,2.6281,2.6954,2.9053,2.9982,3.2341,3.7707,4.2328,4.6667,5.094,5.2272,5.361,5.5547,5.6083,5.6483,5.6844,5.7139,5.7289,5.7402,5.7625,5.7772,5.7881,5.7881,5.7881,5.7881,5.6461,5.5681,5.5647,5.4228,5.3518,5.3518,5.3518,5.3518,5.3518,5.3518,5.3518,5.3518,5.3518,5.3518,5.3518,5.3518,5.3518,5.3518,5.3518,5.3518,5.3484,5.3144,5.2731,5.2312,5.2241,5.2522,5.2972,5.3382,5.2834,5.1915,5.1182,5.0548,4.9853,4.905,4.8348,4.7614,4.6959,4.6414,4.5918,4.5393,4.5257,4.5259,4.5326,4.5337,4.5337,4.5337,4.5337,4.5337,4.5337,4.5337,4.5086,4.4396,4.3988,4.3113,4.1482,4.0948,4.0414,3.9754,3.8994,3.8508,3.8371,3.9005,3.9516,3.9879,3.991,4.0016,4.0266,4.0891,4.1395,4.1852,4.2301,4.2332,4.1981,4.1428,4.1026,2.7918,2.8902,2.9683,2.9669,2.9241,2.8715,2.8313,2.7421,2.6693,2.6594,2.6561,2.6722,2.7276,2.7705,2.8737,3.0988,3.3129,3.6627,4.2815,4.5991,4.9302,5.3676,5.4712,5.5819,5.771,5.7881,5.7881,5.7881,5.7881,5.7881,5.7881,5.7881,5.7881,5.7881,5.7881,5.7881,5.7881,5.6461,5.5681,5.5647,5.4228,5.3518,5.3518,5.3518,5.3518,5.3518,0.0,0.0,5.3518,5.3518,5.3518,5.3518,5.3518,5.3518,5.3518,5.3518,5.3518,5.3484,5.3314,5.311,5.2972,5.2765,5.2972,5.328,5.345,5.3382,5.311,5.2348,5.1846,5.1201,4.992,4.9299,4.8709,4.7457,4.7153,4.7045,4.6361,4.6523,4.6755,4.6728,4.6737,4.6737,4.6737,4.6737,4.6737,4.6737,4.6737,4.6512,4.5936,4.5679,4.481,4.2977,4.2558,4.2171,4.1623,4.1528,4.1183,4.0431,4.06,4.0749,4.0749,4.0749,4.0987,4.1458,4.1819,4.2269,4.2772,4.3141,4.3174,4.2803,4.2269,4.1819,2.8459,2.9868,3.0931,3.1013,3.0937,3.0871,3.0978,3.0452,2.9829,2.9326,2.9134,2.9237,2.9827,3.0354,3.1636,3.4456,3.8685,4.2621,4.5505,4.8627,5.1647,5.4383,5.5579,5.6679,5.7814,5.7881,5.7881,5.7881,5.7881,5.7881,5.7881,5.7881,5.7881,5.7881,5.7881,5.7881,5.7881,5.6461,5.5681,5.5647,5.4228,5.3518,5.3518,5.3518,5.3518,5.3518,0.0,5.3518,5.3518,5.3518,5.3518,5.3518,5.3518,5.3518,5.3518,5.3518,5.3518,5.3518,5.345,5.3416,5.3382,5.3348,5.3382,5.345,5.3518,5.3484,5.3416,5.3314,5.259,5.1736,5.0978,5.041,4.9836,4.9299,4.8867,4.859,4.8554,4.8573,4.8702,4.8996,4.9101,4.9101,4.9101,4.9101,4.9101,4.9101,4.9101,4.9036,4.8938,4.7892,4.678,4.5865,4.4623,4.3838,4.3707,4.3707,4.3906,4.4366,4.2751,4.1788,4.1788,4.1788,4.1949,4.23,4.2833,4.3262,4.3625,4.4093,4.4212,4.3864,4.3323,4.2894,2.818,2.9465,3.0774,3.1621,3.2426,3.2937,3.2634,3.2362,3.2088,3.1793,3.1389,3.1395,3.2442,3.355,3.578,4.0387,4.3709,4.6619,4.9224,5.1263,5.3344,5.5595,5.6311,5.6995,5.7814,5.7881,5.7881,5.7881,5.7881,5.7881,5.7881,5.7881,5.7881,5.7881,5.7881,5.7881,5.7881,5.6833,5.6122,5.5716,5.46,5.389,5.3518,5.3518,5.3518,5.3518,0.0,5.3518,5.3518,5.3518,5.3518,5.3518,5.3518,5.3518,5.3518,5.3518,5.3518,5.3518,5.3518,5.3518,5.3518,5.3518,5.3518,5.3518,5.3518,5.3518,5.3518,5.3518,5.3007,5.2343,5.17,5.1182,5.0691,5.0151,5.0012,5.0043,4.9997,5.0213,5.0344,5.0459,5.046,5.046,5.046,5.046,5.046,5.046,5.046,5.046,5.046,4.9559,4.8457,4.7325,4.6255,4.5587,4.5587,4.5254,4.5078,4.5305,4.4333,4.3782,4.3782,4.3782,4.3942,4.4256,4.4599,4.4903,4.5236,4.5626,4.5655,4.5387,4.4933,4.466,2.7756,2.8669,2.9954,3.165,3.3389,3.4675,3.4269,3.4607,3.4878,3.4539,3.4269,3.4426,3.5407,3.7077,4.002,4.5128,4.7361,4.939,5.2198,5.3416,5.4702,5.6596,5.6934,5.7273,5.7848,5.7881,5.7881,5.7881,5.7881,5.7881,5.7881,5.7881,5.7881,5.7881,5.7881,5.7881,5.7881,5.734,5.6697,5.5953,5.5209,5.4566,5.4025,5.4025,5.4025,5.4025,5.3822,5.3754,5.3754,5.3585,5.3619,5.3754,5.3754,5.3856,5.4025,5.4025,5.4025,5.4025,5.4025,5.4025,5.4025,5.4025,5.4025,5.4025,5.4025,5.4025,5.4025,5.4025,5.3685,5.3104,5.2274,5.1776,5.1373,5.0849,5.1038,5.1284,5.1232,5.1586,5.1865,5.1762,5.1758,5.1758,5.1758,5.1758,5.1758,5.1758,5.1758,5.1758,5.1758,5.1082,5.0033,4.8578,4.7767,4.7327,4.7327,4.6955,4.6656,4.6445,4.5952,4.5654,4.5654,4.5654,4.5748,4.6027,4.6149,4.6301,4.6574,4.6727,4.6727,4.6574,4.6301,4.6149,2.7621,2.7891,2.85,3.0717,3.3423,3.5701,3.6423,3.8149,3.9233,3.7855,3.8599,3.9368,3.8768,4.1001,4.3775,4.6312,4.8511,5.0744,5.3078,5.4668,5.5852,5.6697,5.7408,5.7814,5.7881,5.7881,5.7881,5.7881,5.7881,5.7881,5.7881,5.7881,5.7881,5.7881,5.7881,5.7881,5.7881,5.7848,5.7442,5.6697,5.5987,5.5615,5.5512,5.5512,5.5512,5.5513,5.4803,5.4499,5.4465,5.3788,5.389,5.4499,5.4499,5.4938,5.5512,5.5512,5.5512,5.5512,5.5512,5.5512,5.5512,5.5512,5.5512,5.5512,5.5512,5.5512,5.5512,5.5512,5.5005,5.4158,5.2863,5.2414,5.2128,5.1696,5.1915,5.2238,5.242,5.2803,5.3145,5.3315,5.3348,5.3348,5.3348,5.3348,5.3348,5.3348,5.3348,5.3348,5.3348,5.2638,5.1589,5.0101,4.9289,4.8849,4.8849,4.9424,4.9765,4.9736,4.7845,4.6697,4.6697,4.6697,4.6697,4.6727,4.6727,4.6756,4.6786,4.6786,4.6786,4.6786,4.6756,4.6727,2.7858,2.818,2.8958,3.0751,3.3423,3.5938,3.7212,3.9546,4.1576,4.1982,4.2861,4.3369,4.2618,4.4147,4.6109,4.7868,4.9661,5.1758,5.4499,5.5378,5.6156,5.734,5.7712,5.7881,5.7881,5.7881,5.7881,5.7881,5.7881,5.7881,5.7881,5.7881,5.7881,5.7881,5.7881,5.7881,5.7881,5.7881,5.7746,5.7476,5.6731,5.6156,5.5681,5.5681,5.5681,5.5647,5.5412,5.5006,5.46,5.4803,5.4769,5.4634,5.5108,5.5446,5.5681,5.5681,5.5681,5.5681,5.5681,5.5681,5.5681,5.5681,5.5681,5.5681,5.5681,5.5681,5.5681,5.5681,5.5513,5.5038,5.4088,5.3446,5.3007,5.2868,5.2938,5.3075,5.311,5.328,5.3416,5.3518,5.3518,5.3518,5.3518,5.3518,5.3518,5.3518,5.3518,5.3518,5.3518,5.2807,5.1928,5.0913,5.0135,4.9661,4.9661,5.0371,5.0777,5.0777,4.956,4.8646,4.8173,4.8173,4.8173,4.8173,4.8173,4.8173,4.8173,4.8173,4.8173,4.8173,4.8173,4.8173,2.8315,2.8416,2.9093,3.1055,3.3592,3.6174,3.843,4.1238,4.3741,4.5055,4.5872,4.6244,4.5737,4.6481,4.7631,4.912,5.0405,5.2233,5.531,5.5681,5.6258,5.7712,5.7881,5.7881,5.7881,5.7881,5.7881,5.7881,5.7881,5.778,5.7577,5.7746,5.778,5.7543,5.778,5.7881,5.7881,5.7881,5.7881,5.7881,5.7374,5.69,5.6393,5.6393,5.6393,5.6393,5.6156,5.5784,5.531,5.5615,5.5547,5.5378,5.6122,5.6393,5.6393,5.6393,5.6393,5.6393,5.6393,5.6393,5.6393,5.6393,5.6393,5.6393,5.6393,5.6393,5.6393,5.6393,5.6258,5.5953,5.5412,5.4566,5.3788,5.3551,5.3518,5.3518,5.3518,5.3518,5.3518,5.3518,5.3518,5.3518,5.3518,5.3518,5.3518,5.3518,5.3518,5.3518,5.3518,5.301,5.2401,5.1623,5.0879,5.0541,5.0777,5.1251,5.1555,5.1555,5.1082,5.0338,4.939,4.912,4.9018,4.9018,4.9018,4.9018,4.9018,4.9018,4.9018,4.9018,4.9018,4.9018,2.901,2.845,2.8568,3.1582,3.3998,3.6614,4.0392,4.3572,4.594,4.6718,4.7428,4.7939,4.7906,4.7906,4.8409,4.9864,5.0744,5.2266,5.5276,5.5681,5.6258,5.7712,5.7881,5.7881,5.7881,5.7881,5.7881,5.7881,5.7881,5.7577,5.6833,5.7476,5.7543,5.6833,5.7509,5.7881,5.7881,5.7881,5.7881,5.7881,5.7881,5.7881,5.7881,5.7881,5.7881,5.7848,5.7137,5.6799,5.6731,5.6021,5.6156,5.69,5.7611,5.7881,5.7881,5.7881,5.7881,5.7881,5.7881,5.7881,5.7881,5.7881,5.7881,5.7881,5.7881,5.7881,5.7881,5.7881,5.7374,5.6799,5.6799,5.5716,5.4431,5.3687,5.3518,5.3518,5.3518,5.3518,5.3518,5.3518,5.3518,5.3518,5.3518,5.3518,5.3518,5.3518,5.3518,5.3518,5.3518,5.3518,5.3179,5.2401,5.1657,5.1522,5.2266,5.23,5.23,5.23,5.23,5.1623,5.0168,4.939,4.9018,4.9018,4.9018,4.9018,4.9018,4.9018,4.9018,4.9018,4.9018,4.9018,3.0262,3.0378,3.092,3.3897,3.6332,3.9106,4.3403,4.5872,4.8071,5.0913,5.1251,5.0676,4.9627,4.9864,5.0202,5.0101,5.115,5.2841,5.5378,5.5681,5.6258,5.7712,5.7881,5.7881,5.7881,5.7881,5.7881,5.7881,5.7408,5.7036,5.6799,5.6528,5.6494,5.6799,5.7002,5.7374,5.7881,5.7881,5.7881,5.7881,5.7881,5.7881,5.7881,5.7881,5.7881,5.7881,5.7645,5.7273,5.6799,5.6562,5.69,5.7577,5.7814,5.7881,5.7881,5.7881,5.7881,5.7881,5.7881,5.7881,5.7881,5.7881,5.7881,5.7881,5.7881,5.7881,5.7881,5.7881,5.7712,5.7442,5.6934,5.6494,5.5953,5.5243,5.5074,5.5074,5.5074,5.5074,5.5074,5.5074,5.5074,5.5074,5.5074,5.4634,5.4262,5.4262,5.3822,5.3518,5.3518,5.3518,5.3416,5.3179,5.2942,5.2909,5.3145,5.2638,5.2536,5.3112,5.2131,5.1352,5.0913,5.0676,5.0574,5.0574,5.0574,5.0574,5.0574,5.0574,5.0574,5.0574,5.0574,5.0574,3.0784,3.1833,3.322,3.6231,3.9106,4.2455,4.7259,4.9018,5.0405,5.2976,5.2875,5.2029,5.115,5.1116,5.115,5.1014,5.1725,5.2976,5.4972,5.5277,5.5716,5.69,5.7036,5.7036,5.7036,5.7036,5.7036,5.7036,5.663,5.6258,5.5953,5.5784,5.5784,5.5919,5.6494,5.7002,5.7442,5.7746,5.7881,5.7881,5.7881,5.7881,5.7881,5.7881,5.7881,5.7881,5.7881,5.7645,5.7239,5.7239,5.7476,5.7881,5.7881,5.7881,5.7881,5.7881,5.7881,5.7881,5.7881,5.7881,5.7881,5.7881,5.7881,5.7881,5.7881,5.7881,5.7881,5.7881,5.7881,5.778,5.734,5.7239,5.6968,5.5953,5.5681,5.5681,5.5681,5.5681,5.5681,5.5681,5.5681,5.5681,5.5681,5.5344,5.4938,5.4634,5.3957,5.3518,5.3518,5.3518,5.3518,5.3518,5.3518,5.3518,5.3518,5.3078,5.2976,5.3484,5.2638,5.2131,5.2131,5.1555,5.1185,5.1185,5.1185,5.1185,5.1185,5.1185,5.1185,5.1185,5.1185,5.1185,3.092,3.3017,3.5453,3.8531,4.2219,4.6375,5.1183,5.2367,5.2604,5.3348,5.2909,5.2401,5.2401,5.186,5.1657,5.23,5.2401,5.2909,5.4397,5.46,5.4871,5.5615,5.5681,5.5681,5.5681,5.5681,5.5681,5.5681,5.5649,5.531,5.4634,5.5175,5.5243,5.46,5.5886,5.6664,5.6799,5.7442,5.7814,5.7881,5.7881,5.7881,5.7881,5.7881,5.7881,5.7881,5.7881,5.7881,5.7881,5.7881,5.7881,5.7881,5.7881,5.7881,5.7881,5.7881,5.7881,5.7881,5.7881,5.7881,5.7881,5.7881,5.7881,5.7881,5.7881,5.7881,5.7881,5.7881,5.7881,5.7881,5.7881,5.7881,5.7543,5.6224,5.5919,5.5919,5.5919,5.5919,5.5919,5.5919,5.5919,5.5919,5.5919,5.5817,5.5547,5.4803,5.4126,5.3721,5.3721,5.3721,5.3721,5.3721,5.3721,5.3687,5.3619,5.3551,5.3518,5.3518,5.345,5.3416,5.3518,5.2164,5.1388,5.1388,5.1388,5.1388,5.1388,5.1388,5.1388,5.1388,5.1388,5.1388,3.2036,3.4573,3.7168,4.0696,4.5263,4.9492,5.1792,5.2807,5.3281,5.345,5.3382,5.3247,5.3247,5.3112,5.3078,5.3213,5.3247,5.3551,5.4465,5.46,5.4871,5.5615,5.5681,5.5681,5.5681,5.5681,5.5681,5.5681,5.5175,5.4769,5.46,5.4194,5.416,5.4566,5.4905,5.5615,5.6799,5.6968,5.734,5.7881,5.7881,5.7881,5.7881,5.7881,5.7881,5.7881,5.7881,5.7881,5.7881,5.7881,5.7881,5.7881,5.7881,5.7881,5.7881,5.7881,5.7881,5.7881,5.7881,5.7881,5.7881,5.7881,5.7881,5.7881,5.7881,5.7881,5.7881,5.7881,5.7881,5.7881,5.7881,5.7881,5.7814,5.7476,5.7408,5.7408,5.7408,5.7408,5.7408,5.7408,5.7408,5.7408,5.7408,5.6934,5.6325,5.5581,5.5344,5.5243,5.5243,5.5243,5.5243,5.5243,5.5243,5.5006,5.4397,5.3822,5.3518,5.3518,5.2909,5.2841,5.3484,5.3179,5.301,5.301,5.301,5.301,5.301,5.301,5.301,5.301,5.301,5.301,3.1833,3.5306,3.9165,4.4654,4.8342,5.1014,5.2536,5.3213,5.3518,5.3518,5.3518,5.3518,5.3518,5.3518,5.3518,5.3518,5.3518,5.3619,5.4025,5.4059,5.4228,5.46,5.4668,5.4668,5.4668,5.4668,5.4668,5.4668,5.4296,5.4059,5.4059,5.3721,5.3687,5.4059,5.4397,5.4972,5.575,5.6089,5.663,5.7374,5.7374,5.7543,5.7881,5.7881,5.7881,5.7881,5.7881,5.7881,5.7881,5.7881,5.7881,5.7881,5.7881,5.7881,5.7881,5.7881,5.7881,5.7881,5.7881,5.7881,5.7881,5.7881,5.7881,5.7881,5.7881,5.7881,5.7881,5.7881,5.7881,5.7881,5.7881,5.7881,5.7881,5.7881,5.7881,5.7881,5.7881,5.7881,5.7881,5.7881,5.7881,5.7881,5.7881,5.7273,5.6664,5.6292,5.5953,5.5681,5.5681,5.5681,5.5681,5.5681,5.5681,5.5547,5.5175,5.4465,5.4025,5.4025,5.3315,5.3078,5.3484,5.3518,5.3518,5.3518,5.3518,5.3518,5.3518,5.3518,5.3518,5.3518,5.3518,5.3518,3.1244,3.5926,4.1441,4.8511,5.0744,5.1591,5.3145,5.3518,5.3518,5.3518,5.3518,5.3518,5.3518,5.3518,5.3518,5.3518,5.3518,5.3518,5.3518,5.3518,5.3518,5.3518,5.3518,5.3518,5.3518,5.3518,5.3518,5.3518,5.3518,5.3518,5.3518,5.3518,5.3518,5.3518,5.4093,5.4465,5.46,5.5209,5.5953,5.6799,5.6934,5.7306,5.7881,5.7881,5.7881,5.7881,5.7881,5.7881,5.7881,5.7881,5.7881,5.7881,5.7881,5.7881,5.7881,5.7881,5.7881,5.7881,5.7881,5.7881,5.7881,5.7881,5.7881,5.7881,5.7881,5.7881,5.7881,5.7881,5.7881,5.7881,5.7881,5.7881,5.7881,5.7881,5.7881,5.7881,5.7881,5.7881,5.7881,5.7881,5.7881,5.7881,5.7881,5.7374,5.7002,5.7002,5.6461,5.6089,5.6089,5.6089,5.6089,5.6089,5.6089,5.6055,5.5919,5.5344,5.4905,5.4803,5.4228,5.389,5.389,5.389,5.389,5.389,5.3653,5.3518,5.3518,5.3518,5.3484,5.3517,5.3551,5.3584,3.1108,3.7449,4.4119,4.9695,5.115,5.1591,5.3145,5.3518,5.3518,5.3518,5.3518,5.3518,5.3518,5.3518,5.3518,5.3518,5.3518,5.3518,5.3518,5.3518,5.3518,5.3518,5.3518,5.3518,5.3518,5.3518,5.3518,5.3518,5.3518,5.3518,5.3518,5.3518,5.3518,5.3518,5.3585,5.3957,5.4566,5.4702,5.5446,5.6799,5.7442,5.778,5.7881,5.7881,5.7881,5.7881,5.7881,5.7881,5.7881,5.7881,5.7881,5.7881,5.7881,5.7881,5.7881,5.7881,5.7881,5.7881,5.7881,5.7881,5.7881,5.7881,5.7881,5.7881,5.7881,5.7881,5.7881,5.7881,5.7881,5.7881,5.7881,5.7881,5.7881,5.7881,5.7881,5.7881,5.7881,5.7881,5.7881,5.7881,5.7881,5.7881,5.7881,5.7814,5.7746,5.7746,5.7645,5.7611,5.7611,5.7611,5.7611,5.7611,5.7611,5.734,5.6697,5.6562,5.6224,5.5615,5.548,5.5412,5.5412,5.5412,5.5412,5.5412,5.416,5.3518,5.3518,5.3518,5.3551,5.3684,5.3849,5.4013,3.3038,3.9005,4.4457,4.8883,5.0608,5.1488,5.257,5.3179,5.3518,5.3518,5.3518,5.3518,5.3518,5.3518,5.3518,5.3518,5.3518,5.3518,5.3518,5.3518,5.3518,5.3518,5.3518,5.3518,5.3518,5.3518,5.3518,5.3518,5.3518,5.3518,5.3518,5.3518,5.3518,5.3518,5.3518,5.3653,5.3991,5.3991,5.4735,5.6224,5.734,5.7881,5.7881,5.7881,5.7881,5.7881,5.7881,5.7881,5.7881,5.7881,5.7881,5.7881,5.7881,5.7881,5.7881,5.7881,5.7881,5.7881,5.7881,5.7881,5.7881,5.7881,5.7881,5.7881,5.7881,5.7881,5.7881,5.7881,5.7881,5.7983,5.8423,5.8524,5.8626,5.9032,5.8829,5.8524,5.8524,5.8186,5.7881,5.7881,5.7881,5.7881,5.7881,5.7881,5.7918,5.8027,5.8135,5.8241,5.8241,5.8241,5.8171,5.8063,5.7954,5.7819,5.7586,5.7286,5.7017,5.6781,5.6474,5.6303,5.6303,5.6303,5.6303,5.6303,5.5281,5.4735,5.4735,5.4735,5.4839,5.511,5.5439,5.5764,3.4053,3.8903,4.2936,4.6887,4.8849,5.0101,5.1217,5.2063,5.2739,5.3112,5.3213,5.3281,5.345,5.3518,5.3518,5.3518,5.3518,5.3518,5.3518,5.3518,5.3518,5.3518,5.3518,5.3518,5.3518,5.3518,5.3518,5.3518,5.3518,5.3518,5.3518,5.3518,5.3518,5.3518,5.3518,5.3518,5.3518,5.389,5.4634,5.575,5.7205,5.7881,5.7881,5.7881,5.7881,5.7881,5.7881,5.7881,5.7881,5.7881,5.7881,5.7881,5.7881,5.7881,5.7881,5.7881,5.7881,5.7881,5.7881,5.7881,5.7881,5.7881,5.7881,5.7881,5.7881,5.7881,5.7881,5.7881,5.7881,5.8017,5.8592,5.8727,5.8863,5.9404,5.917,5.8764,5.8727,5.8287,5.7881,5.7881,5.7881,5.7881,5.7881,5.7881,5.7991,5.8241,5.8491,5.8632,5.8702,5.8667,5.8597,5.835,5.8063,5.7991,5.8243,5.8013,5.7912,5.8116,5.7863,5.7714,5.7714,5.7714,5.7714,5.7714,5.7188,5.6577,5.5995,5.5995,5.6201,5.6536,5.699,5.7402,3.2713,3.5825,3.9276,4.3735,4.5399,4.6549,4.868,4.9729,5.0676,5.2063,5.2367,5.2604,5.3382,5.3518,5.3518,5.3518,5.3518,5.3518,5.3518,5.3518,5.3518,5.3518,5.3518,5.3518,5.3518,5.3518,5.3518,5.3518,5.3518,5.3518,5.3518,5.3518,5.3518,5.3518,5.3518,5.3518,5.3518,5.4905,5.5614,5.575,5.7205,5.7881,5.7881,5.7881,5.7881,5.7881,5.7881,5.7881,5.7881,5.7881,5.7881,5.7881,5.7881,5.7881,5.7881,5.7881,5.7881,5.7881,5.7881,5.7881,5.7881,5.7881,5.7881,5.7881,5.7881,5.7881,5.7881,5.7881,5.7881,5.7915,5.7949,5.7949,5.7949,5.7983,5.8128,5.8167,5.7986,5.7915,5.7881,5.7881,5.7881,5.7881,5.7881,5.7881,5.8027,5.8419,5.8841,5.9112,5.9216,5.9146,5.8943,5.8702,5.8207,5.8063,5.8455,5.8806,5.9176,5.9576,5.9984,6.0198,6.0198,6.0198,6.0198,6.0198,6.0167,5.9029,5.6738,5.6738,5.6997,5.744,5.7776,5.8196,2.9244,3.2354,3.5757,3.8826,4.1568,4.3978,4.5771,4.7834,4.9796,5.1319,5.1961,5.2536,5.3348,5.3518,5.3518,5.3518,5.3518,5.3518,5.3518,5.3518,5.3518,5.3518,5.3518,5.3518,5.3518,5.3518,5.3518,5.3518,5.3518,5.3518,5.3518,5.3518,5.3518,5.3518,5.3518,5.3518,5.3518,5.4972,5.5681,5.575,5.7205,5.7881,5.7881,5.7881,5.7881,5.7881,5.7881,5.7881,5.7881,5.7881,5.7881,5.7881,5.7881,5.7881,5.7881,5.7881,5.7881,5.7881,5.7881,5.7881,5.7881,5.7881,5.7881,5.7881,5.7881,5.7881,5.7881,5.7881,5.7881,5.8017,5.849,5.8626,5.8699,5.8919,5.9658,6.0219,5.9875,5.9185,5.8597,5.8597,5.8597,5.8597,5.8597,5.8597,5.8771,5.9284,5.9611,5.9867,6.0065,5.9934,5.9674,5.945,5.8909,5.8806,5.9318,5.9611,5.9995,6.0503,6.0897,6.1104,6.1104,6.1104,6.1104,6.1104,6.1104,6.0427,5.9092,5.9092,5.9311,5.9709,6.0087,6.056,2.7486,2.9987,3.278,3.4798,3.7506,4.0248,4.2279,4.479,4.7394,4.963,5.0676,5.1522,5.2536,5.2942,5.3179,5.345,5.3518,5.3518,5.3518,5.3518,5.3518,5.3518,5.3518,5.3518,5.3518,5.3518,5.3518,5.3518,5.3518,0.0,5.3518,5.3518,5.3518,5.3518,5.3518,5.3518,5.3518,5.4972,5.5681,5.575,5.7205,5.7881,5.7881,5.7881,5.7881,5.7881,5.7881,5.7881,5.7881,5.7881,5.7881,5.7881,5.7881,5.7881,5.7881,5.7881,5.7881,5.7881,5.7881,5.7881,5.7881,5.7881,5.7954,5.7991,5.8063,5.8099,5.8099,5.8099,5.8027,5.8126,5.849,5.8699,5.8955,5.9456,6.0324,6.1039,6.0973,6.0576,6.0279,6.0279,6.0279,6.0279,6.0279,6.0279,6.0412,6.0903,6.1242,6.1519,6.1675,6.1549,6.1366,6.1094,6.0611,6.0445,6.0935,6.1273,6.1706,6.2191,6.257,6.2766,6.2766,6.2766,6.2621,6.2395,6.2367,6.1993,6.1171,6.0915,6.095,6.1272,6.164,6.2005,0.0,0.0,0.0,3.1752,3.3241,3.5148,3.8125,4.0561,4.3267,4.7027,4.8443,4.9424,5.0914,5.1792,5.2536,5.3348,5.3484,5.3518,5.3518,5.3518,5.3518,5.3518,5.3518,5.3518,5.3518,5.3518,5.3518,5.3518,5.3518,5.3518,5.3518,5.3518,5.3518,5.3518,5.3518,5.3518,5.3518,5.4972,5.5716,5.575,5.7205,5.7918,5.7918,5.7918,5.7918,5.7918,5.7918,5.7918,5.7918,5.7918,5.7881,5.7881,5.7881,5.7881,5.7881,5.7881,5.7881,5.7881,5.7881,5.7881,5.7881,5.7881,5.8027,5.8277,5.8455,5.8525,5.8525,5.8525,5.8384,5.8171,5.7954,5.8207,5.8667,5.9383,5.9937,6.0441,6.0933,6.2047,6.2892,6.2789,6.2825,6.2825,6.2825,6.2825,6.2951,6.3296,6.3716,6.4043,6.4108,6.4043,6.3928,6.3669,6.3142,6.2951,6.3296,6.3746,6.4194,6.4584,6.5028,6.5301,6.5301,6.5301,6.4934,6.4127,6.409,6.3686,6.278,6.196,6.172,6.2024,6.2158,6.2423,2.5402,0.0,0.0,0.0,0.0,0.0,3.3715,3.7134,4.0967,4.4722,4.6955,4.8849,5.0813,5.1386,5.1758,5.2503,5.3112,5.3518,5.3518,5.3518,5.3518,5.3518,5.3518,5.3518,5.3518,5.3518,5.3518,0.0,5.3518,5.3518,5.3518,5.3518,5.3518,5.3518,5.3518,5.3518,5.3518,5.4972,5.5786,5.596,5.7562,5.8385,5.8457,5.8632,5.8702,5.8702,5.8702,5.8702,5.8667,5.8135,5.7881,5.7881,5.7881,5.7881,5.7881,5.7881,5.7881,5.7881,5.7881,5.7881,5.7881,5.7881,5.8135,5.8456,5.8806,5.9012,5.9046,5.8943,5.8772,5.8526,5.835,5.8598,5.9146,5.9838,6.1072,6.2213,6.2627,6.4174,6.4936,6.3118,6.3185,6.3579,6.3579,6.3579,6.3735,6.4029,6.4295,6.4492,6.4603,6.452,6.438,6.4209,6.3824,6.3699,6.4058,6.4287,6.4575,6.4921,6.5171,6.5301,6.5301,6.5301,6.4934,6.4127,6.409,6.3686,6.278,6.2578,6.25,6.2578,6.2603,6.2679,2.666,2.6922,2.7145,2.6837,0.0,0.0,3.1696,3.4798,3.8478,4.2227,4.4518,4.6459,4.8401,4.9014,4.9354,4.9763,5.0751,5.1949,5.3314,5.3518,5.3518,5.3518,5.3518,5.3518,5.3518,5.3518,5.3518,5.3518,5.3518,5.3518,5.3518,5.3518,5.3518,5.3518,5.3518,5.3518,5.3518,5.4972,5.5822,5.6099,5.7912,5.8875,5.9114,5.9448,5.9578,5.9578,5.9578,5.9578,5.958,5.9113,5.8702,5.835,5.835,5.835,5.835,5.835,5.835,5.835,5.835,5.835,5.835,5.835,5.8667,5.9114,5.9445,5.9676,5.9776,5.9609,5.918,5.8875,5.9012,5.9315,5.9736,6.056,6.1659,6.264,6.301,6.4359,6.5244,6.443,6.4936,6.5509,6.5509,6.5509,6.5565,6.5769,6.5852,6.5934,6.5979,6.5961,6.588,6.5797,6.5593,6.5565,6.5769,6.5852,6.5961,6.6186,6.6239,6.6292,6.6292,6.6292,6.5925,6.5118,6.5081,6.4677,6.3833,6.3135,6.278,6.278,6.278,6.278,2.9917,2.978,2.9572,2.8809,2.9088,0.0,3.1129,3.3252,3.5946,3.9491,4.1492,4.3044,4.4596,4.5389,4.5872,4.5941,4.7251,4.9428,5.2633,5.3144,5.3212,5.3314,5.328,5.3348,5.3449,5.3449,5.3517,5.3584,5.3584,5.3584,5.3584,5.3584,5.3584,5.3584,5.3584,5.3584,5.3584,5.5076,5.5996,5.637,5.8285,5.9445,5.9838,6.0309,6.0524,6.0524,6.0524,6.0524,6.0524,6.0524,5.9998,5.9148,5.9148,5.9148,5.9148,5.9148,5.9148,5.9148,5.9148,5.9148,5.9148,5.9148,5.9516,6.0005,6.0282,6.0498,6.0595,6.0375,5.9741,5.9283,5.9779,6.0125,6.0555,6.1401,6.1942,6.2318,6.2578,6.339,6.453,6.5962,6.688,6.743,6.743,6.743,6.743,6.743,6.7504,6.7577,6.7577,6.7614,6.7687,6.7687,6.7687,6.7687,6.7687,6.7687,6.7687,6.7687,6.7687,6.7687,6.7687,6.7687,6.732,6.6512,6.6402,6.5999,6.5301,6.3796,6.3074,6.3074,6.3074,6.3074,3.214,3.1598,3.0926,3.0178,3.0061,0.0,2.9702,3.1823,3.4425,3.64,3.8461,4.0421,4.1892,4.2277,4.2591,4.3161,4.4666,4.6839,5.0145,5.1028,5.1486,5.2006,5.2043,5.2281,5.2961,5.3124,5.3492,5.4237,5.4271,5.4271,5.4271,5.4271,5.4271,5.4271,5.4271,5.4271,5.4271,5.5748,5.6735,5.7251,5.9134,6.0251,6.0747,6.1104,6.1315,6.1315,6.1315,6.1315,6.1315,6.1315,6.0831,6.0121,6.0121,6.0121,6.0121,6.0121,6.0121,6.0121,6.0121,6.0121,6.0121,6.0121,6.0371,6.0766,6.1207,6.1386,6.1394,6.1098,6.0555,6.0215,6.0585,6.0997,6.1436,6.1933,6.237,6.2705,6.2755,6.3477,6.4163,6.4494,6.5228,6.5778,6.5778,6.5778,6.5778,6.5778,6.6329,6.6733,6.6733,6.7283,6.7687,6.7687,6.7687,6.7687,6.7687,6.7687,6.7687,6.7687,6.7687,6.7687,6.7687,6.7687,6.732,6.6512,6.5852,6.5485,6.5301,6.4971,6.4824,6.4824,6.4824,6.4824,3.5352,3.4712,3.3817,3.2686,0.0,0.0,0.0,3.1974,3.3764,3.5296,3.6842,3.8244,3.9357,3.9569,3.9676,4.0046,4.1469,4.3404,4.5866,4.8754,5.099,5.189,5.2031,5.2341,5.3094,5.338,5.3931,5.5029,5.5094,5.5094,5.5094,5.5094,5.5094,5.5094,5.5094,5.5304,5.5684,5.6842,5.7829,5.8673,6.0167,6.1156,6.16,6.1987,6.2149,6.2149,6.2149,6.2149,6.2149,6.2149,6.1924,6.1548,6.1127,6.095,6.095,6.095,6.095,6.095,6.095,6.095,6.095,6.095,6.1156,6.1508,6.1814,6.1933,6.1987,6.2153,6.1882,6.1718,6.2435,6.2859,6.3175,6.3547,6.3847,6.4053,6.4053,6.4383,6.4714,6.4714,6.5044,6.5301,6.5301,6.5301,6.5301,6.5301,6.5999,6.6512,6.6512,6.7173,6.7687,6.7687,6.7687,6.7687,6.7687,6.7687,6.7687,6.7687,6.7687,6.7687,6.7687,6.7687,6.7504,6.71,6.6696,6.6512,6.6512,6.6512,6.6072,6.5301,6.5301,6.5301,3.8536,3.7814,3.6749,3.5338,0.0,3.3262,0.0,0.0,0.0,3.465,3.5499,3.622,3.6852,3.6943,3.6943,3.6943,3.8329,3.9914,4.1535,4.5747,4.9232,5.0932,5.1356,5.1807,5.2705,5.3369,5.4092,5.4914,5.5119,5.519,5.519,5.5474,5.5679,5.5679,5.5821,5.6311,5.7086,5.791,5.8873,6.0003,6.116,6.1924,6.2291,6.2629,6.278,6.278,6.278,6.278,6.278,6.278,6.278,6.273,6.2014,6.174,6.174,6.174,6.174,6.174,6.174,6.174,6.174,6.174,6.1906,6.2158,6.2265,6.2318,6.2474,6.3166,6.3192,6.3225,6.4283,6.4639,6.4813,6.5091,6.5223,6.5301,6.5301,6.5301,6.5301,6.5301,6.5301,6.5301,6.5301,6.5301,6.5301,6.5301,6.5999,6.6512,6.6512,6.7173,6.7687,6.7687,6.7687,6.7687,6.7687,6.7687,6.7687,6.7687,6.7687,6.7687,6.7687,6.7687,6.7687,6.7687,6.7687,6.7687,6.7687,6.7687,6.7026,6.5778,6.5778,6.5778,0.0,0.0,0.0,0.0,3.5974,0.0,0.0,0.0,3.3579,3.3016,0.0,3.4128,3.4224,0.0,0.0,3.4224,3.5652,3.7299,3.891,4.0704,4.3073,4.6477,4.7628,4.87,5.0101,5.2029,5.2956,5.2373,5.3007,5.3401,5.3401,5.4743,5.5522,5.5522,5.6204,5.702,5.7873,5.86,5.9564,6.0693,6.1652,6.2291,6.2552,6.273,6.278,6.278,6.278,6.278,6.278,6.278,6.278,6.278,6.2679,6.2654,6.2654,6.2654,6.2654,6.2654,6.2654,6.2654,6.2654,6.2654,6.2679,6.2705,6.273,6.273,6.2913,6.3757,6.3987,6.4145,6.4977,6.5223,6.5223,6.5249,6.5275,6.5301,6.5301,6.5301,6.5301,6.5301,6.5301,6.5301,6.5301,6.5301,6.5301,6.5301,6.5999,6.6512,6.6512,6.7173,6.7687,6.7687,6.7687,6.7687,6.7687,6.7687,6.7687,6.7687,6.7687,6.7687,6.7687,6.7687,6.7687,6.7687,6.7687,6.7687,6.7687,6.7687,6.7614,6.743,6.743,6.743,0.0,0.0,0.0,0.0,0.0,0.0,3.377,0.0,3.3844,0.0,0.0,0.0,0.0,0.0,0.0,0.0,3.5078,0.0,3.7147,3.811,4.0056,4.3622,0.0,0.0,4.9111,5.1239,5.2126,5.1304,5.2017,5.2672,5.3145,5.5132,5.6224,5.6224,5.7049,5.8068,5.9404,5.9707,6.0559,6.1963,6.238,6.2603,6.2705,6.278,6.278,6.278,6.278,6.278,6.278,6.278,6.278,6.278,6.278,6.278,6.278,6.278,6.278,6.278,6.278,6.278,6.2853,6.3392,6.3539,6.3649,6.4127,6.4273,6.442,6.5264,6.5485,6.5668,6.6476,6.6696,6.6696,6.6696,6.6696,6.6696,6.6696,6.6696,6.6696,6.6696,6.6696,6.6696,6.6696,6.5925,6.5301,6.5301,6.5999,6.6512,6.6512,6.7173,6.7687,6.7687,6.7687,6.7687,6.7687,6.7687,6.7687,6.7687,6.7687,6.7687,6.7687,6.7687,6.7687,6.7687,6.7687,6.7687,6.7687,6.7687,6.7687,6.7687,6.7687,6.7687,4.6507,0.0,0.0,0.0,0.0,0.0,0.0,0.0,0.0,0.0,0.0,0.0,0.0,0.0,0.0,0.0,0.0,3.4821,0.0,3.5878,3.7583,0.0,0.0,0.0,0.0,4.9322,5.0105,4.9517,5.0215,5.1096,5.216,5.473,5.6235,5.6455,5.7483,5.8657,6.0052,6.0309,6.1117,6.2475,6.267,6.278,6.278,6.278,6.278,6.278,6.278,6.278,6.278,6.278,6.278,6.278,6.278,6.278,6.278,6.278,6.278,6.278,6.278,6.278,6.2952,6.3796,6.409,6.4237,6.5081,6.5301,6.5485,6.6256,6.6512,6.6696,6.7467,6.7687,6.7687,6.7687,6.7687,6.7687,6.7687,6.7687,6.7687,6.7687,6.7687,6.7687,6.7687,6.6733,6.5962,6.5962,6.6439,6.6843,6.6843,6.732,6.7687,6.7687,6.7687,6.7687,6.7687,6.7687,6.7687,6.7687,6.7687,6.7687,6.7687,6.7687,6.7687,6.7687,6.7687,6.7687,6.7687,6.7687,6.7687,6.7687,6.7687,6.7687,0.0,0.0,0.0,4.0708,0.0,0.0,0.0,0.0,3.4968,0.0,0.0,0.0,0.0,0.0,0.0,0.0,0.0,0.0,0.0,0.0,3.5015,0.0,0.0,0.0,0.0,4.5553,4.6067,0.0,4.6782,4.7976,4.9647,5.2747,5.484,5.5611,5.7152,5.84,5.9221,6.0015,6.0823,6.163,6.2438,6.278,6.278,6.278,6.278,6.278,6.278,6.278,6.278,6.278,6.278,6.278,6.278,6.278,6.278,6.278,6.278,6.278,6.278,6.278,6.2952,6.3796,6.409,6.4237,6.5081,6.5301,6.5485,6.6256,6.6512,6.6696,6.7467,6.7687,6.7687,6.7687,6.7687,6.7687,6.7687,6.7687,6.7687,6.7687,6.7687,6.7687,6.7687,6.765,6.7614,6.7614,6.7614,6.765,6.765,6.7677,6.7687,6.7687,6.7687,6.7687,6.7687,6.7687,6.7687,6.7687,6.7687,6.7687,6.7687,6.7687,6.7687,6.7687,6.7687,6.7687,6.7687,6.7687,6.7687,6.7687,6.7687,6.7687,0.0,0.0,4.8086,4.5369,0.0,0.0,0.0,0.0,0.0,0.0,0.0,0.0,0.0,0.0,0.0,0.0,0.0,0.0,0.0,0.0,0.0,0.0,3.8496,4.052,0.0,0.0,0.0,4.3534,4.4268,4.5663,4.7829,5.1536,5.3959,5.4766,5.6859,5.84,5.9184,5.9478,6.0272,6.1594,6.1887,6.2291,6.278,6.278,6.278,6.278,6.278,6.278,6.278,6.278,6.278,6.278,6.278,6.278,6.278,6.278,6.278,6.2853,6.3466,6.4016,6.4604,6.5411,6.5705,6.5852,6.6623,6.688,6.6953,6.721,6.7283,6.7357,6.7614,6.7687,6.7687,6.7687,6.7687,6.7687,6.7687,6.7687,6.7687,6.7687,6.7687,6.7687,6.7687,6.7687,6.7687,6.7687,6.7687,6.7687,6.7687,6.7687,6.7687,6.7687,6.7687,6.7687,6.7687,6.7687,6.7687,6.7687,6.7687,6.7687,6.7687,6.7687,6.7687,6.7687,6.7687,6.7687,6.7687,6.7687,6.7687,6.7687,6.7687,6.7687,5.4289,5.3078,0.0,4.9021,4.6801,0.0,4.1148,0.0,4.0561,0.0,0.0,0.0,0.0,0.0,0.0,0.0,0.0,0.0,0.0,3.3293,0.0,0.0,3.6523,3.8175,3.8961,4.023,4.1148,4.1405,4.2176,4.3828,0.0,5.0288,5.2968,5.4363,5.6748,5.8253,5.8767,5.9038,5.9869,6.119,6.1447,6.2034,6.278,6.278,6.278,6.278,6.278,6.278,6.278,6.278,6.278,6.278,6.278,6.278,6.278,6.278,6.3025,6.3392,6.4237,6.4861,6.5448,6.6256,6.6512,6.6659,6.7467,6.7687,6.7687,6.7687,6.7687,6.7687,6.7687,6.7687,6.7687,6.7687,6.7687,6.7687,6.7687,6.7687,6.7687,6.7687,6.7687,6.7687,6.7687,6.7687,6.7687,6.7687,6.7687,6.7687,6.7687,6.7687,6.7687,6.7687,6.7687,6.7687,6.7687,6.7687,6.7687,6.7687,6.7687,6.7687,6.7687,6.7687,6.7687,6.7687,6.7687,6.7687,6.7687,6.7687,6.7687,6.7687,6.7687,6.7687]}]]